[[{"header":{"parameterUnit":"m.s-1","parameterCategory":1,"la1":30.6,"la2":29.2853,"lo1":-89.7004,"lo2":-87.6739,"dy":0.0162,"dx":0.0183,"nx":112,"ny":82,"refTime":"2023-11-18T06:00:00:Z","depth":0,"parameterNumber":2,"parameterNumberName":"U-component_of_WINDS"},"data":[0.0,0.0,0.0,0.0,0.0,0.0,0.0,0.0,0.0,0.0,0.0,0.0,0.0,0.0,0.0,0.0,0.0,0.0,0.0,0.0,0.0,0.0,0.0,0.0,0.0,0.0,0.0,0.0,0.0,0.0,0.0,0.0,0.0,0.0,0.0,0.0,0.0,0.0,0.0,0.0,0.0,0.0,0.0,0.0,0.0,0.0,0.0,0.0,0.0,0.0,0.0,0.0,0.0,0.0,0.0,0.0,0.0,0.0,0.0,0.0,0.0,0.0,0.0,0.0,0.0,0.0,0.0,0.0,0.0,0.0,0.0,0.0,0.0,0.0,0.0,0.0,0.0,0.0,0.0,0.0,0.0,0.0,0.0,0.0,0.0,0.0,0.0,0.0,0.0,0.0,-7.1987,-7.1987,-7.1951,-7.1906,-7.1903,-7.1214,-7.0785,-7.0785,0.0,0.0,0.0,0.0,0.0,0.0,0.0,0.0,0.0,0.0,0.0,0.0,0.0,0.0,0.0,0.0,0.0,0.0,0.0,0.0,0.0,0.0,0.0,0.0,0.0,0.0,0.0,0.0,0.0,0.0,0.0,0.0,0.0,0.0,0.0,0.0,0.0,0.0,0.0,0.0,0.0,0.0,0.0,0.0,0.0,0.0,0.0,0.0,0.0,0.0,0.0,0.0,0.0,0.0,0.0,0.0,0.0,0.0,0.0,0.0,0.0,0.0,0.0,0.0,0.0,0.0,0.0,0.0,0.0,0.0,0.0,0.0,0.0,0.0,0.0,0.0,0.0,0.0,0.0,0.0,0.0,0.0,0.0,0.0,0.0,0.0,0.0,0.0,0.0,0.0,0.0,0.0,0.0,0.0,0.0,0.0,0.0,0.0,0.0,0.0,0.0,0.0,0.0,0.0,-7.1987,-7.1987,-7.1942,-7.1914,-7.1903,-7.1792,-7.1714,-7.1714,0.0,0.0,0.0,0.0,0.0,0.0,0.0,0.0,0.0,0.0,0.0,0.0,0.0,0.0,0.0,0.0,0.0,0.0,0.0,0.0,0.0,0.0,0.0,0.0,0.0,0.0,0.0,0.0,0.0,0.0,0.0,0.0,0.0,0.0,0.0,0.0,0.0,0.0,0.0,0.0,0.0,0.0,0.0,0.0,0.0,0.0,0.0,0.0,0.0,0.0,0.0,0.0,0.0,0.0,0.0,0.0,0.0,0.0,0.0,0.0,0.0,0.0,0.0,0.0,0.0,0.0,0.0,0.0,0.0,0.0,0.0,0.0,0.0,0.0,0.0,0.0,0.0,0.0,0.0,0.0,0.0,0.0,0.0,0.0,0.0,0.0,0.0,0.0,0.0,0.0,0.0,0.0,0.0,0.0,0.0,0.0,0.0,0.0,0.0,0.0,0.0,0.0,0.0,-7.1987,-7.1987,-7.1987,-7.1939,-7.1875,-7.185,-7.1806,-7.1798,-7.1788,-7.1054,0.0,0.0,0.0,0.0,0.0,0.0,0.0,0.0,0.0,0.0,0.0,0.0,0.0,0.0,0.0,0.0,0.0,0.0,0.0,0.0,0.0,0.0,0.0,0.0,0.0,0.0,0.0,0.0,0.0,0.0,0.0,0.0,0.0,0.0,0.0,0.0,0.0,0.0,0.0,0.0,0.0,0.0,0.0,0.0,0.0,0.0,0.0,0.0,0.0,0.0,0.0,0.0,0.0,0.0,0.0,0.0,0.0,0.0,0.0,0.0,0.0,0.0,0.0,0.0,0.0,0.0,0.0,0.0,0.0,0.0,0.0,0.0,0.0,0.0,0.0,0.0,0.0,0.0,0.0,0.0,0.0,0.0,0.0,0.0,0.0,0.0,0.0,0.0,0.0,0.0,0.0,0.0,0.0,0.0,0.0,0.0,0.0,0.0,0.0,0.0,0.0,0.0,-7.1987,-7.1987,-7.1987,-7.1936,-7.1875,-7.1797,-7.1753,-7.1809,-7.1991,-7.2004,0.0,0.0,0.0,0.0,0.0,0.0,0.0,0.0,0.0,0.0,0.0,0.0,0.0,0.0,0.0,0.0,0.0,0.0,0.0,0.0,0.0,0.0,0.0,0.0,0.0,0.0,0.0,0.0,0.0,0.0,0.0,0.0,0.0,0.0,0.0,0.0,0.0,0.0,0.0,0.0,0.0,0.0,0.0,0.0,0.0,0.0,0.0,0.0,0.0,0.0,0.0,0.0,0.0,0.0,0.0,0.0,0.0,0.0,0.0,0.0,0.0,0.0,0.0,0.0,0.0,0.0,0.0,0.0,0.0,0.0,0.0,0.0,0.0,0.0,0.0,0.0,0.0,0.0,0.0,0.0,0.0,0.0,0.0,0.0,0.0,0.0,0.0,0.0,0.0,0.0,0.0,0.0,0.0,0.0,0.0,0.0,0.0,0.0,0.0,0.0,0.0,0.0,-7.1987,-7.1987,-7.1987,-7.1993,-7.1945,-7.1802,-7.1792,-7.2119,-7.2862,-7.2899,0.0,0.0,0.0,0.0,0.0,0.0,0.0,0.0,0.0,0.0,0.0,0.0,0.0,0.0,0.0,0.0,0.0,0.0,0.0,0.0,0.0,0.0,0.0,0.0,0.0,0.0,0.0,0.0,0.0,0.0,0.0,0.0,0.0,0.0,0.0,0.0,0.0,0.0,0.0,0.0,0.0,0.0,0.0,0.0,0.0,0.0,0.0,0.0,0.0,0.0,0.0,0.0,0.0,0.0,0.0,0.0,0.0,0.0,0.0,0.0,0.0,0.0,0.0,0.0,0.0,0.0,0.0,0.0,0.0,0.0,0.0,0.0,0.0,0.0,0.0,0.0,0.0,0.0,0.0,0.0,0.0,0.0,0.0,0.0,0.0,0.0,0.0,0.0,0.0,0.0,0.0,0.0,0.0,0.0,0.0,0.0,0.0,0.0,0.0,0.0,0.0,0.0,-7.2339,-7.1987,-7.1987,-7.1987,-7.1945,-7.1802,-7.1735,-7.2041,-7.2951,0.0,0.0,0.0,0.0,0.0,0.0,0.0,0.0,0.0,0.0,0.0,0.0,0.0,0.0,0.0,0.0,0.0,0.0,0.0,0.0,0.0,0.0,0.0,0.0,0.0,0.0,0.0,0.0,0.0,0.0,0.0,0.0,0.0,0.0,0.0,0.0,0.0,0.0,0.0,0.0,0.0,0.0,0.0,0.0,0.0,0.0,0.0,0.0,0.0,0.0,0.0,0.0,0.0,0.0,0.0,0.0,0.0,0.0,0.0,0.0,0.0,0.0,0.0,0.0,0.0,0.0,0.0,0.0,0.0,0.0,0.0,0.0,0.0,0.0,0.0,0.0,0.0,0.0,0.0,0.0,0.0,0.0,0.0,0.0,0.0,0.0,0.0,0.0,0.0,0.0,0.0,0.0,0.0,0.0,0.0,0.0,0.0,0.0,0.0,0.0,0.0,0.0,-7.3315,-7.2534,-7.1987,-7.1987,-7.1987,-7.1942,-7.1815,-7.1924,-7.2404,-7.3367,0.0,0.0,0.0,0.0,0.0,0.0,0.0,0.0,0.0,0.0,0.0,0.0,0.0,0.0,0.0,0.0,0.0,0.0,0.0,0.0,0.0,0.0,0.0,0.0,0.0,0.0,0.0,0.0,0.0,0.0,0.0,0.0,0.0,0.0,0.0,0.0,0.0,0.0,0.0,0.0,0.0,0.0,0.0,0.0,0.0,0.0,0.0,0.0,0.0,0.0,0.0,0.0,0.0,0.0,0.0,0.0,0.0,0.0,0.0,0.0,0.0,0.0,0.0,0.0,0.0,0.0,0.0,0.0,0.0,0.0,0.0,0.0,0.0,0.0,0.0,0.0,0.0,0.0,0.0,0.0,0.0,0.0,0.0,0.0,0.0,0.0,0.0,0.0,0.0,0.0,0.0,0.0,0.0,0.0,0.0,0.0,0.0,0.0,0.0,0.0,0.0,0.0,-7.3432,-7.2534,-7.2026,-7.1987,-7.1987,-7.1932,-7.1795,-7.2495,-7.3289,0.0,0.0,0.0,0.0,0.0,0.0,0.0,0.0,0.0,0.0,0.0,0.0,0.0,0.0,0.0,0.0,0.0,0.0,0.0,0.0,0.0,0.0,0.0,0.0,0.0,0.0,0.0,0.0,0.0,0.0,0.0,0.0,0.0,0.0,0.0,0.0,0.0,0.0,0.0,0.0,0.0,0.0,0.0,0.0,0.0,0.0,0.0,0.0,0.0,0.0,0.0,0.0,0.0,0.0,0.0,0.0,0.0,0.0,0.0,0.0,0.0,0.0,0.0,0.0,0.0,0.0,0.0,0.0,0.0,0.0,0.0,0.0,0.0,0.0,0.0,0.0,0.0,0.0,0.0,0.0,0.0,0.0,0.0,0.0,0.0,0.0,0.0,0.0,0.0,0.0,0.0,0.0,0.0,0.0,0.0,0.0,0.0,0.0,0.0,0.0,0.0,0.0,0.0,-7.4251,-7.3432,-7.269,-7.2065,-7.1987,-7.1967,-7.1874,-7.2572,-7.3403,-7.4328,0.0,0.0,0.0,0.0,0.0,0.0,0.0,0.0,0.0,0.0,0.0,0.0,0.0,0.0,0.0,0.0,0.0,0.0,0.0,0.0,0.0,0.0,0.0,0.0,0.0,0.0,0.0,0.0,0.0,0.0,0.0,0.0,0.0,0.0,0.0,0.0,0.0,0.0,0.0,0.0,0.0,0.0,0.0,0.0,0.0,0.0,0.0,0.0,0.0,0.0,0.0,0.0,0.0,0.0,0.0,0.0,0.0,0.0,0.0,0.0,0.0,0.0,0.0,0.0,0.0,0.0,0.0,0.0,0.0,0.0,0.0,0.0,0.0,0.0,0.0,0.0,0.0,0.0,0.0,0.0,0.0,0.0,0.0,0.0,0.0,0.0,0.0,0.0,0.0,0.0,0.0,0.0,0.0,0.0,0.0,0.0,0.0,0.0,0.0,0.0,0.0,0.0,-7.5071,-7.4017,-7.3119,-7.2573,-7.2221,-7.1958,-7.1942,-7.2925,-7.3749,-7.4343,0.0,0.0,0.0,0.0,0.0,0.0,0.0,0.0,0.0,0.0,0.0,0.0,0.0,0.0,0.0,0.0,0.0,0.0,0.0,0.0,0.0,0.0,0.0,0.0,0.0,0.0,0.0,0.0,0.0,0.0,0.0,0.0,0.0,0.0,0.0,0.0,0.0,0.0,0.0,0.0,0.0,0.0,0.0,0.0,0.0,0.0,0.0,0.0,0.0,0.0,0.0,0.0,0.0,0.0,0.0,0.0,0.0,0.0,0.0,0.0,0.0,0.0,0.0,0.0,0.0,0.0,0.0,0.0,0.0,0.0,0.0,0.0,0.0,0.0,0.0,0.0,0.0,0.0,0.0,0.0,0.0,0.0,0.0,0.0,0.0,0.0,0.0,0.0,0.0,0.0,0.0,0.0,0.0,0.0,0.0,0.0,0.0,0.0,0.0,0.0,0.0,0.0,-7.5813,-7.4486,-7.3471,-7.3315,-7.2573,-7.2071,-7.2006,-7.3303,-7.4164,-7.4297,0.0,0.0,0.0,0.0,0.0,0.0,0.0,0.0,0.0,0.0,0.0,0.0,0.0,0.0,0.0,0.0,0.0,0.0,0.0,0.0,0.0,0.0,0.0,0.0,0.0,0.0,0.0,0.0,0.0,0.0,0.0,0.0,0.0,0.0,0.0,0.0,0.0,0.0,0.0,0.0,0.0,0.0,0.0,0.0,0.0,0.0,0.0,0.0,0.0,0.0,0.0,0.0,0.0,0.0,0.0,0.0,0.0,0.0,0.0,0.0,-7.0525,-7.0871,0.0,0.0,0.0,0.0,0.0,0.0,0.0,0.0,0.0,0.0,0.0,0.0,0.0,0.0,0.0,0.0,0.0,0.0,0.0,0.0,0.0,0.0,0.0,0.0,0.0,0.0,0.0,0.0,0.0,0.0,0.0,0.0,0.0,0.0,0.0,0.0,0.0,0.0,0.0,0.0,-7.5891,-7.5501,-7.4759,-7.3432,-7.3119,-7.2734,-7.2045,-7.2812,-7.3607,-7.4265,-7.5195,0.0,0.0,0.0,0.0,0.0,0.0,0.0,0.0,0.0,0.0,0.0,0.0,0.0,0.0,0.0,0.0,0.0,0.0,0.0,0.0,0.0,0.0,0.0,0.0,0.0,0.0,0.0,0.0,0.0,0.0,0.0,0.0,0.0,0.0,0.0,0.0,0.0,0.0,0.0,0.0,0.0,0.0,0.0,0.0,0.0,0.0,0.0,0.0,0.0,0.0,0.0,0.0,0.0,0.0,0.0,0.0,0.0,0.0,0.0,-7.0706,-7.0898,0.0,0.0,0.0,0.0,0.0,0.0,0.0,0.0,0.0,0.0,0.0,0.0,0.0,0.0,0.0,0.0,0.0,0.0,0.0,0.0,0.0,0.0,0.0,0.0,0.0,0.0,0.0,0.0,0.0,0.0,0.0,0.0,0.0,0.0,0.0,0.0,0.0,0.0,0.0,0.0,-7.6477,-7.6047,-7.5462,-7.4603,-7.3788,-7.3291,-7.3264,-7.3119,-7.3374,-7.4216,-7.4933,0.0,0.0,0.0,0.0,0.0,0.0,0.0,0.0,0.0,0.0,0.0,0.0,0.0,0.0,0.0,0.0,0.0,0.0,0.0,0.0,0.0,0.0,0.0,0.0,0.0,0.0,0.0,0.0,0.0,0.0,0.0,0.0,0.0,0.0,0.0,0.0,0.0,0.0,0.0,0.0,0.0,0.0,0.0,0.0,0.0,0.0,0.0,0.0,0.0,0.0,0.0,0.0,0.0,-7.0843,-7.0871,-7.0815,-7.0871,-7.0898,-7.0898,-7.0898,-7.0898,-7.0898,-7.0898,0.0,0.0,0.0,0.0,0.0,0.0,0.0,0.0,0.0,0.0,0.0,0.0,0.0,0.0,0.0,0.0,0.0,0.0,0.0,0.0,0.0,0.0,-7.7101,-7.7101,-7.7101,-7.7101,-7.7101,0.0,0.0,0.0,0.0,0.0,0.0,0.0,0.0,0.0,0.0,0.0,-7.7101,-7.6477,-7.5969,-7.5813,-7.4579,-7.3888,-7.429,-7.3588,-7.3347,-7.3924,-7.4674,-7.5121,0.0,0.0,0.0,0.0,0.0,0.0,0.0,0.0,0.0,0.0,0.0,0.0,0.0,0.0,0.0,0.0,0.0,0.0,0.0,0.0,0.0,0.0,0.0,0.0,0.0,0.0,0.0,0.0,0.0,0.0,0.0,0.0,-6.5345,-6.5413,0.0,0.0,0.0,0.0,0.0,0.0,0.0,0.0,0.0,0.0,0.0,0.0,0.0,-7.0737,-7.0787,-7.0787,-7.0815,-7.0871,-7.0898,-7.0898,-7.0871,-7.0898,-7.0898,-7.0898,-7.0898,0.0,-7.0898,-7.0898,0.0,0.0,0.0,0.0,0.0,0.0,0.0,0.0,0.0,0.0,0.0,0.0,0.0,0.0,0.0,0.0,0.0,0.0,0.0,0.0,0.0,0.0,-7.7101,-7.7101,-7.7101,-7.7101,0.0,-7.7101,-7.7101,-7.7101,-7.7101,-7.7101,0.0,0.0,0.0,0.0,0.0,0.0,-7.7101,-7.6984,-7.6633,-7.5891,-7.559,-7.4874,-7.3435,-7.3758,-7.3754,-7.3045,-7.4323,-7.5121,-7.5121,-7.5198,0.0,0.0,0.0,0.0,0.0,0.0,0.0,0.0,0.0,0.0,0.0,0.0,0.0,0.0,0.0,0.0,0.0,0.0,0.0,0.0,0.0,0.0,0.0,0.0,0.0,0.0,0.0,0.0,0.0,-6.522,-6.5413,-6.5413,-6.5413,-6.5605,0.0,0.0,0.0,0.0,0.0,0.0,0.0,0.0,0.0,-7.0729,-7.0787,-7.0815,-7.0843,-7.0843,-7.0871,-7.0898,-7.0898,-7.0898,-7.0898,-7.0898,-7.0898,-7.0898,-7.0898,-7.0898,-7.0898,-7.0898,-7.0898,-7.0925,0.0,0.0,0.0,0.0,-7.1358,-7.1395,-7.1559,-7.1615,-7.1615,-7.1615,0.0,0.0,0.0,0.0,0.0,0.0,0.0,-7.7101,0.0,0.0,-7.7101,-7.7101,-7.7101,-7.7101,-7.7101,-7.7101,-7.7101,-7.7101,-7.7101,-7.7101,-7.7101,-7.7101,0.0,0.0,0.0,-7.7101,-7.7101,-7.7101,-7.6945,-7.6555,-7.6097,-7.5655,-7.5304,-7.4616,-7.4209,-7.4217,-7.4788,-7.5121,-7.5121,-7.5121,-7.4889,0.0,0.0,0.0,0.0,0.0,0.0,0.0,0.0,0.0,0.0,0.0,0.0,0.0,0.0,0.0,0.0,0.0,0.0,0.0,0.0,0.0,0.0,0.0,0.0,0.0,0.0,0.0,0.0,-6.5314,-6.5413,-6.5413,-6.5413,-6.5757,0.0,0.0,0.0,0.0,0.0,0.0,-6.974,-7.0441,-7.0815,-7.0815,-7.0871,-7.0783,-7.0591,-7.0591,-7.0591,-7.0591,-7.0591,-7.0706,-7.0898,-7.0898,-7.0898,-7.0898,-7.0898,-7.0952,-7.0966,-7.0925,-7.0952,-7.0992,-7.1147,-7.1218,-7.128,-7.1481,-7.1544,-7.1573,-7.17,-7.178,-7.1819,-7.2053,-7.3261,-7.4665,-7.4665,0.0,0.0,0.0,0.0,-7.7101,-7.7101,-7.7101,-7.7101,-7.7101,-7.7101,-7.7101,-7.7101,-7.7101,-7.7101,0.0,-7.7101,-7.7101,-7.7101,-7.7101,0.0,-7.7101,-7.7101,-7.7101,-7.7101,-7.7101,-7.7101,-7.7101,-7.6527,-7.6243,-7.6583,-7.5545,-7.4898,-7.4924,-7.5249,-7.5237,-7.4811,-7.4811,-7.4425,-7.3574,0.0,0.0,0.0,0.0,0.0,0.0,0.0,0.0,0.0,0.0,0.0,0.0,0.0,0.0,0.0,0.0,0.0,0.0,0.0,0.0,0.0,0.0,0.0,0.0,0.0,0.0,0.0,0.0,0.0,-6.5413,-6.5413,0.0,0.0,0.0,0.0,-6.9169,-7.0064,-7.0622,-7.071,-7.0805,-7.0898,-7.0898,-7.0898,-7.0514,-6.9783,-6.9744,-6.9744,-6.9744,-6.9744,-7.0167,-7.0898,-7.0898,-7.0898,-7.0898,-7.0898,-7.1017,-7.117,-7.0966,-7.1017,-7.1192,-7.1214,-7.13,-7.1497,-7.1641,-7.1689,-7.1711,-7.1924,-7.1982,-7.2138,-7.2957,-7.4363,-7.5729,-7.5729,-7.636,0.0,0.0,-7.7101,-7.7101,-7.7101,-7.7101,-7.7101,-7.7101,-7.7101,-7.7101,-7.7101,-7.7101,-7.7101,0.0,-7.7101,-7.7101,-7.7101,0.0,-7.7101,-7.7101,-7.7101,-7.7101,-7.7101,-7.7101,-7.7101,-7.7101,-7.7073,-7.6639,-7.567,-7.6244,-7.591,-7.4083,-7.5469,-7.5624,-7.4038,-7.396,-7.3535,-7.2684,-7.1833,0.0,0.0,0.0,0.0,0.0,0.0,0.0,0.0,0.0,0.0,0.0,0.0,0.0,0.0,0.0,0.0,0.0,0.0,0.0,0.0,0.0,0.0,0.0,0.0,0.0,0.0,0.0,0.0,-6.5413,-6.591,0.0,-6.74,-6.7837,-6.8693,-7.0103,-7.0105,-7.0305,-7.0871,-7.0871,-7.0898,-7.0898,-7.0398,-7.0244,-7.0475,-6.9398,-6.9398,-7.0475,-6.9937,-7.0129,-7.0898,-7.0898,-7.0966,-7.1077,-7.1077,-7.1214,-7.1377,-7.13,-7.132,-7.1395,-7.1474,-7.1587,-7.1653,-7.1837,-7.187,-7.1916,-7.1982,-7.1987,-7.2221,-7.3627,-7.4876,-7.5891,-7.6477,-7.6867,-7.7101,-7.7101,-7.7101,-7.7101,-7.7101,-7.7101,-7.7101,-7.7101,-7.7101,-7.7101,-7.7101,-7.7101,-7.7101,-7.7101,-7.7101,-7.7101,-7.7101,-7.7101,-7.7101,-7.7101,-7.7101,-7.7101,-7.7101,-7.7101,-7.7101,-7.7101,-7.7107,-7.6872,-7.6365,-7.6604,-7.6443,-7.5553,-7.6049,-7.6127,-7.5546,-7.4463,-7.3767,-7.3458,-7.2026,-7.1717,0.0,0.0,0.0,0.0,0.0,0.0,0.0,0.0,0.0,0.0,0.0,0.0,0.0,0.0,0.0,0.0,0.0,0.0,0.0,0.0,0.0,0.0,0.0,0.0,0.0,-6.5314,-6.5413,-6.5413,-6.591,-6.6598,-6.7431,-6.7667,-6.833,-6.9778,-6.9509,-6.9487,-7.0052,-7.0052,-7.0052,-7.0052,-6.9552,-6.9513,-7.0052,-6.8936,-6.9129,-7.0475,-6.9937,-7.0129,-7.0898,-7.0898,-7.0966,-7.1101,-7.117,-7.13,-7.1481,-7.1544,-7.1601,-7.168,-7.1689,-7.1721,-7.1798,-7.193,-7.1987,-7.2026,-7.2339,-7.2612,-7.308,-7.4486,-7.554,-7.636,-7.6906,-7.7101,-7.7101,-7.7101,-7.7101,-7.7101,-7.7101,-7.7101,-7.7101,-7.7101,-7.7101,-7.7101,-7.7101,-7.7101,-7.7101,-7.7101,-7.7101,-7.7101,-7.7101,-7.7101,-7.7101,-7.7101,-7.7101,-7.7101,-7.7101,-7.7101,-7.7101,-7.7101,-7.7101,-7.7022,-7.6834,-7.6794,-7.6715,-7.6457,-7.6427,-7.6281,-7.5972,-7.4889,-7.4193,-7.3922,-7.2491,-7.2181,-7.3032,0.0,0.0,0.0,0.0,0.0,0.0,0.0,0.0,0.0,0.0,0.0,0.0,0.0,0.0,0.0,0.0,0.0,0.0,0.0,0.0,0.0,0.0,0.0,-6.5413,-6.5413,-6.5413,-6.5413,-6.5413,-6.5788,-6.6719,-6.6834,-6.7237,-6.8224,-6.829,-6.8317,-6.8398,-6.8436,-6.8436,-6.8398,-6.8436,-6.8436,-6.8436,-6.8398,-6.8859,-6.9744,-6.9706,-7.0129,-7.086,-7.0898,-7.0898,-7.0887,-7.1124,-7.13,-7.1497,-7.1641,-7.1798,-7.1982,-7.1789,-7.1846,-7.1987,-7.1987,-7.2026,-7.2143,-7.3002,-7.3822,-7.4681,-7.554,-7.6399,-7.7101,-7.7101,-7.7101,-7.7101,-7.7101,-7.7101,-7.7101,-7.7101,-7.7101,-7.7101,-7.7101,-7.7101,-7.7101,-7.7101,-7.7101,-7.7101,-7.7101,-7.7101,-7.7101,-7.7101,-7.7101,-7.7101,-7.7101,-7.7101,0.0,-7.7101,-7.7101,-7.7101,-7.7101,-7.7101,-7.7048,-7.6912,-7.6828,-7.6749,-7.6615,-7.6475,-7.6011,-7.5198,-7.5121,-7.4734,-7.3922,-7.3071,-7.3071,-7.3883,0.0,0.0,0.0,0.0,0.0,0.0,0.0,0.0,0.0,0.0,0.0,0.0,0.0,0.0,0.0,0.0,0.0,0.0,0.0,0.0,0.0,-6.5252,-6.5413,-6.5413,-6.5413,-6.5413,-6.5413,-6.5948,-6.6476,-6.6795,-6.7429,-6.7947,-6.829,-6.8345,-6.8371,-6.8398,-6.9013,-6.9052,-6.8436,-6.9013,-6.936,-6.936,-6.8744,-6.9129,-7.0552,-6.9975,-6.9821,-7.0052,-7.0629,-7.0619,-7.0197,-7.0921,-7.1395,-7.1641,-7.1573,-7.1728,-7.1987,-7.193,-7.193,-7.1987,-7.1987,-7.2417,-7.2963,-7.3236,-7.4251,-7.5462,-7.5735,-7.6399,-7.7101,-7.7101,-7.7101,-7.7101,-7.7101,-7.7101,-7.7101,-7.7101,-7.7101,-7.7101,-7.7101,-7.7101,-7.7101,-7.7101,-7.7101,-7.7101,-7.7101,-7.7101,-7.7101,-7.7101,-7.7101,-7.7101,-7.7101,-7.7101,0.0,-7.7101,-7.7101,-7.7101,-7.7101,-7.7101,-7.7048,-7.6912,-7.6828,-7.6749,-7.6615,-7.6475,-7.6281,-7.6049,-7.543,-7.4734,-7.3922,-7.3651,-7.3651,0.0,0.0,0.0,0.0,0.0,0.0,0.0,0.0,0.0,0.0,0.0,0.0,0.0,0.0,0.0,0.0,0.0,0.0,0.0,0.0,0.0,0.0,-6.5283,-6.5413,-6.5413,-6.5413,-6.5413,-6.5413,-6.5834,-6.617,-6.6289,-6.6806,-6.716,-6.728,-6.7333,-6.7359,-6.7359,-6.7821,-6.8013,-6.7859,-6.8359,-6.8975,-6.9706,-6.9206,-6.9436,-7.0398,-7.0283,-7.0014,-6.9744,-7.0514,-7.0671,-7.0343,-7.0938,-7.132,-7.149,-7.1497,-7.1667,0.0,0.0,0.0,0.0,0.0,-7.2534,-7.3354,-7.3705,-7.4681,-7.5852,-7.6242,-7.6672,-7.7101,-7.7101,-7.7101,-7.7101,-7.7101,-7.7101,-7.7101,-7.7101,-7.7101,-7.7101,-7.7101,-7.7101,-7.7101,-7.7101,-7.7101,-7.7101,-7.7101,-7.7101,0.0,-7.7101,-7.7101,-7.7101,-7.7101,-7.7101,-7.7101,-7.7101,-7.7101,-7.7101,-7.7101,-7.7101,-7.7078,-7.6987,-7.6892,0.0,0.0,0.0,-7.6466,-7.6397,-7.5895,0.0,0.0,0.0,-7.4386,-7.4386,-7.4077,0.0,0.0,-7.2993,-7.28,0.0,0.0,0.0,0.0,0.0,0.0,0.0,0.0,0.0,0.0,0.0,0.0,0.0,0.0,0.0,0.0,-6.5283,-6.5413,-6.5413,-6.5413,-6.5413,-6.5413,-6.5413,-6.5435,-6.558,-6.558,-6.5663,-6.5872,-6.5897,-6.5936,-6.6013,-6.6128,0.0,0.0,0.0,-6.8244,-6.9706,-6.9783,-6.986,-6.986,-7.0552,-7.0437,-6.959,-7.0475,-7.0783,-7.0656,-7.1,-7.1192,-7.1236,-7.1358,-7.1544,-7.1689,-7.1711,-7.1854,-7.2026,-7.2104,-7.269,-7.3549,-7.4369,0.0,0.0,-7.6867,-7.7101,-7.7101,-7.7101,-7.7101,-7.7101,-7.7101,-7.7101,-7.7101,-7.7101,-7.7101,-7.7101,-7.7101,-7.7101,-7.7101,-7.7101,-7.7101,-7.7101,-7.7101,-7.7101,-7.7101,-7.7101,-7.7101,-7.7101,-7.7101,-7.7101,-7.7101,-7.7101,-7.7101,-7.7101,-7.7101,0.0,0.0,-7.7101,-7.699,-7.6861,-7.6817,-7.666,-7.651,-7.6397,-7.6397,-7.6397,-7.6397,-7.5624,-7.5237,-7.5237,-7.4541,-7.4193,-7.4154,-7.3187,-7.3148,0.0,0.0,0.0,0.0,0.0,0.0,0.0,0.0,0.0,0.0,0.0,0.0,0.0,0.0,0.0,-6.5085,-6.5283,-6.5413,-6.5413,-6.5413,-6.5413,-6.5413,-6.5413,-6.5405,-6.5523,-6.5523,-6.558,-6.5793,-6.582,-6.6154,-6.6821,-6.7513,-6.8013,-6.8129,-6.9475,-7.0014,-6.9706,-7.036,-7.0667,-7.0667,-7.0821,0.0,-6.8706,-7.0206,-7.0167,-6.8975,-7.0336,-7.1067,-7.1214,-7.1053,-7.1218,-7.1559,-7.1837,-7.1976,-7.2104,-7.2807,-7.3588,-7.4408,-7.5266,-7.6125,-7.6867,-7.7062,-7.7101,-7.7101,-7.7101,-7.7101,0.0,-7.7101,-7.7101,-7.7101,-7.7101,-7.7101,-7.7101,-7.7101,-7.7101,-7.7101,-7.7101,-7.7101,-7.7101,-7.7101,-7.7101,-7.7101,-7.7101,-7.7101,-7.7101,-7.7101,-7.7101,-7.7101,-7.7101,-7.7101,-7.7101,-7.7101,-7.7101,-7.7101,-7.7101,-7.6991,-7.6853,-7.6817,-7.657,-7.6421,-7.6397,-7.6397,-7.6397,-7.6397,-7.6243,-7.6165,-7.6165,-7.5972,-7.5933,-7.5895,-7.4347,-7.3728,0.0,0.0,0.0,0.0,0.0,0.0,0.0,0.0,0.0,0.0,0.0,-6.4481,-6.4596,0.0,-6.5023,-6.5085,-6.5283,-6.5413,-6.5413,-6.5413,-6.5413,-6.5413,-6.5413,-6.5444,-6.5494,-6.5877,-6.6203,-6.6408,-6.6792,-6.7242,-6.7744,-6.7744,-6.8167,-6.9013,-6.9436,-6.9667,-6.9706,-7.0514,-7.0244,-6.9013,-6.9898,-6.9629,-6.8436,-6.9706,-7.0052,-6.9706,-7.0552,-7.094,-7.1067,-7.117,-7.13,-7.1513,-7.1854,-7.1987,-7.2104,-7.2963,-7.3822,-7.4603,-7.5501,-7.636,-7.7101,-7.7101,-7.7101,-7.7101,-7.7101,-7.7101,-7.7101,-7.7101,-7.7101,-7.7101,-7.7101,-7.7101,-7.7101,-7.7101,-7.7101,-7.7101,-7.7101,-7.7101,-7.7101,-7.7101,-7.7101,-7.7101,-7.7101,-7.7101,-7.7101,-7.7101,-7.7101,-7.7101,-7.7101,-7.7101,-7.7101,-7.7101,-7.7101,-7.7101,-7.7101,-7.6952,-7.6809,-7.676,-7.6516,-7.6397,-7.6397,-7.6397,-7.6397,-7.6397,-7.6397,-7.6397,-7.6397,-7.6397,-7.6397,-7.6359,-7.5546,-7.516,0.0,0.0,0.0,0.0,0.0,0.0,0.0,-6.4121,-6.4162,-6.4284,-6.4324,-6.4403,-6.4558,-6.4745,-6.4958,-6.5052,-6.5252,-6.5345,-6.5375,-6.5566,-6.5643,-6.5643,-6.549,-6.5482,-6.5694,-6.623,-6.671,-6.7187,-6.7571,-6.8021,-6.8629,-6.7821,-6.8167,-6.9898,-6.909,-6.9013,-6.9706,-7.0167,-6.9398,-6.7359,-6.891,-6.9217,-6.8436,-6.9475,-7.0206,-7.0667,-7.0821,-7.0898,-7.0952,-7.132,-7.1481,-7.1552,-7.2049,-7.226,-7.2378,-7.3236,-7.4056,-7.4876,-7.5735,-7.6516,-7.7101,-7.7101,-7.7101,-7.7101,-7.7101,-7.7101,-7.7101,-7.7101,-7.7101,-7.7101,-7.7101,-7.7101,-7.7101,-7.7101,-7.7101,-7.7101,-7.7101,-7.7101,-7.7101,-7.7101,-7.7101,-7.7101,-7.7101,-7.7101,-7.7101,-7.7101,-7.7101,-7.7101,-7.7101,-7.7101,-7.7101,-7.7101,-7.7101,-7.7101,-7.7101,-7.6902,-7.678,-7.6715,-7.6517,-7.6397,-7.6397,-7.6397,-7.6397,-7.6397,-7.6397,-7.6397,-7.6397,-7.6397,-7.6397,-7.6397,-7.6397,-7.6397,-6.0043,-6.0927,-6.1806,-6.2057,-6.2951,-6.3873,0.0,-6.4203,-6.4284,-6.4284,-6.4443,-6.4558,-6.4596,-6.4745,-6.4958,-6.5052,-6.5117,-6.522,-6.5345,-6.6063,-6.656,-6.656,-6.5872,-6.5719,-6.6483,-6.5948,-6.6268,-6.7947,-6.672,-6.6968,-6.9436,-6.8744,-6.9052,-7.0706,-6.9975,-6.959,-6.9706,-6.896,-6.8498,-6.8282,-6.9124,-6.9124,-6.8475,-7.0052,-7.0437,-6.986,-7.0591,-7.0898,-7.0952,-7.132,-7.1481,-7.1591,-7.2713,-7.3158,-7.3236,-7.4056,-7.4915,-7.5774,-7.6633,-7.7023,-7.7101,-7.7101,-7.7101,-7.7101,-7.7101,-7.7101,-7.7101,-7.7101,-7.7101,-7.7101,-7.7101,-7.7101,-7.7101,-7.7101,-7.7101,-7.7101,-7.7101,-7.7101,-7.7101,-7.7101,-7.7101,-7.7101,-7.7101,-7.7101,-7.7101,-7.7101,-7.7101,-7.7101,-7.7101,-7.7101,-7.7101,-7.7101,-7.7101,-7.7101,-7.7101,-7.6902,-7.6808,-7.68,-7.6552,-7.6397,-7.6397,-7.6397,-7.6397,-7.6397,-7.6397,-7.6397,-7.6397,-7.6397,-7.6397,-7.6397,-7.6397,-7.6397,-6.029,-6.1163,-6.2005,-6.2303,-6.3073,-6.378,-6.3915,-6.4,-6.4121,-6.4284,-6.4364,-6.4443,-6.4443,-6.4671,-6.4924,-6.4955,-6.5155,-6.5505,-6.6063,-6.6483,-6.6865,-6.7324,-6.7095,-6.698,-6.7362,-6.6636,-6.6927,-6.8731,-6.8195,-6.8493,-7.0182,-6.9452,-6.9299,-6.999,-6.925,-6.8569,-6.807,-6.8157,-6.7993,-6.7614,-6.8433,-6.8932,-6.9167,-6.9898,-7.0283,-7.0437,-7.0744,-7.0966,-7.1101,-7.1377,-7.1544,-7.1719,-7.2846,-7.3588,-7.4095,-7.4954,-7.5501,-7.593,-7.6789,-7.7101,-7.7101,-7.7101,-7.7101,-7.7101,-7.7101,-7.7101,-7.7101,-7.7101,-7.7101,-7.7101,-7.7101,-7.7101,-7.7101,-7.7101,-7.7101,-7.7101,-7.7101,-7.7101,-7.7101,-7.7101,-7.7101,-7.7101,-7.7101,-7.7101,-7.7101,-7.7101,-7.7101,-7.7101,-7.7101,-7.7101,-7.7101,-7.7101,-7.7101,-7.7101,-7.7101,-7.699,-7.6917,-7.6917,-7.6741,-7.6609,-7.6516,-7.6516,-7.6454,-7.6397,-7.6397,-7.6397,-7.6397,-7.6397,-7.6397,-7.6397,-7.6397,-7.6397,-6.0564,-6.13,-6.2059,-6.2544,-6.3205,-6.3691,-6.3867,-6.3915,-6.4,-6.4203,-6.4284,-6.4284,-6.4284,-6.4708,-6.5009,-6.4819,-6.5441,-6.6091,-6.6574,-6.7063,-6.7591,-6.8203,-6.8241,-6.8356,-6.8585,-6.763,-6.7775,-6.9552,-6.9207,-6.9467,-7.0631,-6.9864,-6.9519,-6.9749,-6.8944,-6.8215,-6.7602,-6.7956,-6.7899,-6.7368,-6.8185,-6.9009,-6.9706,-6.9937,-7.036,-7.0898,-7.0898,-7.1017,-7.1236,-7.1413,-7.1729,-7.2139,-7.3211,-7.4134,-7.4954,-7.5852,-7.6164,-7.6242,-7.6867,-7.7101,-7.7101,-7.7101,-7.7101,-7.7101,-7.7101,-7.7101,-7.7101,-7.7101,-7.7101,-7.7101,-7.7101,-7.7101,-7.7101,-7.7101,-7.7101,-7.7101,-7.7101,-7.7101,-7.7101,-7.7101,-7.7101,-7.7101,-7.7101,-7.7101,-7.7101,-7.7101,-7.7101,-7.7101,-7.7101,-7.7101,-7.7101,-7.7101,-7.7107,-7.7107,-7.7107,-7.7031,-7.7016,-7.7016,-7.6847,-7.6755,-7.6638,-7.6626,-7.6536,-7.6471,-7.6444,-7.6397,-7.6397,-7.6397,-7.6397,-7.6397,-7.6397,-7.6397,-6.0782,-6.1451,-6.2059,-6.2544,-6.3252,-6.378,-6.378,-6.3953,-6.4121,-6.4083,-6.4203,-6.4284,-6.4284,-6.4923,-6.5304,-6.4671,-6.6105,-6.7045,-6.6493,-6.7992,-6.912,-6.9158,-6.9158,-6.9464,-7.0266,-6.8814,-6.8616,-7.0432,-6.9016,-6.8816,-7.0593,-6.9864,-6.9787,-7.0631,-6.9826,-6.9366,-6.9327,-6.8433,-6.808,-6.829,-6.9011,-6.9491,-6.9744,-7.0514,-7.0898,-7.0898,-7.0898,-7.1017,-7.1236,-7.1413,-7.2079,-7.3075,-7.407,-7.4993,-7.5852,-7.675,-7.7062,-7.7062,-7.7101,-7.7101,-7.7101,-7.7101,-7.7101,-7.7101,-7.7101,-7.7101,-7.7101,-7.7101,-7.7101,-7.7101,-7.7101,-7.7101,-7.7101,-7.7101,-7.7101,-7.7101,-7.7101,-7.7101,-7.7101,-7.7101,-7.7101,-7.7101,-7.7101,-7.7101,-7.7101,-7.7101,-7.7101,-7.7101,-7.7101,-7.7101,-7.7101,-7.7101,-7.7112,-7.7083,-7.7083,-7.7029,-7.7005,-7.7005,-7.6878,-7.6804,-7.6793,-7.6653,-7.6609,-7.6591,-7.6471,-7.6397,-7.6397,-7.6397,-7.6397,-7.6397,-7.6397,-7.6397,-6.1127,-6.164,-6.2112,-6.3062,-6.3474,-6.3691,-6.378,-6.3823,-6.391,-6.3958,-6.4042,-6.4312,-6.4916,-6.5417,-6.5839,-6.6104,-6.6936,-6.7642,-6.8015,-6.8717,-6.9387,-6.9922,-6.9999,-7.0113,-7.0381,-6.889,-6.8585,-7.0337,-6.9419,-6.9068,-6.9674,-6.9444,-6.8908,-6.8067,-6.8296,-6.8143,-6.7607,-6.7845,-6.8258,-6.8991,-6.9864,-7.0316,-7.0374,-7.0643,-7.0758,-7.0758,-7.0815,-7.1029,-7.1319,-7.1991,-7.2653,-7.336,-7.4792,-7.554,-7.5891,-7.6789,-7.7101,-7.7101,-7.7101,-7.7101,-7.7101,-7.7101,-7.7101,-7.7101,-7.7101,-7.7101,-7.7101,-7.7101,-7.7101,-7.7101,-7.7101,-7.7101,-7.7101,-7.7101,-7.7101,-7.7101,-7.7101,-7.7101,-7.7101,-7.7101,-7.7101,-7.7101,-7.7101,-7.7101,-7.7101,-7.7101,-7.7101,-7.7101,-7.7101,-7.7112,-7.7117,-7.7117,-7.7087,-7.7094,-7.7094,-7.7108,-7.7148,-7.7148,-7.71,-7.7034,-7.695,-7.6804,-7.6684,-7.6609,-7.6493,-7.6397,-7.6397,-7.6397,-7.6397,-7.6397,-7.6397,-7.6397,-6.0974,-6.1358,-6.1751,-6.3014,-6.3289,-6.3382,-6.3647,-6.3736,-6.3823,-6.3867,-6.422,-6.472,-6.5282,-6.6053,-6.6666,-6.6892,-6.7695,-6.841,-6.8747,-6.9226,-6.9742,-7.0342,-7.0419,-7.0419,-7.0419,-6.9425,-6.9234,-7.0342,-6.9922,-6.9502,-6.9234,-6.9196,-6.8547,-6.7171,-6.7935,-6.8126,-6.7591,-6.8394,-6.9113,-6.9781,-7.0409,-7.0708,-7.0708,-7.0708,-7.0708,-7.0737,-7.0832,-7.124,-7.1819,-7.2501,-7.3336,-7.429,-7.5384,-7.5969,-7.632,-7.6906,-7.7101,-7.7101,-7.7101,-7.7101,-7.7101,-7.7101,-7.7101,-7.7101,-7.7101,-7.7101,-7.7101,-7.7101,-7.7101,-7.7101,-7.7101,-7.7101,-7.7101,-7.7101,-7.7101,-7.7101,-7.7101,-7.7101,-7.7101,-7.7101,-7.7101,-7.7101,-7.7101,-7.7101,-7.7101,-7.7101,-7.7101,-7.7101,-7.7101,-7.7112,-7.7083,-7.7083,-7.7133,-7.7142,-7.7142,-7.7184,-7.7186,-7.7186,-7.7187,-7.7147,-7.7091,-7.695,-7.6804,-7.6669,-7.6555,-7.645,-7.6397,-7.6397,-7.6397,-7.6397,-7.6397,-7.6397,-6.0406,-6.0711,-6.0974,-6.2303,-6.2695,-6.288,-6.3428,-6.3691,-6.378,-6.378,-6.4625,-6.5394,-6.5432,-6.6828,-6.7739,-6.7025,-6.8399,-6.9317,-6.8717,-6.9507,-7.0179,-7.0386,-7.0419,-7.0419,-7.0419,-7.0419,-7.0381,-7.0342,-7.0342,-6.9999,-6.9196,-6.9082,-6.8699,-6.7859,-6.8661,-6.9158,-6.9196,-6.9999,-7.0451,-7.0585,-7.0647,-7.0669,-7.0669,-7.0669,-7.0669,-7.0729,-7.0979,-7.1665,-7.2651,-7.2926,-7.4147,-7.5813,-7.5852,-7.636,-7.7101,-7.7101,-7.7101,-7.7101,-7.7101,-7.7101,-7.7101,-7.7101,-7.7101,-7.7101,-7.7101,-7.7101,-7.7101,-7.7101,-7.7101,-7.7101,-7.7101,-7.7101,-7.7101,-7.7101,-7.7101,-7.7101,-7.7101,-7.7101,-7.7101,-7.7101,-7.7101,-7.7101,-7.7101,-7.7101,-7.7101,-7.7101,-7.7101,-7.7101,-7.7101,-7.7117,-7.7083,-7.7083,-7.7178,-7.7184,-7.7184,-7.7187,-7.7187,-7.7187,-7.7187,-7.7187,-7.7187,-7.7052,-7.695,-7.6804,-7.6653,-7.6555,-7.6397,-7.6397,-7.6397,-7.6397,-7.6397,-7.6397,-6.0156,-6.0529,-6.0891,-6.1715,-6.2303,-6.2745,-6.288,-6.3299,-6.3647,-6.3647,-6.4494,-6.5416,-6.6014,-6.716,-6.8114,-6.8527,-6.9114,-6.9506,-6.9474,-6.9849,-7.0179,-7.0386,-7.0419,-7.0419,-7.0419,-7.0419,-7.0151,-6.954,-6.9502,-6.912,-6.8279,-6.7668,-6.7247,-6.7018,-6.7782,-6.8547,-6.9196,-6.9999,-7.0419,-7.0451,-7.0483,-7.0483,-7.0483,-7.0483,-7.0563,-7.0771,-7.0965,-7.1706,-7.2899,-7.3664,-7.4693,-7.5852,-7.6516,-7.6906,-7.7101,-7.7101,-7.7101,-7.7101,-7.7101,-7.7101,-7.7101,-7.7101,-7.7101,-7.7101,-7.7101,-7.7101,-7.7101,-7.7101,-7.7101,-7.7101,-7.7101,-7.7101,-7.7101,-7.7101,-7.7101,-7.7101,-7.7101,-7.7101,-7.7101,-7.7101,-7.7101,-7.7101,-7.7101,-7.7101,-7.7101,-7.7101,-7.7101,-7.7107,-7.7117,-7.7087,-7.7137,-7.7181,-7.7186,-7.7187,-7.7187,-7.7187,-7.7187,-7.7187,-7.7187,-7.7187,-7.7187,-7.7052,-7.695,-7.6804,-7.6653,-7.6555,-7.6397,-7.6397,-7.6397,-7.6397,-7.6397,-7.6397,-5.9779,-6.01,-6.0441,-6.1472,-6.2023,-6.2493,-6.2977,-6.3382,-6.3713,-6.4048,-6.4972,-6.597,-6.6792,-6.7791,-6.8677,-6.9128,-6.9289,-6.946,-6.9778,-6.9624,-6.9655,-7.031,-7.0113,-6.9999,-7.0381,-7.0419,-7.0228,-6.9769,-6.9387,-6.8814,-6.7935,-6.7477,-6.7247,-6.7247,-6.805,-6.8852,-6.9731,-7.019,-7.0419,-7.0419,-7.0419,-7.0419,-7.0419,-7.0419,-7.0754,-7.1377,-7.1549,-7.2559,-7.408,-7.4714,-7.5506,-7.6438,-7.6906,-7.7101,-7.7101,-7.7101,-7.7101,-7.7101,-7.7101,-7.7101,-7.7101,-7.7101,-7.7101,-7.7101,-7.7101,-7.7101,-7.7101,-7.7101,-7.7101,-7.7101,-7.7101,-7.7101,-7.7101,-7.7101,-7.7101,-7.7101,-7.7101,-7.7101,-7.7101,-7.7101,-7.7101,-7.7101,-7.7101,-7.7101,-7.7101,-7.7101,-7.7101,-7.7107,-7.7087,-7.7094,-7.7139,-7.7184,-7.7187,-7.7187,-7.7187,-7.7187,-7.7187,-7.7187,-7.7187,-7.7187,-7.7187,-7.7142,-7.7034,-7.6878,-7.6755,-7.6643,-7.6475,-7.6405,-7.6397,-7.6397,-7.6397,-7.6397,-5.9453,-5.9621,-5.9943,-6.1358,-6.1842,-6.2166,-6.3242,-6.3557,-6.3825,-6.4642,-6.5642,-6.6642,-6.7464,-6.8466,-6.9203,-6.9203,-6.9203,-6.9374,-6.9739,-6.9096,-6.9053,-7.0271,-6.9693,-6.9502,-7.0342,-7.0419,-7.0381,-7.0266,-6.9578,-6.8852,-6.8088,-6.7935,-6.7935,-6.805,-6.889,-6.9693,-7.0381,-7.0419,-7.0419,-7.0419,-7.0419,-7.0419,-7.0419,-7.0566,-7.1159,-7.2161,-7.2538,-7.379,-7.5534,-7.5694,-7.6314,-7.7095,-7.7101,-7.7101,-7.7101,-7.7101,-7.7101,-7.7101,-7.7101,-7.7101,-7.7101,-7.7101,-7.7101,-7.7101,-7.7101,-7.7101,-7.7101,-7.7101,-7.7101,-7.7101,-7.7101,-7.7101,-7.7101,-7.7101,-7.7101,-7.7101,-7.7101,-7.7101,-7.7101,-7.7101,-7.7101,-7.7101,-7.7101,-7.7101,-7.7101,-7.7101,-7.7101,-7.7112,-7.7097,-7.7097,-7.7139,-7.7184,-7.7187,-7.7187,-7.7187,-7.7187,-7.7187,-7.7187,-7.7187,-7.7187,-7.7187,-7.7187,-7.7144,-7.6984,-7.6858,-7.6741,-7.6609,-7.6471,-7.6397,-7.6397,-7.6397,-7.6397,-5.9319,-5.9453,-5.9849,-6.0651,-6.1415,-6.2059,-6.2695,-6.3252,-6.3825,-6.4642,-6.5642,-6.6642,-6.7464,-6.8466,-6.9203,-6.9203,-6.9203,-6.9374,-6.9739,-6.9096,-6.9053,-7.0271,-6.9693,-6.9502,-7.0342,-7.0419,-7.0113,-6.9464,-6.9273,-6.912,-6.8967,-6.8279,-6.8241,-6.8929,-6.9769,-7.0266,-7.0419,-7.0419,-7.0419,-7.0419,-7.0419,-7.0419,-7.0419,-7.1291,-7.1953,-7.2391,-7.3316,0.0,-7.5596,-7.5668,-7.6232,-7.702,-7.7089,-7.7101,-7.7101,-7.7101,-7.7101,-7.7101,-7.7101,-7.7101,-7.7101,-7.7101,-7.7101,-7.7101,-7.7101,-7.7101,-7.7101,-7.7101,-7.7101,-7.7101,-7.7101,-7.7101,-7.7101,-7.7101,-7.7101,-7.7101,-7.7101,-7.7101,-7.7101,-7.7101,-7.7101,-7.7101,-7.7101,-7.7101,-7.7101,-7.7101,-7.7101,-7.7112,-7.7097,-7.7097,-7.7142,-7.7187,-7.7187,-7.7187,-7.7187,-7.7187,-7.7187,-7.7187,-7.7187,-7.7187,-7.7187,-7.7187,-7.7144,-7.6984,-7.6858,-7.6741,-7.6609,-7.6471,-7.6397,-7.6397,-7.6397,-7.6397,-5.9386,-5.9748,-6.029,-6.1127,-6.1806,-6.2442,-6.3062,-6.3715,-6.4456,-6.5365,-6.6321,-6.7277,-6.8189,-6.8809,-6.9203,-6.9203,-6.9203,-6.9374,-6.9739,-6.9096,-6.9053,-7.0271,-6.9693,-6.9502,-7.0342,-7.0419,-7.0228,-6.9846,-6.9807,-6.9655,-6.9234,-6.9196,-6.9387,-6.9807,-7.019,-7.0419,-7.0419,-7.0419,-7.0419,-7.0419,-7.0877,-7.1068,-7.1107,-7.2195,-7.3047,-7.3751,-7.4383,-7.5277,-7.6259,-7.6361,-7.6613,-7.7012,-7.7089,-7.7101,-7.7101,-7.7101,-7.7101,-7.7101,-7.7101,-7.7101,-7.7101,-7.7101,-7.7101,-7.7101,-7.7101,-7.7101,-7.7101,-7.7101,-7.7101,-7.7101,-7.7101,-7.7101,-7.7101,-7.7101,-7.7101,-7.7101,-7.7101,-7.7101,-7.7101,-7.7101,-7.7101,-7.7101,-7.7101,-7.7101,-7.7101,-7.7101,-7.7101,-7.7107,-7.7091,-7.7094,-7.7142,-7.7187,-7.7187,-7.7187,-7.7187,-7.7187,-7.7187,-7.7187,-7.7187,-7.7187,-7.7187,-7.7187,-7.7187,-7.7097,-7.6886,-7.6768,-7.6699,-7.6496,-7.6397,-7.6397,-7.6397,-7.6397,-5.952,-6.0036,-6.0772,-6.1676,-6.2287,-6.288,-6.3428,-6.4233,-6.5051,-6.6007,-6.6963,-6.7875,-6.8788,-6.9072,-6.9203,-6.9203,-6.9203,-6.9332,-6.97,-6.8906,-6.8789,-7.0167,-6.9508,-6.9311,-7.0304,-7.0419,-7.0419,-7.0419,-7.0419,-7.0113,-6.9502,-7.0075,-7.0419,-7.0419,-7.0419,-7.0495,-7.0686,-7.0686,-7.0763,-7.0992,-7.1642,-7.198,-7.2084,-7.3138,-7.414,-7.4973,-7.5411,-7.6093,-7.687,-7.6965,-7.6995,-7.7012,-7.7089,-7.7101,-7.7101,-7.7101,-7.7101,-7.7101,-7.7101,-7.7101,-7.7101,-7.7101,-7.7101,-7.7101,-7.7101,-7.7101,-7.7101,-7.7101,-7.7101,-7.7101,-7.7101,-7.7101,-7.7101,-7.7101,-7.7101,-7.7101,-7.7101,-7.7101,-7.7101,-7.7101,-7.7101,-7.7101,-7.7101,-7.7101,-7.7101,-7.7101,-7.7101,-7.7107,-7.7083,-7.7091,-7.7139,-7.7187,-7.7187,-7.7187,-7.7187,-7.7187,-7.7187,-7.7187,-7.7187,-7.7187,-7.7187,-7.7187,-7.7187,-7.7187,-7.695,-7.6804,-7.6804,-7.6555,-7.6397,-7.6397,-7.6397,-7.6397,-5.9554,-6.01,-6.0891,-6.1732,-6.2287,-6.288,-6.3428,-6.4233,-6.5051,-6.5905,-6.6872,-6.7875,-6.8734,-6.9065,-6.9203,-6.9203,-6.9203,-6.9289,-6.9501,-6.8338,-6.8108,-6.9918,-6.8869,-6.8661,-7.0266,-7.0419,-7.0419,-7.0419,-7.0419,-7.0381,-7.0304,-7.0381,-7.0419,-7.0419,-7.0419,-7.0801,-7.1565,-7.1565,-7.1985,-7.275,-7.2826,-7.2958,-7.3206,-7.4279,-7.491,-7.5232,-7.6148,-7.666,0.0,-7.6858,-7.6965,-7.7012,-7.7089,-7.7101,-7.7101,-7.7101,-7.7101,-7.7101,-7.7101,-7.7101,-7.7101,-7.7101,-7.7101,-7.7101,-7.7101,-7.7101,-7.7101,-7.7101,-7.7101,-7.7101,-7.7101,-7.7101,-7.7101,-7.7101,-7.7101,-7.7101,-7.7101,-7.7101,-7.7101,-7.7101,-7.7101,-7.7101,-7.7101,-7.7101,-7.7101,-7.7101,-7.7101,-7.7107,-7.7083,-7.7083,-7.713,-7.7184,-7.7187,-7.7187,-7.7187,-7.7187,-7.7187,-7.7187,-7.7187,-7.7187,-7.7187,-7.7187,-7.7187,-7.7187,-7.695,-7.6804,-7.6804,-7.6555,-7.6397,-7.6397,-7.6397,-7.6397,-5.952,-6.0036,-6.0772,-6.1676,-6.2287,-6.299,-6.4058,-6.4976,-6.5877,-6.6797,-6.7709,-6.8556,-6.899,-6.9153,-6.9203,-6.9203,-6.9203,-6.9332,-6.9661,-6.9171,-6.9169,-7.0171,-6.9775,-6.9655,-7.0342,-7.0419,-7.0419,-7.0419,-7.0419,-7.0648,-7.1145,-7.0686,-7.0648,-7.1183,-7.1183,-7.1603,-7.2482,-7.2482,-7.2673,-7.3017,-7.3603,-7.3921,-7.4081,-7.5285,-7.584,-7.5968,-7.6458,-7.6738,0.0,-7.6858,-7.6955,-7.7012,-7.7089,-7.7101,-7.7101,-7.7101,-7.7101,-7.7101,-7.7101,-7.7101,-7.7101,-7.7101,-7.7101,-7.7101,-7.7101,-7.7101,-7.7101,-7.7101,-7.7101,-7.7101,-7.7101,-7.7101,-7.7101,-7.7101,-7.7101,-7.7101,-7.7101,-7.7101,-7.7101,-7.7101,-7.7101,-7.7101,-7.7101,-7.7101,-7.7101,-7.7101,-7.7101,-7.7101,-7.7107,-7.7117,-7.713,-7.7139,-7.7184,-7.7187,-7.7187,-7.7187,-7.7187,-7.7187,-7.7187,-7.7187,-7.7187,-7.7187,-7.7187,-7.7187,-7.695,-7.6804,-7.6804,-7.6555,-7.6397,-7.6397,-7.6397,-7.6397,-5.9586,-6.01,-6.0772,-6.1676,-6.247,-6.3395,-6.454,-6.5682,-6.6658,-6.7448,-6.8278,-6.8929,-6.9116,-6.916,-6.9203,-6.9203,-6.9203,-6.9332,-6.9661,-6.955,-6.9662,-7.0209,-7.0157,-7.0151,-7.0381,-7.0419,-7.0533,-7.0763,-7.0801,-7.1145,-7.2024,-7.1489,-7.145,-7.2062,-7.2062,-7.2482,-7.3361,-7.3361,-7.3476,-7.3743,-7.4478,-7.4866,-7.5014,-7.589,-7.6389,-7.6496,-7.6669,-7.677,0.0,-7.6882,-7.6985,-7.7028,-7.7095,-7.7101,-7.7101,-7.7101,-7.7101,-7.7101,-7.7101,-7.7101,-7.7101,-7.7101,-7.7101,-7.7101,-7.7101,-7.7101,-7.7101,-7.7101,-7.7101,-7.7101,-7.7101,-7.7101,-7.7101,-7.7101,-7.7101,-7.7101,-7.7101,-7.7101,-7.7101,-7.7101,-7.7101,-7.7101,-7.7101,-7.7101,-7.7101,-7.7101,-7.7101,-7.7101,-7.7101,-7.7112,-7.7083,-7.7094,-7.7139,-7.7184,-7.7187,-7.7187,-7.7187,-7.7187,-7.7187,-7.7187,-7.7187,-7.7187,-7.7187,-7.7187,-7.6972,-7.6838,-7.6804,-7.6573,-7.6427,-7.6397,-7.6397,-7.6397,-5.9748,-6.0254,-6.0891,-6.1732,-6.2907,-6.4131,-6.4651,-6.6091,-6.7364,-6.7459,-6.8232,-6.8929,-6.8983,-6.9116,-6.9203,-6.9203,-6.9203,-6.9289,-6.946,-6.9019,-6.898,-6.9959,-6.9594,-6.954,-7.0342,-7.0419,-7.0763,-7.1603,-7.168,-7.2062,-7.2941,-7.2979,-7.2979,-7.2979,-7.2979,-7.3361,-7.4201,-7.4201,-7.4622,-7.5462,-7.5462,-7.5724,-7.6083,-7.6121,-7.6343,-7.6687,-7.6786,-7.6858,0.0,-7.6985,-7.7028,-7.7101,-7.7101,-7.7101,-7.7101,-7.7101,-7.7101,-7.7101,-7.7101,-7.7101,-7.7101,-7.7101,-7.7101,-7.7101,-7.7101,-7.7101,-7.7101,-7.7101,-7.7101,-7.7101,-7.7101,-7.7101,-7.7101,-7.7101,-7.7101,-7.7101,-7.7101,-7.7101,-7.7101,-7.7101,-7.7101,-7.7101,-7.7101,-7.7101,-7.7101,-7.7101,-7.7101,-7.7101,-7.7101,-7.7101,-7.7107,-7.7083,-7.7094,-7.7142,-7.7187,-7.7187,-7.7187,-7.7187,-7.7187,-7.7187,-7.7187,-7.7187,-7.7187,-7.7187,-7.7087,-7.695,-7.6804,-7.6653,-7.6536,-7.6397,-7.6397,-7.6397,-5.9748,-6.0254,-6.1034,-6.2382,-6.3398,-6.4425,-6.6145,-6.6945,-6.7513,-6.8306,-6.8688,-6.8929,-6.9116,-6.916,-6.9203,-6.9203,-6.9203,-6.9332,-6.9661,-6.955,-6.9624,-7.0209,-7.0157,-7.0113,-7.0381,-7.0954,-7.1472,-7.1858,-7.2314,-7.3041,-7.3967,-7.3882,-7.3819,-7.3819,-7.3819,-7.424,-7.508,-7.508,-7.5298,-7.5724,-7.584,-7.6068,-7.632,-7.6454,-7.6594,-7.6687,-7.6721,-7.6786,-7.6858,-7.6882,-7.6985,-7.7028,-7.7095,-7.7101,-7.7101,-7.7101,-7.7101,-7.7101,-7.7101,-7.7101,-7.7101,-7.7101,-7.7101,-7.7101,-7.7101,-7.7101,-7.7101,-7.7101,-7.7101,-7.7101,-7.7101,-7.7101,-7.7101,-7.7101,-7.7101,-7.7101,-7.7101,-7.7101,-7.7101,-7.7101,-7.7101,-7.7101,-7.7101,-7.7101,-7.7101,-7.7101,-7.7101,-7.7101,-7.7101,-7.7101,-7.7107,-7.7083,-7.7087,-7.7137,-7.7186,-7.7187,-7.7187,-7.7187,-7.7187,-7.7187,-7.7187,-7.7187,-7.7187,-7.7187,-7.6972,-7.6838,-7.6804,-7.6573,-7.6427,-7.6397,-7.6397,-7.6397,-5.9879,-6.0317,-6.1069,-6.2707,-6.3799,-6.494,-6.6887,-6.754,-6.7959,-6.8763,-6.8921,-6.8929,-6.916,-6.9203,-6.9203,-6.9203,-6.9203,-6.9332,-6.9661,-6.9778,-6.9963,-7.0477,-7.0508,-7.0685,-7.1083,-7.1559,-7.2134,-7.2899,-7.3353,-7.3974,-7.4935,-7.4855,-7.4861,-7.4919,-7.4823,-7.5091,-7.5724,-7.5724,-7.5818,-7.5928,-7.6041,-7.6224,-7.6411,-7.6516,-7.6632,-7.6687,-7.6721,-7.677,0.0,-7.6882,-7.6975,-7.7012,-7.7089,-7.7101,-7.7101,-7.7101,-7.7101,-7.7101,-7.7101,-7.7101,-7.7101,-7.7101,-7.7101,-7.7101,-7.7101,-7.7101,-7.7101,-7.7101,-7.7101,-7.7101,-7.7101,-7.7101,-7.7101,-7.7101,-7.7101,-7.7101,-7.7101,-7.7101,-7.7101,-7.7101,-7.7101,-7.7101,-7.7101,-7.7101,-7.7101,-7.7101,-7.7101,-7.7101,-7.7101,-7.7101,-7.7107,-7.7112,-7.7078,-7.7126,-7.7178,-7.7184,-7.7187,-7.7187,-7.7187,-7.7187,-7.7187,-7.7187,-7.7187,-7.7187,-7.6978,-7.6848,-7.6804,-7.6555,-7.6397,-7.6397,-7.6397,-7.6397,0.0,-6.0547,-6.12,-6.2779,-6.4274,-6.569,-6.7072,-6.7986,0.0,-6.8875,-6.8921,-6.8929,-6.916,-6.9203,-6.9203,-6.9203,-6.9203,-6.9289,-6.9501,-6.9701,-7.0071,-7.0613,-7.0777,-7.1206,-7.2225,-7.2261,-7.288,-7.4418,-7.458,-7.4965,-7.5802,-7.581,-7.5928,-7.6083,-7.5957,-7.5928,-7.6121,-7.6121,-7.6121,-7.6147,-7.6147,-7.6248,-7.6433,-7.6433,-7.6516,0.0,-7.677,-7.6816,-7.683,-7.6955,-7.7004,-7.7012,-7.7089,-7.7101,-7.7101,-7.7101,-7.7101,-7.7101,-7.7101,-7.7101,-7.7101,-7.7101,-7.7101,-7.7101,-7.7101,-7.7101,-7.7101,-7.7101,-7.7101,-7.7101,-7.7101,-7.7101,-7.7101,-7.7101,-7.7101,-7.7101,-7.7101,-7.7101,-7.7101,-7.7101,-7.7101,-7.7101,-7.7101,-7.7101,-7.7101,-7.7101,-7.7101,-7.7101,-7.7101,-7.7101,-7.7101,-7.7101,-7.7112,-7.7083,-7.7083,-7.7178,-7.7186,-7.7187,-7.7187,-7.7187,-7.7187,-7.7187,-7.7187,-7.7187,-7.7048,-7.6934,-7.678,-7.6536,-7.6397,-7.6397,-7.6397,-7.6397,-6.0844,0.0,-6.2779,-6.378,-6.5433,-6.7061,0.0,-6.8357,-6.8554,-6.8875,-6.8921,-6.8929,-6.916,-6.9203,-6.9203,-6.9203,-6.9203,-6.9332,-6.97,-7.0171,-7.0524,-7.0681,-7.1414,-7.202,-7.2263,-7.3472,-7.4424,-7.4997,-7.5453,-7.589,-7.6234,-7.6083,-7.6109,-7.6343,-7.6258,-7.6224,-7.6121,-7.6121,-7.6199,-7.6343,-7.6343,-7.6433,-7.6632,-7.6632,-7.6651,-7.6687,-7.6704,-7.6754,-7.683,-7.687,-7.6965,-7.7012,-7.7089,-7.7101,-7.7101,-7.7101,-7.7101,-7.7101,-7.7101,-7.7101,-7.7101,-7.7101,-7.7101,-7.7101,-7.7101,-7.7101,-7.7101,-7.7101,-7.7101,-7.7101,-7.7101,-7.7101,-7.7101,-7.7101,-7.7101,-7.7101,-7.7101,-7.7101,-7.7101,-7.7101,-7.7101,-7.7101,-7.7101,-7.7101,-7.7101,-7.7101,-7.7101,-7.7101,-7.7101,-7.7101,-7.7101,-7.7101,-7.7107,-7.7112,-7.7083,-7.7178,-7.7184,-7.7186,-7.7187,-7.7187,-7.7187,-7.7187,-7.7187,-7.7187,-7.6965,-7.6728,-7.6496,-7.6427,-7.6397,-7.6397,-7.6397,-7.6397,-6.1195,-6.2199,-6.3401,-6.4561,-6.6124,-6.7503,-6.832,-6.8506,-6.8554,-6.8875,-6.8921,-6.8929,-6.916,-6.9203,-6.9203,-6.9203,-6.9203,-6.9374,-6.9739,-7.0233,-7.0633,-7.081,-7.1786,-7.2623,-7.3136,-7.4309,-7.5237,-7.5714,-7.6049,-7.6297,-7.6411,-7.632,-7.6343,-7.6516,-7.6516,-7.6475,-7.6389,-7.6389,-7.6433,-7.6516,-7.6516,-7.6614,-7.6687,-7.6687,-7.6687,-7.6687,-7.6687,-7.6738,-7.683,-7.6858,-7.6955,-7.7012,-7.7089,-7.7101,-7.7101,-7.7101,-7.7101,-7.7101,-7.7101,-7.7101,-7.7101,-7.7101,-7.7101,-7.7101,-7.7101,-7.7101,-7.7101,-7.7101,-7.7101,-7.7101,-7.7101,-7.7101,-7.7101,-7.7101,-7.7101,-7.7101,-7.7101,-7.7101,-7.7101,-7.7101,-7.7101,-7.7101,-7.7101,-7.7101,-7.7101,-7.7101,-7.7101,-7.7101,-7.7101,-7.7101,-7.7101,-7.7101,-7.7101,-7.7107,-7.7112,-7.7133,-7.7183,-7.7184,-7.7187,-7.7187,-7.7187,-7.7187,-7.7144,-7.7029,-7.6868,-7.6653,-7.6397,-7.6397,-7.6397,-7.6397,-7.6397,-7.6397,-6.1441,-6.2449,-6.38,-6.512,-6.6476,-6.7688,-6.8357,-6.8506,-6.8554,-6.8875,-6.8921,-6.8929,-6.916,-6.9203,-6.9203,-6.9203,-6.9246,-6.9378,-6.9778,-7.0195,-7.0689,-7.1158,-7.2181,-7.3258,-7.43,-7.5023,-7.5718,-7.6415,-7.6454,-7.6454,-7.6454,-7.6454,-7.6516,-7.6687,-7.6687,-7.6687,-7.6687,-7.6687,-7.6687,-7.6687,-7.6687,-7.6687,-7.6687,-7.6687,-7.6687,-7.6687,0.0,0.0,-7.6844,-7.6885,-7.6955,-7.702,-7.7082,-7.7095,-7.7101,-7.7101,-7.7101,-7.7101,-7.7101,-7.7101,-7.7101,-7.7101,-7.7101,-7.7101,-7.7101,-7.7101,-7.7101,-7.7101,-7.7101,-7.7101,-7.7101,-7.7101,-7.7101,-7.7101,-7.7101,-7.7101,-7.7101,-7.7101,-7.714,-7.7257,-7.7296,-7.7335,-7.7453,-7.7492,-7.7492,-7.7492,-7.7492,-7.7492,-7.7492,-7.7375,-7.7296,-7.7296,-7.7179,-7.7101,-7.7101,-7.7087,-7.7139,-7.7183,-7.7187,-7.7187,-7.7187,-7.7187,-7.7052,-7.6804,-7.6804,-7.6653,-7.6397,-7.6397,-7.6397,-7.6397,-7.6397,-7.6397,-6.2038,-6.3663,-6.5156,-6.541,-6.6916,-6.8357,-6.8468,-6.8506,-6.8554,-6.8875,-6.8921,-6.8929,-6.916,-6.9203,-6.9203,-6.9203,-6.946,-6.9739,-6.9816,-7.0455,-7.121,-7.1993,-7.3178,-7.43,-7.5211,-7.6009,-7.6534,-7.6651,-7.6651,-7.6651,-7.6651,-7.6651,-7.6651,-7.6687,-7.6687,-7.6687,-7.6687,-7.6687,-7.6687,-7.6687,-7.6687,-7.6687,-7.6687,-7.6687,-7.6687,-7.6687,0.0,-7.677,-7.6858,-7.6819,-7.6905,-7.7089,-7.7028,-7.7036,-7.7101,-7.7101,-7.7101,-7.7101,-7.7101,-7.7101,-7.7101,-7.7101,-7.7101,-7.7101,-7.7101,-7.7101,-7.7101,-7.7101,-7.7101,-7.7101,-7.7101,-7.7101,-7.7101,-7.7101,-7.7101,-7.7101,-7.7101,-7.7101,-7.7335,-7.8077,-7.8194,-7.8429,-7.917,-7.9287,-7.9287,-7.9287,-7.9287,-7.9287,-7.9287,-7.8663,-7.8194,-7.8194,-7.7531,-7.7101,-7.7101,-7.7117,-7.7091,-7.71,-7.7186,-7.7187,-7.7187,-7.7187,-7.7052,-7.6804,-7.6804,-7.6653,-7.6397,-7.6397,-7.6397,-7.6397,-7.6397,-7.6397,-6.2283,-6.4198,-6.6062,-6.6062,-6.7283,-6.8506,-6.8506,-6.8506,-6.8554,-6.8744,-6.8875,-6.8929,-6.9072,-6.916,-6.9203,-6.9203,-6.9419,-6.97,-6.9778,-7.0298,-7.1091,-7.2161,-7.333,-7.4421,-7.5405,-7.6221,-7.6687,-7.6687,-7.6687,-7.6687,-7.6687,-7.6687,-7.6687,-7.6687,-7.6687,-7.6687,-7.6687,-7.6687,-7.6687,-7.6687,-7.6687,-7.6687,-7.6687,-7.6687,-7.6687,-7.6687,0.0,-7.6801,-7.6871,-7.6833,-7.6944,-7.7036,-7.7012,-7.7028,-7.7101,-7.7101,-7.7101,-7.7101,-7.7101,-7.7101,-7.7101,-7.7101,-7.7101,-7.7101,-7.7101,-7.7101,-7.7101,-7.7101,-7.7101,-7.7101,-7.7101,-7.7101,-7.7101,-7.7101,-7.7101,-7.7218,-7.7687,-7.7804,-7.8077,-7.8936,-7.9092,-7.9248,-7.9639,-7.9717,-7.9717,-7.9717,-7.9717,-7.9717,-7.9717,-7.9366,-7.8936,-7.8468,-7.8038,-7.7609,-7.714,-7.7117,-7.713,-7.7142,-7.7187,-7.7187,-7.7187,-7.7142,-7.6984,-7.6804,-7.6728,-7.6609,-7.6397,-7.6397,-7.6397,-7.6397,-7.6397,-7.6397,-6.2389,-6.4448,-6.6605,-6.6605,-6.754,-6.8506,-6.8506,-6.8506,-6.8506,-6.865,-6.8828,-6.8929,-6.8983,-6.9116,-6.9203,-6.9203,-6.9336,-6.9582,-6.9778,-7.0171,-7.0929,-7.2431,-7.3358,-7.4382,-7.5659,-7.6337,-7.6687,-7.6687,-7.6687,-7.6687,-7.6687,-7.6687,-7.6687,-7.6687,-7.6687,-7.6687,-7.6687,-7.6687,-7.6687,-7.6687,-7.6687,-7.6687,-7.6687,-7.6687,-7.6687,-7.6687,-7.6754,-7.6801,-7.6777,-7.6858,-7.6894,-7.7004,-7.6995,-7.702,-7.7101,-7.7101,-7.7101,-7.7101,-7.7101,-7.7101,-7.7101,-7.7101,-7.7101,-7.7101,-7.7101,-7.7101,-7.7101,-7.7101,-7.7101,-7.7101,-7.7101,-7.7101,-7.7101,-7.7101,-7.7257,-7.7609,-7.8272,-7.8546,-7.8975,-7.9834,-7.999,-8.0068,-8.0263,-8.0302,-8.0302,-8.0302,-8.0302,-8.0302,-8.0302,-8.0146,-7.9756,-7.9092,-7.8819,-7.835,-7.7492,-7.7234,-7.713,-7.7183,-7.7187,-7.7187,-7.7187,-7.7097,-7.6965,-7.6804,-7.6699,-7.6555,-7.6397,-7.6397,-7.6397,-7.6397,-7.6397,-7.6397,-6.2389,-6.4448,-6.6605,-6.6605,-6.754,-6.8506,-6.8506,-6.8506,-6.8506,-6.865,-6.8828,-6.8929,-6.8983,-6.9116,-6.9203,-6.9203,-6.9336,-6.9582,-6.9778,-7.0171,-7.1159,-7.3241,-7.3767,-7.4614,-7.6436,-7.6687,-7.6687,-7.6687,-7.6687,-7.6687,-7.6687,-7.6687,-7.6687,-7.6687,-7.6687,-7.6687,-7.6687,-7.6687,-7.6687,-7.6687,-7.6687,-7.6687,-7.6687,-7.6687,-7.6687,-7.6687,-7.6726,-7.6738,-7.6816,-7.6738,-7.6844,-7.7004,-7.6905,-7.6995,-7.7101,-7.7101,-7.7101,-7.7101,-7.7101,-7.7101,-7.7101,-7.7101,-7.7101,-7.7101,-7.7101,-7.7101,-7.7101,-7.7101,-7.7101,-7.7101,-7.7101,-7.7101,-7.7101,-7.7101,-7.7726,-7.8311,-7.839,-7.9053,-7.9873,-8.0732,-8.0927,-8.1161,-8.1981,-8.2098,-8.2098,-8.2098,-8.2098,-8.2098,-8.2098,-8.1396,-8.0888,-8.081,-8.0107,-7.9248,-7.839,-7.7586,-7.7087,-7.7097,-7.7186,-7.7187,-7.7187,-7.7187,-7.7048,-7.6804,-7.6793,-7.6653,-7.6397,-7.6397,-7.6397,-7.6397,-7.6397,-7.6397,-6.2389,-6.4448,-6.6605,-6.6605,-6.754,-6.8506,-6.8506,-6.8506,-6.8506,-6.8554,-6.8744,-6.8929,-6.9072,-6.916,-6.9203,-6.9203,-6.9336,-6.9582,-6.9778,-7.0035,-7.1083,-7.3318,-7.365,-7.4508,-7.6514,-7.6687,-7.6687,-7.6687,-7.6687,-7.6687,-7.6687,-7.6687,-7.6687,-7.6687,-7.6687,-7.6687,-7.6687,-7.6687,-7.6687,-7.6687,-7.6687,-7.6687,-7.6687,-7.6687,-7.6687,-7.6687,-7.6738,-7.6754,-7.6738,-7.6816,-7.6846,-7.6916,-7.7004,-7.7075,-7.7101,-7.7101,-7.7101,-7.7101,-7.7101,-7.7101,-7.7101,-7.7101,-7.7101,-7.7101,-7.7101,-7.7101,-7.7101,-7.7101,-7.7101,-7.7101,-7.7101,-7.7101,-7.7101,-7.7101,-7.7765,-7.8546,-7.9092,-7.9873,-8.0771,-8.163,-8.1825,-8.1903,-8.2254,-8.2293,-8.2293,-8.2293,-8.2293,-8.2293,-8.2293,-8.202,-8.1591,-8.1044,-7.9756,-7.8741,-7.8429,-7.7586,-7.7087,-7.7091,-7.7144,-7.7187,-7.7187,-7.7039,-7.6886,-7.6804,-7.666,-7.6496,-7.6397,-7.6397,-7.6397,-7.6397,-7.6397,-7.6397,-6.2617,-6.4634,-6.6664,-6.6837,-6.7736,-6.8506,-6.8506,-6.8506,-6.8506,-6.8506,-6.8697,-6.8929,-6.9116,-6.916,-6.9203,-6.9203,-6.9332,-6.9501,-6.9778,-6.9928,-7.0887,-7.3292,-7.36,-7.4402,-7.6496,-7.6687,-7.6687,-7.6687,-7.6687,-7.6687,-7.6687,-7.6687,-7.6687,-7.6687,-7.6687,-7.6687,-7.6687,-7.6687,-7.6687,-7.6687,-7.6687,-7.6687,-7.6687,-7.6687,-7.6687,-7.6687,-7.6754,-7.6738,-7.6687,-7.6805,-7.687,-7.6955,-7.7075,-7.7101,-7.7101,-7.7101,-7.7101,-7.7101,-7.7101,-7.7101,-7.7101,-7.7101,-7.7101,-7.7101,-7.7101,-7.7101,-7.7101,-7.7101,-7.7101,-7.7101,-7.7101,-7.7101,-7.7179,-7.7453,-7.8194,-7.9053,-7.9912,-8.081,-8.1591,-8.2176,-8.2293,-8.2293,-8.2293,-8.2293,-8.2293,-8.2293,-8.2293,-8.2293,-8.2293,-8.2293,-8.2059,-8.1474,-8.0107,-7.9092,-7.8819,-7.801,-7.7391,-7.7122,-7.7137,-7.7184,-7.7187,-7.6978,-7.6838,-7.6804,-7.6573,-7.6427,-7.6397,-7.6397,-7.6397,-7.6397,-7.6397,-7.6397,-6.3191,-6.4939,-6.678,-6.7415,-6.807,-6.8506,-6.8506,-6.8506,-6.8506,-6.8506,-6.8697,-6.8929,-6.8983,-6.9116,-6.9203,-6.9203,-6.9203,-6.9374,-6.9739,-6.9816,-7.075,-7.3292,-7.36,-7.4402,-7.6496,-7.6687,-7.6687,-7.6687,-7.6687,-7.6687,-7.6687,-7.6687,-7.6687,-7.6687,-7.6687,-7.6687,-7.6687,-7.6687,-7.6687,-7.6687,-7.6687,-7.6687,-7.6687,-7.6687,-7.6687,-7.6687,-7.6687,-7.6687,-7.6687,-7.6786,-7.687,-7.7012,-7.7089,-7.7101,-7.7101,-7.7101,-7.7101,-7.7101,-7.7101,-7.7101,-7.7101,-7.7101,-7.7101,-7.7101,-7.7101,-7.7101,-7.7101,-7.7101,-7.7101,-7.7101,-7.7101,-7.7101,-7.7335,-7.8194,-7.9053,-7.9951,-8.081,-8.1669,-8.2293,-8.2293,-8.2293,-8.2293,-8.2293,-8.2293,-8.2293,-8.2293,-8.2293,-8.2293,-8.2293,-8.2293,-8.2293,-8.2293,-8.1513,-8.0654,-7.9756,-7.8897,-7.8044,-7.7161,-7.7094,-7.7139,-7.7184,-7.7055,-7.695,-7.6804,-7.6653,-7.6536,-7.6397,-7.6397,-7.6397,-7.6397,-7.6397,-7.6397,-6.3253,-6.4939,-6.678,-6.7415,-6.807,-6.8506,-6.8506,-6.8506,-6.8554,-6.8744,-6.8875,-6.8929,-6.9116,-6.916,-6.9203,-6.9203,-6.9203,-6.9374,-6.9739,-6.9816,-7.075,-7.3292,-7.36,-7.4402,-7.6496,-7.6687,-7.6687,-7.6687,-7.6687,-7.6687,-7.6687,-7.6687,-7.6687,-7.6687,-7.6687,-7.6687,-7.6687,-7.6687,-7.6687,-7.6687,-7.6687,-7.6687,-7.6687,-7.6687,-7.6687,-7.6687,-7.6687,-7.6687,-7.6687,-7.6786,-7.6933,-7.7082,-7.7028,-7.7043,-7.7101,-7.7101,-7.7101,-7.7101,-7.7101,-7.7101,-7.7101,-7.7101,-7.7101,-7.7101,-7.7101,-7.7101,-7.7101,-7.7101,-7.7101,-7.7101,-7.7101,-7.7101,-7.7335,-7.8194,-7.9053,-7.9951,-8.081,-8.1669,-8.2293,-8.2293,-8.2293,-8.2293,-8.2293,-8.2293,-8.2293,-8.2293,-8.2293,-8.2293,-8.2293,-8.2293,-8.2293,-8.2293,-8.1513,-8.0654,-7.9756,-7.8897,-7.8038,-7.7146,-7.7083,-7.7133,-7.7184,-7.6984,-7.6838,-7.6804,-7.6573,-7.6427,-7.6397,-7.6397,-7.6397,-7.6397,-7.6397,-7.6397,-6.3882,-6.5429,-6.6837,-6.7736,-6.8222,-6.8506,-6.8506,-6.8554,-6.8602,-6.8828,-6.8884,-6.8975,-6.9072,-6.916,-6.9203,-6.9203,-6.9203,-6.9374,-6.9739,-6.9816,-7.075,-7.3292,-7.36,-7.4402,-7.6496,-7.6687,-7.6687,-7.6687,-7.6687,-7.6687,-7.6687,-7.6687,-7.6687,-7.6687,-7.6687,-7.6687,-7.6687,-7.6687,-7.6687,-7.6687,-7.6687,-7.6687,-7.6687,-7.6687,-7.6687,-7.6687,-7.6721,-7.6738,-7.6754,-7.6791,-7.6944,-7.7082,-7.7012,-7.7028,-7.7101,-7.7101,-7.7101,-7.7101,-7.7101,-7.7101,-7.7101,-7.7101,-7.7101,-7.7101,-7.7101,-7.7101,-7.7101,-7.7101,-7.7101,-7.7101,-7.7101,-7.7375,-7.7843,-7.8702,-7.9326,-8.0029,-8.1239,-8.1942,-8.2293,-8.2293,-8.2293,-8.2293,-8.2293,-8.2293,-8.2293,-8.2293,-8.2293,-8.2293,-8.2293,-8.2293,-8.2293,-8.2293,-8.1825,-8.1005,-7.9795,-7.9209,-7.839,-7.7179,-7.7117,-7.713,-7.7142,-7.6933,-7.6816,-7.6804,-7.6555,-7.6397,-7.6397,-7.6397,-7.6397,-7.6397,-7.6397,-7.6397,-6.477,-6.5953,-6.6895,-6.8084,-6.8457,-6.8506,-6.8506,-6.8602,-6.8697,-6.8697,-6.8846,-6.8983,-6.9027,-6.9116,-6.9203,-6.9203,-6.9203,-6.9374,-6.9739,-6.9816,-7.075,-7.3292,-7.36,-7.4402,-7.6496,-7.6687,-7.6687,-7.6687,-7.6687,-7.6687,-7.6687,-7.6687,-7.6687,-7.6687,-7.6687,-7.6687,-7.6687,-7.6687,-7.6687,-7.6687,-7.6687,-7.6687,-7.6687,-7.6687,-7.6687,-7.6687,-7.6786,-7.6777,-7.6791,-7.6846,-7.6955,-7.7012,-7.7004,-7.7028,-7.7101,-7.7101,-7.7101,-7.7101,-7.7101,-7.7101,-7.7101,-7.7101,-7.7101,-7.7101,-7.7101,-7.7101,-7.7101,-7.7101,-7.7101,-7.7101,-7.7101,-7.7687,-7.8507,-7.9483,-7.9756,-8.0263,-8.1942,-8.2293,-8.2293,-8.2293,-8.2293,-8.2293,-8.2293,-8.2293,-8.2293,-8.2293,-8.2293,-8.2293,-8.2293,-8.2293,-8.2293,-8.2293,-8.2293,-8.1591,-7.9834,-7.9717,-7.8975,-7.7218,-7.7112,-7.7087,-7.7097,-7.6912,-7.6799,-7.6804,-7.6555,-7.6397,-7.6397,-7.6397,-7.6397,-7.6397,-7.6397,-7.6397,-6.3617,-6.5202,-6.678,-6.7577,-6.8171,-6.8506,-6.8506,-6.8602,-6.8697,-6.8875,-6.8884,-6.8975,-6.9116,-6.916,-6.9203,-6.9203,-6.9203,-6.9374,-6.9739,-6.9816,-7.075,-7.3292,-7.36,-7.4402,-7.6496,-7.6687,-7.6687,-7.6687,-7.6687,-7.6687,-7.6687,-7.6687,-7.6687,-7.6687,-7.6687,-7.6687,-7.6687,-7.6687,-7.6687,-7.6687,-7.6687,-7.6687,-7.6687,-7.6687,-7.6687,-7.6687,-7.6786,-7.6805,-7.6897,-7.6858,-7.6905,-7.7082,-7.6975,-7.7004,-7.7101,-7.7101,-7.7101,-7.7101,-7.7101,-7.7101,-7.7101,-7.7101,-7.7101,-7.7101,-7.7101,-7.7101,-7.7101,-7.7101,-7.7101,-7.7101,-7.7101,-7.7257,-7.7765,-7.9326,-8.0224,-8.1005,-8.2059,-8.2293,-8.2293,-8.2293,-8.2293,-8.2293,-8.2293,-8.2293,-8.2293,-8.2293,-8.2293,-8.2293,-8.2293,-8.2293,-8.2293,-8.2293,-8.2293,-8.1591,-7.9834,-7.9717,-7.8975,-7.7218,-7.7107,-7.7112,-7.7087,-7.6917,-7.6799,-7.6804,-7.6555,-7.6397,-7.6397,-7.6397,-7.6397,-7.6397,-7.6397,-7.6397,-6.4144,-6.5514,-6.6837,-6.7826,-6.8272,-6.8506,-6.8506,-6.8554,-6.865,-6.8875,-6.8929,-6.902,-6.916,-6.9203,-6.9203,-6.9203,-6.9203,-6.9374,-6.9739,-6.9816,-7.075,-7.3292,-7.36,-7.4402,-7.6496,-7.6687,-7.6687,-7.6687,-7.6687,-7.6687,-7.6687,-7.6687,-7.6687,-7.6687,-7.6687,-7.6687,-7.6687,-7.6687,-7.6687,-7.6687,-7.6687,-7.6687,-7.6687,-7.6687,-7.6687,-7.6687,-7.6777,-7.6805,-7.6816,-7.6858,-7.6894,-7.7004,-7.6944,-7.6985,-7.7101,-7.7101,-7.7101,-7.7101,-7.7101,-7.7101,-7.7101,-7.7101,-7.7101,-7.7101,-7.7101,-7.7101,-7.7101,-7.7101,-7.7101,-7.7101,-7.7101,-7.7414,-7.8077,-7.9366,-8.0068,-8.0732,-8.202,-8.2293,-8.2293,-8.2293,-8.2293,-8.2293,-8.2293,-8.2293,-8.2293,-8.2293,-8.2293,-8.2293,-8.2293,-8.2293,-8.2293,-8.2293,-8.2293,-8.1591,-7.9834,-7.9717,-7.8975,-7.7218,-7.7101,-7.7107,-7.7083,-7.6935,-7.6839,-7.6788,-7.6612,-7.6466,-7.6397,-7.6397,-7.6397,-7.6397,-7.6397,-7.6397,-6.4841,-6.5992,-6.6895,-6.8171,-6.8506,-6.8506,-6.8506,-6.8506,-6.8602,-6.8875,-6.8929,-6.9027,-6.916,-6.9203,-6.9203,-6.9203,-6.9203,-6.9332,-6.97,-6.9778,-7.075,-7.3212,-7.3575,-7.4402,-7.6458,-7.6669,-7.6687,-7.6687,-7.6687,-7.6687,-7.6687,-7.6687,-7.6687,-7.6687,-7.6687,-7.6687,-7.6687,-7.6687,-7.6687,-7.6687,-7.6687,-7.6687,-7.6687,-7.6687,-7.6687,-7.6687,-7.6819,-7.6844,-7.6721,-7.6871,-7.6921,-7.6933,-7.6882,-7.6985,-7.7101,-7.7101,-7.7101,-7.7101,-7.7101,-7.7101,-7.7101,-7.7101,-7.7101,-7.7101,-7.7101,-7.7101,-7.7101,-7.7101,-7.7101,-7.7101,-7.7101,-7.7648,-7.8429,-7.9444,-7.9717,-8.0185,-8.1903,-8.2293,-8.2293,-8.2293,-8.2293,-8.2293,-8.2293,-8.2293,-8.2293,-8.2293,-8.2293,-8.2293,-8.2293,-8.2293,-8.2293,-8.2293,-8.2176,-8.1435,-7.9834,-7.9561,-7.8819,-7.7218,-7.7101,-7.7112,-7.7087,-7.6985,-7.6887,-7.6809,-7.6682,-7.651,-7.6397,-7.6397,-7.6397,-7.6397,-7.6397,-7.6397,-6.3823,-6.5224,-6.6895,-6.8171,-6.8506,-6.8506,-6.8506,-6.8602,-6.8697,-6.8875,-6.8921,-6.8975,-6.916,-6.9203,-6.9203,-6.9203,-6.9203,-6.9289,-6.9501,-6.97,-7.0608,-7.2831,-7.3378,-7.4331,-7.6278,-7.6614,-7.6687,-7.6687,-7.6687,-7.6687,-7.6687,-7.6687,-7.6687,-7.6687,-7.6687,-7.6687,-7.6687,-7.6687,-7.6687,-7.6687,-7.6687,-7.6687,-7.6687,-7.6687,-7.6687,-7.6687,-7.6819,-7.6871,-7.6801,-7.6846,-7.6916,-7.6995,-7.6905,-7.6985,-7.7101,-7.7101,-7.7101,-7.7101,-7.7101,-7.7101,-7.7101,-7.7101,-7.7101,-7.7101,-7.7101,-7.7101,-7.7101,-7.7101,-7.7101,-7.7101,-7.7101,-7.7179,-7.7687,-7.9326,-7.9717,-8.0185,-8.1903,-8.2293,-8.2293,-8.2293,-8.2293,-8.2293,-8.2293,-8.2293,-8.2293,-8.2293,-8.2293,-8.2293,-8.2293,-8.2293,-8.2293,-8.2293,-8.163,-8.0771,-7.9795,-7.9014,-7.8155,-7.7179,-7.7101,-7.7117,-7.7105,-7.7028,-7.6951,-7.6887,-7.6721,-7.651,-7.6397,-7.6397,-7.6397,-7.6397,-7.6397,-7.6397,-6.4991,-6.6175,-6.7415,-6.8272,-6.8506,-6.8506,-6.8506,-6.8602,-6.8782,-6.8875,-6.8929,-6.902,-6.916,-6.9203,-6.9203,-6.9203,-6.9203,-6.9289,-6.946,-6.97,-7.0571,-7.2734,-7.335,-7.4331,-7.6234,-7.6594,-7.6687,-7.6687,-7.6687,-7.6687,-7.6687,-7.6687,-7.6687,-7.6687,-7.6687,-7.6687,-7.6687,-7.6687,-7.6687,-7.6687,-7.6687,-7.6687,-7.6687,-7.6687,-7.6704,-7.677,-7.6885,-7.6846,-7.683,-7.6894,-7.6965,-7.6926,-7.6965,-7.7012,-7.7101,-7.7101,-7.7101,-7.7101,-7.7101,-7.7101,-7.7101,-7.7101,-7.7101,-7.7101,-7.7101,-7.7101,-7.7101,-7.7101,-7.7101,-7.7101,-7.7101,-7.7101,-7.7531,-7.9287,-7.9717,-8.0185,-8.1903,-8.2293,-8.2293,-8.2293,-8.2293,-8.2293,-8.2293,-8.2293,-8.2293,-8.2293,-8.2293,-8.2293,-8.2293,-8.2293,-8.2293,-8.2293,-8.1513,-8.0654,-7.9756,-7.8897,-7.8038,-7.7179,-7.7101,-7.7083,-7.7106,-7.7029,-7.6956,-7.6887,-7.6715,-7.6614,-7.651,-7.6444,-7.6397,-7.6397,-7.6397,-7.6397,-6.592,-6.6874,-6.7523,-6.8121,-6.8408,-6.8506,-6.8506,-6.8602,-6.8782,-6.8875,-6.8975,-6.9027,-6.916,-6.9203,-6.9203,-6.9203,-6.9203,-6.9246,-6.9378,-6.985,-7.0801,-7.2639,-7.3486,-7.4576,-7.6165,-7.6536,-7.6687,-7.6687,-7.6687,-7.6687,-7.6687,-7.6687,-7.6687,-7.6687,-7.6687,-7.6687,-7.6687,-7.6687,-7.6687,-7.6687,-7.6687,-7.6687,-7.6687,-7.6687,-7.6754,-7.6844,-7.6858,-7.6846,-7.6791,-7.6926,-7.6975,-7.6921,-7.6985,-7.7028,-7.7101,-7.7101,-7.7101,-7.7101,-7.7101,-7.7101,-7.7101,-7.7101,-7.7101,-7.7101,-7.7101,-7.7101,-7.7101,-7.7101,-7.7101,-7.7101,-7.7101,-7.7101,-7.7492,-7.9014,-7.9522,-8.0185,-8.1903,-8.2293,-8.2293,-8.2293,-8.2293,-8.2293,-8.2293,-8.2293,-8.2293,-8.2293,-8.2293,-8.2293,-8.2293,-8.2293,-8.2215,-8.1981,-8.12,-8.0302,-7.9444,-7.8585,-7.7804,-7.714,-7.7112,-7.7094,-7.707,-7.7022,-7.6978,-7.6916,-7.6786,-7.6671,-7.6612,-7.6488,-7.6444,-7.6397,-7.6397,-7.6397,-6.5533,-6.6186,-6.678,-6.7469,-6.807,-6.8506,-6.8506,-6.8602,-6.8782,-6.8875,-6.8975,-6.9027,-6.916,-6.9203,-6.9203,-6.9203,-6.9203,-6.9203,-6.9203,-7.0259,-7.1408,-7.2319,-7.3845,-7.5157,-7.6006,-7.6475,-7.6687,-7.6687,-7.6687,-7.6687,-7.6687,-7.6687,-7.6687,-7.6687,-7.6687,-7.6687,-7.6687,-7.6687,-7.6687,-7.6687,-7.6687,-7.6687,-7.6687,-7.6687,-7.6786,-7.687,-7.6921,-7.6846,-7.6791,-7.6926,-7.6975,-7.6921,-7.6985,-7.7028,-7.7101,-7.7101,-7.7101,-7.7101,-7.7101,-7.7101,-7.7101,-7.7101,-7.7101,-7.7101,-7.7101,-7.7101,-7.7101,-7.7101,-7.7101,-7.7101,-7.7101,-7.7101,-7.7335,-7.8233,-7.9092,-8.0185,-8.1903,-8.2293,-8.2293,-8.2293,-8.2293,-8.2293,-8.2293,-8.2293,-8.2293,-8.2293,-8.2293,-8.2293,-8.2293,-8.2293,-8.1981,-8.1161,-8.0302,-7.9405,-7.8546,-7.7687,-7.714,-7.7101,-7.7094,-7.707,-7.7022,-7.699,-7.7012,-7.6999,-7.6809,-7.6671,-7.6612,-7.6612,-7.651,-7.6397,-7.6397,-7.6397,-6.6064,-6.6722,-6.7415,-6.7982,-6.8358,-6.8506,-6.8506,-6.8602,-6.8782,-6.8875,-6.8975,-6.9027,-6.916,-6.9203,-6.9203,-6.9203,-6.9203,-6.9203,-6.9203,-7.0173,-7.1249,-7.2279,-7.3718,-7.5011,-7.5979,-7.6454,-7.6687,-7.6687,-7.6687,-7.6687,-7.6687,-7.6687,-7.6687,-7.6687,-7.6687,-7.6687,-7.6687,-7.6687,-7.6687,-7.6687,-7.6687,-7.6687,-7.6687,-7.6687,-7.6786,-7.6882,-7.6882,-7.6894,-7.6955,-7.702,-7.702,-7.6985,-7.7028,-7.7089,-7.7101,-7.7101,-7.7101,-7.7101,-7.7101,-7.7101,-7.7101,-7.7101,-7.7101,-7.7101,-7.7101,-7.7101,-7.7101,-7.7101,-7.7101,-7.7101,-7.7101,-7.7101,-7.7335,-7.8194,-7.9483,-8.0693,-8.1317,-8.1903,-8.2293,-8.2293,-8.2293,-8.2293,-8.2293,-8.2293,-8.2293,-8.2293,-8.2293,-8.2293,-8.2293,-8.1825,-8.1356,-8.1044,-7.9717,-7.8741,-7.8429,-7.7609,-7.7112,-7.7094,-7.7103,-7.7069,-7.699,-7.7004,-7.7004,-7.6999,-7.691,-7.6825,-7.6671,-7.6531,-7.6444,-7.6397,-7.6397,-7.6397,-6.6186,-6.6931,-6.772,-6.8121,-6.8358,-6.8506,-6.8506,-6.8554,-6.865,-6.8875,-6.8929,-6.8983,-6.916,-6.9203,-6.9203,-6.9203,-6.9203,-6.9203,-6.9203,-7.0352,-7.1508,-7.2279,-7.3882,-7.5225,-7.6018,-7.6454,-7.6687,-7.6687,-7.6687,0.0,-7.6687,-7.6687,-7.6687,-7.6687,-7.6687,-7.6687,-7.6687,-7.6687,-7.6687,-7.6687,-7.6687,-7.6687,-7.6687,-7.6721,-7.6801,-7.6882,-7.6905,-7.6975,-7.7012,-7.7089,-7.7043,-7.7012,-7.7089,-7.7101,-7.7101,-7.7101,-7.7101,-7.7101,-7.7101,-7.7101,-7.7101,-7.7101,-7.7101,-7.7101,-7.7101,-7.7101,-7.7101,-7.7101,-7.7101,-7.7101,-7.7101,-7.7101,-7.7335,-7.8194,-7.9287,-8.0302,-8.0888,-8.1669,-8.2293,-8.2293,-8.2293,-8.2293,-8.2293,-8.2293,-8.2293,-8.2293,-8.2293,-8.2176,-8.1903,-8.1356,-8.0771,-8.0185,-7.9092,-7.8278,-7.7981,-7.7434,-7.7094,-7.707,-7.7069,-7.7055,-7.6997,-7.7012,-7.7014,-7.6999,-7.6975,-7.6869,-7.6687,-7.6555,-7.6488,-7.6397,-7.6397,-7.6397,0.0,0.0,0.0,-6.7614,-6.807,-6.8457,-6.8506,-6.8506,-6.8554,-6.8875,-6.8921,-6.8929,-6.916,-6.9203,-6.9203,-6.9203,-6.9203,-6.9241,-6.9241,-7.0804,-7.2113,-7.2393,-7.4418,-7.588,-7.6121,-7.6454,-7.6687,-7.6687,-7.6687,-7.6687,-7.6687,-7.6687,-7.6687,-7.6687,-7.6687,-7.6687,-7.6687,-7.6687,-7.6687,-7.6687,-7.6687,-7.6687,-7.6687,-7.6786,-7.6858,-7.6882,-7.6985,-7.7004,-7.7012,-7.7089,-7.7043,-7.7012,-7.7089,-7.7101,-7.7101,-7.7101,-7.7101,-7.7101,-7.7101,-7.7101,-7.7101,-7.7101,-7.7101,-7.7101,-7.7101,-7.7101,-7.7101,-7.7101,-7.7101,-7.7101,-7.7101,-7.7101,-7.7296,-7.8155,-7.839,-7.8858,-8.0576,-8.1591,-8.2254,-8.2293,-8.2293,-8.2293,-8.2293,-8.2293,-8.2293,-8.2293,-8.2293,-8.1942,-8.1122,-8.0966,-8.0263,-7.8591,-7.8395,-7.802,-7.7184,-7.7106,-7.707,-7.698,-7.6984,-7.6997,-7.6989,-7.7004,-7.6999,-7.6999,-7.6858,-7.6786,-7.6687,-7.6726,-7.6575,-7.6397,-7.6397,-7.6397,-6.6247,0.0,0.0,0.0,0.0,0.0,-6.8408,-6.8506,-6.8554,-6.8697,-6.8791,-6.8929,-6.9027,-6.9116,-6.9203,-6.9203,-6.9203,-6.9428,-7.0067,-7.1087,-7.2218,-7.3345,-7.4724,-7.5784,-7.6258,-7.6536,-7.6687,0.0,-7.6687,-7.6687,-7.6687,-7.6687,-7.6687,-7.6687,-7.6687,-7.6687,-7.6687,-7.6687,-7.6687,-7.6687,-7.6687,-7.6687,-7.6687,-7.6786,-7.6858,-7.6882,-7.6944,-7.6995,-7.7089,-7.7095,-7.7095,-7.7089,-7.7095,-7.7101,-7.7101,-7.7101,-7.7101,-7.7101,-7.7101,-7.7101,-7.7101,-7.7101,-7.7101,-7.7101,-7.7101,-7.7101,-7.7101,-7.7101,-7.7101,-7.7101,-7.7101,-7.7101,-7.7179,-7.7414,-7.7921,-7.8546,-7.9014,-7.9795,-8.081,-8.2059,-8.2293,-8.2293,-8.2293,-8.2293,-8.2293,-8.2293,-8.1747,-8.1278,-8.1044,-7.9912,-7.8947,-7.8464,-7.7842,-7.7341,-7.7067,-7.7028,-7.7019,-7.6984,-7.7004,-7.7012,-7.6994,-7.7011,-7.6999,-7.6999,-7.6936,-7.6869,-7.6687,-7.6652,-7.6553,-7.6397,-7.6397,-7.6397,-6.6125,-6.6427,-6.6837,-6.7878,0.0,0.0,-6.8358,-6.8506,-6.8506,-6.865,-6.8744,-6.895,-6.9432,-6.9597,-6.9753,-7.0217,-7.0255,-7.0292,-7.048,-7.1494,-7.2585,-7.365,-7.4809,-7.5686,-7.621,-7.6516,-7.6687,-7.6687,-7.6687,-7.6687,-7.6687,-7.6687,-7.6687,-7.6687,-7.6687,-7.6687,-7.6687,-7.6721,-7.6721,-7.6687,-7.6721,-7.6721,-7.6687,-7.6816,-7.6846,-7.6882,-7.6975,-7.702,-7.7101,-7.7101,-7.7101,-7.7101,-7.7101,-7.7101,-7.7101,-7.7101,-7.7101,-7.7101,-7.7101,-7.7101,-7.7101,-7.7101,-7.7101,-7.7101,-7.7101,-7.7101,-7.7101,-7.7101,-7.7101,-7.7101,-7.7101,-7.7101,-7.7101,-7.7101,-7.7492,-7.796,-7.8311,-7.878,-7.9678,-8.1435,-8.1747,-8.1864,-8.2254,-8.1981,-8.1747,-8.1747,-8.1005,-8.0341,-7.9951,-7.9014,-7.825,-7.7886,-7.7419,-7.707,-7.7005,-7.7,-7.6984,-7.6995,-7.6995,-7.7014,-7.6999,-7.6999,-7.6999,-7.6999,-7.6999,-7.6897,-7.6687,-7.6671,-7.6553,-7.6397,-7.6397,-7.6397,-6.5697,-6.6197,-6.6925,-6.7561,-6.7797,0.0,-6.8618,-6.8766,-6.8766,-6.8948,-6.8995,-6.9229,-7.0255,-7.0413,-7.0721,-7.1561,-7.1794,-7.1569,-7.0855,-7.1982,-7.31,-7.3682,-7.4778,-7.5664,-7.6083,-7.6475,-7.6687,-7.6687,-7.6687,-7.6687,-7.6687,-7.6687,-7.6687,-7.6687,-7.6687,-7.6687,-7.6687,-7.677,-7.677,-7.6687,-7.677,-7.677,-7.6687,-7.6858,-7.6882,-7.6921,-7.7028,-7.7095,-7.7101,-7.7095,-7.7095,-7.7101,-7.7101,-7.7101,-7.7101,-7.7101,-7.7101,-7.7101,-7.7101,-7.7101,-7.7101,-7.7101,-7.7101,-7.7101,-7.7101,-7.7101,-7.7101,-7.7101,-7.7101,-7.7101,-7.7101,-7.7101,-7.7101,-7.7101,-7.7101,-7.7296,-7.8077,-7.8272,-7.8741,-8.0381,-8.0771,-8.1083,-8.1864,-8.1356,-8.0849,-8.0849,-8.0107,-7.9287,-7.8507,-7.8311,-7.7976,-7.7184,-7.7108,-7.7067,-7.6997,-7.6981,-7.6995,-7.6999,-7.6999,-7.6999,-7.6999,-7.6999,-7.6999,-7.6999,-7.6987,-7.6883,-7.6687,-7.6669,-7.6555,-7.6397,-7.6397,-7.6397,-6.5697,-6.6593,-6.7724,-6.8422,-6.9045,0.0,-7.0286,-7.0437,-7.0437,-7.0437,-7.0537,-7.0757,-7.105,-7.1228,-7.1358,-7.1636,-7.2245,-7.262,-7.2432,-7.2695,-7.3339,-7.4676,-7.5226,-7.5716,-7.6281,-7.6575,-7.6687,-7.6687,-7.6687,-7.6687,-7.6687,-7.6687,-7.6687,-7.6687,-7.6687,-7.6687,-7.6687,-7.6704,-7.6704,-7.6687,-7.6704,-7.6704,-7.6687,-7.6858,-7.6882,-7.6882,-7.6995,-7.7036,-7.7101,-7.7028,-7.7036,-7.7101,-7.7101,-7.7101,-7.7101,-7.7101,-7.7101,-7.7101,-7.7101,-7.7101,-7.7101,-7.7101,-7.7101,-7.7101,-7.7101,-7.7101,-7.7101,-7.7101,-7.7101,-7.7101,-7.7101,-7.7101,-7.7101,-7.7101,-7.7101,-7.714,-7.7335,-7.7335,-7.7648,-7.8702,-7.9483,-8.0029,-8.0185,-8.0068,-7.9951,-7.9951,-7.9209,-7.8585,-7.8429,-7.7804,-7.7282,-7.7028,-7.7026,-7.7005,-7.7004,-7.6983,-7.7022,-7.6999,-7.6999,-7.6999,-7.6999,-7.6999,-7.6999,-7.6999,-7.691,-7.6786,-7.6687,-7.6514,-7.6444,-7.6397,-7.6397,-7.6397,-6.5778,-6.6576,-6.7633,-6.8654,-6.918,0.0,0.0,-7.092,-7.092,-7.092,-7.0971,-7.1132,-7.1776,-7.1947,-7.2239,-7.2745,-7.325,-7.3559,-7.3559,-7.3559,-7.3853,-7.4705,-7.5198,-7.5656,-7.607,-7.6475,-7.6687,-7.6687,-7.6687,-7.6687,-7.6687,-7.6687,-7.6687,-7.6687,-7.6687,-7.6687,-7.6687,-7.6738,-7.6738,-7.6687,-7.6738,-7.6754,-7.6754,-7.6833,-7.6933,-7.6965,-7.702,-7.7089,-7.7101,-7.7043,-7.7089,-7.7101,-7.7101,-7.7101,-7.7101,-7.7101,-7.7101,-7.7101,-7.7101,-7.7101,-7.7101,-7.7101,-7.7101,-7.7101,-7.7101,-7.7101,-7.7101,-7.7101,-7.7101,-7.7101,-7.7101,-7.7101,-7.7101,-7.7101,-7.7101,-7.7101,-7.7101,-7.7101,-7.7218,-7.7687,-7.8116,-7.8663,-7.9561,-7.9326,-7.9053,-7.9053,-7.8311,-7.7765,-7.7765,-7.7352,-7.7064,-7.7024,-7.7009,-7.7004,-7.7011,-7.6999,-7.6999,-7.6999,-7.6999,-7.6999,-7.6999,-7.6999,-7.6999,-7.6999,-7.6858,-7.677,-7.6687,-7.6573,-7.6466,-7.6397,-7.6397,-7.6397,-6.604,-6.6778,-6.7725,-6.894,-6.9479,-6.9945,0.0,0.0,0.0,-7.1403,-7.1403,-7.1677,-7.2497,-7.2795,-7.3041,-7.3672,0.0,0.0,0.0,-7.4085,0.0,-7.4476,-7.5018,-7.5501,-7.5793,-7.6327,-7.6651,-7.6687,-7.6651,-7.6651,-7.6687,-7.6687,-7.6687,-7.6687,-7.6687,-7.6687,-7.6687,-7.677,-7.677,-7.6687,-7.677,-7.6816,-7.6777,-7.6846,-7.6955,-7.7012,-7.7089,-7.7101,-7.7101,-7.7101,-7.7101,-7.7101,-7.7101,-7.7101,-7.7101,-7.7101,-7.7101,-7.7101,-7.7101,-7.7101,-7.7101,-7.7101,-7.7101,-7.7101,-7.7101,-7.7101,-7.7101,-7.7101,-7.7101,-7.7101,-7.7101,-7.7101,-7.7101,-7.7101,-7.7101,-7.7101,-7.7101,-7.7101,-7.7101,-7.7101,-7.7101,-7.7531,-7.8975,-7.8624,-7.8155,-7.8155,-7.7531,-7.7107,-7.7112,-7.7097,-7.707,-7.7016,-7.6984,-7.7012,-7.7011,-7.6999,-7.6999,-7.6999,-7.6999,-7.6999,-7.6999,-7.6999,-7.6999,-7.6999,-7.691,-7.6786,-7.6687,-7.6652,-7.6531,-7.6397,-7.6397,-7.6397,-6.6707,-6.7904,-6.9118,-6.9859,-7.1076,-7.2242,-7.2971,0.0,-7.3112,-7.3112,0.0,-7.3252,-7.3566,0.0,0.0,-7.31,-7.3709,-7.3934,-7.3146,-7.3709,-7.4289,-7.4476,-7.4865,-7.5302,-7.5755,-7.6171,-7.6496,-7.6669,-7.6516,-7.6496,-7.6669,-7.6687,-7.6687,-7.6687,-7.6687,-7.6687,-7.6687,-7.677,-7.677,-7.6687,-7.677,-7.6816,-7.6777,-7.6846,-7.6955,-7.7012,-7.7089,-7.7101,-7.7101,-7.7101,-7.7101,-7.7101,-7.7101,-7.7101,-7.7101,-7.7101,-7.7101,-7.7101,-7.7101,-7.7101,-7.7101,-7.7101,-7.7101,-7.7101,-7.7101,-7.7101,-7.7101,-7.7101,-7.7101,-7.7101,-7.7101,-7.7101,-7.7101,-7.7101,-7.7101,-7.7101,-7.7101,-7.7101,-7.7101,-7.7101,-7.7101,-7.7179,-7.7375,-7.7296,-7.7257,-7.7257,-7.7179,-7.7117,-7.7103,-7.7105,-7.7069,-7.7017,-7.6997,-7.7012,-7.7011,-7.6999,-7.6999,-7.6999,-7.6999,-7.6999,-7.6999,-7.6999,-7.6999,-7.6999,-7.6987,-7.6883,-7.6687,-7.6669,-7.6575,-7.6397,-7.6397,-7.6397,-6.762,-6.8787,-7.0074,-7.0753,-7.1623,-7.2556,-7.3268,-7.3372,-7.3372,-7.3372,0.0,0.0,0.0,0.0,0.0,0.0,-7.3925,-7.4085,0.0,0.0,-7.4243,-7.4335,0.0,0.0,-7.607,-7.6185,-7.6366,-7.6669,-7.6496,-7.6475,-7.6669,-7.6687,-7.6687,-7.6687,-7.6687,-7.6704,-7.677,-7.6754,-7.6754,-7.677,-7.6754,-7.6801,-7.6846,-7.6909,-7.6975,-7.7043,-7.7095,-7.7101,-7.7101,-7.7101,-7.7101,-7.7101,-7.7101,-7.7101,-7.7101,-7.7101,-7.7101,-7.7101,-7.7101,-7.7101,-7.7101,-7.7101,-7.7101,-7.7101,-7.7101,-7.7101,-7.7101,-7.7101,-7.7101,-7.7101,-7.7101,-7.7101,-7.7101,-7.7101,-7.7101,-7.7101,-7.7101,-7.7101,-7.7101,-7.7101,-7.7101,-7.7101,-7.7101,-7.7101,-7.7101,-7.7101,-7.7101,-7.7117,-7.7105,-7.707,-7.7022,-7.7004,-7.7004,-7.7004,-7.6999,-7.6999,-7.6999,-7.6999,-7.6999,-7.6999,-7.6999,-7.6999,-7.6999,-7.6999,-7.6999,-7.6897,-7.6687,-7.6687,-7.6575,-7.6397,-7.6397,-7.6397,-6.8463,-6.9318,-7.0303,-7.1195,-7.1757,-7.2328,-7.3215,-7.3372,-7.3372,-7.3372,-7.3372,0.0,0.0,0.0,-7.3789,-7.3672,0.0,-7.4122,-7.3897,-7.4047,-7.4197,-7.4197,0.0,0.0,0.0,-7.6056,-7.6135,-7.6496,-7.6411,-7.6411,-7.6614,-7.6669,-7.6687,-7.6687,-7.6687,-7.6721,-7.6786,-7.6738,-7.6738,-7.6786,-7.6738,-7.6801,-7.6882,-7.6882,-7.6985,-7.7101,-7.7101,-7.7101,-7.7101,-7.7101,-7.7101,-7.7101,-7.7101,-7.7101,-7.7101,-7.7101,-7.7101,-7.7101,-7.7101,-7.7101,-7.7101,-7.7101,-7.7101,-7.7101,-7.7101,-7.7101,-7.7101,-7.7101,-7.7101,-7.7101,-7.7101,-7.7101,-7.7101,-7.7101,-7.7101,-7.7101,-7.7101,-7.7101,-7.7101,-7.7101,-7.7101,-7.7101,-7.7101,-7.7101,-7.7101,-7.7101,-7.7101,-7.7083,-7.7069,-7.7028,-7.7005,-7.702,-7.6994,-7.6999,-7.6999,-7.6999,-7.6999,-7.6999,-7.6999,-7.6999,-7.6999,-7.6999,-7.6999,-7.6999,-7.6999,-7.6897,-7.6687,-7.6687,-7.6575,-7.6397,-7.6397,-7.6397,-6.913,-6.9449,-6.9777,-7.1067,-7.1448,-7.1757,-7.3071,-7.3372,-7.3372,-7.3372,-7.3372,-7.3424,-7.3615,-7.3715,-7.3602,-7.2838,-7.3541,0.0,0.0,-7.3672,-7.4197,-7.4197,-7.4705,-7.5201,0.0,-7.5718,-7.5899,-7.6121,-7.6121,-7.6224,-7.6411,-7.6614,-7.6687,-7.6687,-7.6687,-7.6687,-7.6687,-7.677,-7.677,-7.6687,-7.677,-7.6819,-7.6882,-7.6882,-7.6985,-7.7101,-7.7101,-7.7101,-7.7101,-7.7101,-7.7101,-7.7101,-7.7101,-7.7101,-7.7101,-7.7101,-7.7101,-7.7101,-7.7101,-7.7101,-7.7101,-7.7101,-7.7101,-7.7101,-7.7101,-7.7101,-7.7101,-7.7101,-7.7101,-7.7101,-7.7101,-7.7101,-7.7101,-7.7101,-7.7101,-7.7101,-7.7101,-7.7101,-7.7101,-7.7101,-7.7101,-7.7101,-7.7101,-7.7101,-7.7101,-7.7101,-7.7101,-7.7091,-7.7026,-7.698,-7.6995,-7.6983,-7.6999,-7.6999,-7.6999,-7.6999,-7.6999,-7.6999,-7.6999,-7.6999,-7.6999,-7.6999,-7.6999,-7.6999,-7.6999,-7.6897,-7.6687,-7.6687,-7.6575,-7.6397,-7.6397,-7.6397,-6.9885,-7.0407,-7.0937,-7.1818,-7.2386,-7.2816,-7.332,-7.3372,-7.3372,-7.3372,-7.3372,-7.3476,-7.3715,-7.3765,-7.3752,-7.3729,-7.3963,-7.4122,0.0,-7.4009,-7.4197,-7.4197,-7.4653,-7.5057,-7.5451,0.0,0.0,-7.6095,-7.5985,-7.6068,-7.6389,-7.6454,-7.6536,-7.6726,-7.6687,-7.6721,-7.677,-7.6738,-7.6738,-7.677,-7.6738,-7.6801,-7.6882,-7.6882,-7.6985,-7.7101,-7.7101,-7.7101,-7.7101,-7.7101,-7.7101,-7.7101,-7.7101,-7.7101,-7.7101,-7.7101,-7.7101,-7.7101,-7.7101,-7.7101,-7.7101,-7.7101,-7.7101,-7.7101,-7.7101,-7.7101,-7.7101,-7.7101,-7.7101,-7.7101,-7.7101,-7.7101,-7.7101,-7.7101,-7.7101,-7.7101,-7.7101,-7.7101,-7.7101,-7.7101,-7.7101,-7.7101,-7.7101,-7.7101,-7.7101,-7.7101,-7.7101,-7.7091,-7.7024,-7.698,-7.6995,-7.7022,-7.6999,-7.6999,-7.6999,-7.6999,-7.6999,-7.6999,-7.6999,-7.6999,-7.6999,-7.6999,-7.6999,-7.6999,-7.6999,-7.6897,-7.6687,-7.6687,-7.6575,-7.6397,-7.6397,-7.6397,-7.027,-7.0872,-7.1573,-7.227,-7.2705,-7.3124,-7.332,-7.3372,-7.3424,-7.3424,-7.3476,-7.3527,-7.3765,-7.3864,-7.3912,-7.4104,-7.4151,-7.4197,0.0,-7.4197,-7.4197,-7.4197,-7.4563,-7.4901,-7.5243,-7.5389,-7.5599,-7.587,-7.581,-7.5899,-7.616,-7.6234,-7.6389,-7.6594,-7.6594,-7.6669,-7.677,-7.6721,-7.6721,-7.677,-7.6704,-7.677,-7.6882,-7.6882,-7.6985,-7.7101,-7.7101,-7.7101,-7.7101,-7.7101,-7.7101,-7.7101,-7.7101,-7.7101,-7.7101,-7.7101,-7.7101,-7.7101,-7.7101,-7.7101,-7.7101,-7.7101,-7.7101,-7.7101,-7.7101,-7.7101,-7.7179,-7.7492,-7.7335,-7.7179,-7.7492,-7.7335,-7.7101,-7.7101,-7.7101,-7.7101,-7.7101,-7.7101,-7.7101,-7.7101,-7.7101,-7.7101,-7.7101,-7.7112,-7.7117,-7.7101,-7.7112,-7.7061,-7.7024,-7.7013,-7.7017,-7.7011,-7.6999,-7.6999,-7.6999,-7.6999,-7.6999,-7.6999,-7.6999,-7.6999,-7.6999,-7.6999,-7.7272,-7.7896,-7.7311,-7.7209,-7.7619,-7.6998,-7.6575,-7.6397,-7.6397,-7.6397]},{"header":{"parameterUnit":"m.s-1","parameterCategory":1,"la1":30.6,"la2":29.2853,"lo1":-89.7004,"lo2":-87.6739,"dy":0.0162,"dx":0.0183,"nx":112,"ny":82,"refTime":"2023-11-18T06:00:00:Z","depth":0,"parameterNumber":3,"parameterNumberName":"V-component_of_WINDS"},"data":[0.0,0.0,0.0,0.0,0.0,0.0,0.0,0.0,0.0,0.0,0.0,0.0,0.0,0.0,0.0,0.0,0.0,0.0,0.0,0.0,0.0,0.0,0.0,0.0,0.0,0.0,0.0,0.0,0.0,0.0,0.0,0.0,0.0,0.0,0.0,0.0,0.0,0.0,0.0,0.0,0.0,0.0,0.0,0.0,0.0,0.0,0.0,0.0,0.0,0.0,0.0,0.0,0.0,0.0,0.0,0.0,0.0,0.0,0.0,0.0,0.0,0.0,0.0,0.0,0.0,0.0,0.0,0.0,0.0,0.0,0.0,0.0,0.0,0.0,0.0,0.0,0.0,0.0,0.0,0.0,0.0,0.0,0.0,0.0,0.0,0.0,0.0,0.0,0.0,0.0,-0.2514,-0.2514,-0.0471,0.1098,0.1255,0.3265,0.464,0.464,0.0,0.0,0.0,0.0,0.0,0.0,0.0,0.0,0.0,0.0,0.0,0.0,0.0,0.0,0.0,0.0,0.0,0.0,0.0,0.0,0.0,0.0,0.0,0.0,0.0,0.0,0.0,0.0,0.0,0.0,0.0,0.0,0.0,0.0,0.0,0.0,0.0,0.0,0.0,0.0,0.0,0.0,0.0,0.0,0.0,0.0,0.0,0.0,0.0,0.0,0.0,0.0,0.0,0.0,0.0,0.0,0.0,0.0,0.0,0.0,0.0,0.0,0.0,0.0,0.0,0.0,0.0,0.0,0.0,0.0,0.0,0.0,0.0,0.0,0.0,0.0,0.0,0.0,0.0,0.0,0.0,0.0,0.0,0.0,0.0,0.0,0.0,0.0,0.0,0.0,0.0,0.0,0.0,0.0,0.0,0.0,0.0,0.0,0.0,0.0,0.0,0.0,0.0,0.0,-0.2514,-0.2514,-0.1256,0.0157,0.1255,0.2507,0.3445,0.3445,0.0,0.0,0.0,0.0,0.0,0.0,0.0,0.0,0.0,0.0,0.0,0.0,0.0,0.0,0.0,0.0,0.0,0.0,0.0,0.0,0.0,0.0,0.0,0.0,0.0,0.0,0.0,0.0,0.0,0.0,0.0,0.0,0.0,0.0,0.0,0.0,0.0,0.0,0.0,0.0,0.0,0.0,0.0,0.0,0.0,0.0,0.0,0.0,0.0,0.0,0.0,0.0,0.0,0.0,0.0,0.0,0.0,0.0,0.0,0.0,0.0,0.0,0.0,0.0,0.0,0.0,0.0,0.0,0.0,0.0,0.0,0.0,0.0,0.0,0.0,0.0,0.0,0.0,0.0,0.0,0.0,0.0,0.0,0.0,0.0,0.0,0.0,0.0,0.0,0.0,0.0,0.0,0.0,0.0,0.0,0.0,0.0,0.0,0.0,0.0,0.0,0.0,0.0,-0.2514,-0.2514,-0.2514,-0.1413,0.0157,0.1881,0.3135,0.4077,0.4863,0.528,0.0,0.0,0.0,0.0,0.0,0.0,0.0,0.0,0.0,0.0,0.0,0.0,0.0,0.0,0.0,0.0,0.0,0.0,0.0,0.0,0.0,0.0,0.0,0.0,0.0,0.0,0.0,0.0,0.0,0.0,0.0,0.0,0.0,0.0,0.0,0.0,0.0,0.0,0.0,0.0,0.0,0.0,0.0,0.0,0.0,0.0,0.0,0.0,0.0,0.0,0.0,0.0,0.0,0.0,0.0,0.0,0.0,0.0,0.0,0.0,0.0,0.0,0.0,0.0,0.0,0.0,0.0,0.0,0.0,0.0,0.0,0.0,0.0,0.0,0.0,0.0,0.0,0.0,0.0,0.0,0.0,0.0,0.0,0.0,0.0,0.0,0.0,0.0,0.0,0.0,0.0,0.0,0.0,0.0,0.0,0.0,0.0,0.0,0.0,0.0,0.0,0.0,-0.2514,-0.2514,-0.2514,-0.157,-0.0157,0.235,0.3447,0.4549,0.5824,0.6141,0.0,0.0,0.0,0.0,0.0,0.0,0.0,0.0,0.0,0.0,0.0,0.0,0.0,0.0,0.0,0.0,0.0,0.0,0.0,0.0,0.0,0.0,0.0,0.0,0.0,0.0,0.0,0.0,0.0,0.0,0.0,0.0,0.0,0.0,0.0,0.0,0.0,0.0,0.0,0.0,0.0,0.0,0.0,0.0,0.0,0.0,0.0,0.0,0.0,0.0,0.0,0.0,0.0,0.0,0.0,0.0,0.0,0.0,0.0,0.0,0.0,0.0,0.0,0.0,0.0,0.0,0.0,0.0,0.0,0.0,0.0,0.0,0.0,0.0,0.0,0.0,0.0,0.0,0.0,0.0,0.0,0.0,0.0,0.0,0.0,0.0,0.0,0.0,0.0,0.0,0.0,0.0,0.0,0.0,0.0,0.0,0.0,0.0,0.0,0.0,0.0,0.0,-0.2514,-0.2514,-0.2514,-0.2357,-0.1099,0.2194,0.2507,0.3149,0.4616,0.5737,0.0,0.0,0.0,0.0,0.0,0.0,0.0,0.0,0.0,0.0,0.0,0.0,0.0,0.0,0.0,0.0,0.0,0.0,0.0,0.0,0.0,0.0,0.0,0.0,0.0,0.0,0.0,0.0,0.0,0.0,0.0,0.0,0.0,0.0,0.0,0.0,0.0,0.0,0.0,0.0,0.0,0.0,0.0,0.0,0.0,0.0,0.0,0.0,0.0,0.0,0.0,0.0,0.0,0.0,0.0,0.0,0.0,0.0,0.0,0.0,0.0,0.0,0.0,0.0,0.0,0.0,0.0,0.0,0.0,0.0,0.0,0.0,0.0,0.0,0.0,0.0,0.0,0.0,0.0,0.0,0.0,0.0,0.0,0.0,0.0,0.0,0.0,0.0,0.0,0.0,0.0,0.0,0.0,0.0,0.0,0.0,0.0,0.0,0.0,0.0,0.0,0.0,-0.2526,-0.2514,-0.2514,-0.2514,-0.1099,0.2194,0.2975,0.3933,0.5581,0.0,0.0,0.0,0.0,0.0,0.0,0.0,0.0,0.0,0.0,0.0,0.0,0.0,0.0,0.0,0.0,0.0,0.0,0.0,0.0,0.0,0.0,0.0,0.0,0.0,0.0,0.0,0.0,0.0,0.0,0.0,0.0,0.0,0.0,0.0,0.0,0.0,0.0,0.0,0.0,0.0,0.0,0.0,0.0,0.0,0.0,0.0,0.0,0.0,0.0,0.0,0.0,0.0,0.0,0.0,0.0,0.0,0.0,0.0,0.0,0.0,0.0,0.0,0.0,0.0,0.0,0.0,0.0,0.0,0.0,0.0,0.0,0.0,0.0,0.0,0.0,0.0,0.0,0.0,0.0,0.0,0.0,0.0,0.0,0.0,0.0,0.0,0.0,0.0,0.0,0.0,0.0,0.0,0.0,0.0,0.0,0.0,0.0,0.0,0.0,0.0,0.0,-0.256,-0.2533,-0.2514,-0.2514,-0.2514,-0.1256,0.1724,0.314,0.4428,0.5774,0.0,0.0,0.0,0.0,0.0,0.0,0.0,0.0,0.0,0.0,0.0,0.0,0.0,0.0,0.0,0.0,0.0,0.0,0.0,0.0,0.0,0.0,0.0,0.0,0.0,0.0,0.0,0.0,0.0,0.0,0.0,0.0,0.0,0.0,0.0,0.0,0.0,0.0,0.0,0.0,0.0,0.0,0.0,0.0,0.0,0.0,0.0,0.0,0.0,0.0,0.0,0.0,0.0,0.0,0.0,0.0,0.0,0.0,0.0,0.0,0.0,0.0,0.0,0.0,0.0,0.0,0.0,0.0,0.0,0.0,0.0,0.0,0.0,0.0,0.0,0.0,0.0,0.0,0.0,0.0,0.0,0.0,0.0,0.0,0.0,0.0,0.0,0.0,0.0,0.0,0.0,0.0,0.0,0.0,0.0,0.0,0.0,0.0,0.0,0.0,0.0,0.0,-0.2564,-0.2533,-0.2515,-0.2514,-0.2514,-0.1727,0.047,0.2532,0.4001,0.0,0.0,0.0,0.0,0.0,0.0,0.0,0.0,0.0,0.0,0.0,0.0,0.0,0.0,0.0,0.0,0.0,0.0,0.0,0.0,0.0,0.0,0.0,0.0,0.0,0.0,0.0,0.0,0.0,0.0,0.0,0.0,0.0,0.0,0.0,0.0,0.0,0.0,0.0,0.0,0.0,0.0,0.0,0.0,0.0,0.0,0.0,0.0,0.0,0.0,0.0,0.0,0.0,0.0,0.0,0.0,0.0,0.0,0.0,0.0,0.0,0.0,0.0,0.0,0.0,0.0,0.0,0.0,0.0,0.0,0.0,0.0,0.0,0.0,0.0,0.0,0.0,0.0,0.0,0.0,0.0,0.0,0.0,0.0,0.0,0.0,0.0,0.0,0.0,0.0,0.0,0.0,0.0,0.0,0.0,0.0,0.0,0.0,0.0,0.0,0.0,0.0,0.0,-0.2593,-0.2564,-0.2538,-0.2517,-0.2514,-0.1885,-0.0314,0.095,0.2243,0.357,0.0,0.0,0.0,0.0,0.0,0.0,0.0,0.0,0.0,0.0,0.0,0.0,0.0,0.0,0.0,0.0,0.0,0.0,0.0,0.0,0.0,0.0,0.0,0.0,0.0,0.0,0.0,0.0,0.0,0.0,0.0,0.0,0.0,0.0,0.0,0.0,0.0,0.0,0.0,0.0,0.0,0.0,0.0,0.0,0.0,0.0,0.0,0.0,0.0,0.0,0.0,0.0,0.0,0.0,0.0,0.0,0.0,0.0,0.0,0.0,0.0,0.0,0.0,0.0,0.0,0.0,0.0,0.0,0.0,0.0,0.0,0.0,0.0,0.0,0.0,0.0,0.0,0.0,0.0,0.0,0.0,0.0,0.0,0.0,0.0,0.0,0.0,0.0,0.0,0.0,0.0,0.0,0.0,0.0,0.0,0.0,0.0,0.0,0.0,0.0,0.0,0.0,-0.2622,-0.2585,-0.2553,-0.2534,-0.2522,-0.2199,-0.1256,0.0796,0.2414,0.3246,0.0,0.0,0.0,0.0,0.0,0.0,0.0,0.0,0.0,0.0,0.0,0.0,0.0,0.0,0.0,0.0,0.0,0.0,0.0,0.0,0.0,0.0,0.0,0.0,0.0,0.0,0.0,0.0,0.0,0.0,0.0,0.0,0.0,0.0,0.0,0.0,0.0,0.0,0.0,0.0,0.0,0.0,0.0,0.0,0.0,0.0,0.0,0.0,0.0,0.0,0.0,0.0,0.0,0.0,0.0,0.0,0.0,0.0,0.0,0.0,0.0,0.0,0.0,0.0,0.0,0.0,0.0,0.0,0.0,0.0,0.0,0.0,0.0,0.0,0.0,0.0,0.0,0.0,0.0,0.0,0.0,0.0,0.0,0.0,0.0,0.0,0.0,0.0,0.0,0.0,0.0,0.0,0.0,0.0,0.0,0.0,0.0,0.0,0.0,0.0,0.0,0.0,-0.2647,-0.2601,-0.2566,-0.256,-0.2534,-0.2359,-0.1886,0.1599,0.3725,0.3406,0.0,0.0,0.0,0.0,0.0,0.0,0.0,0.0,0.0,0.0,0.0,0.0,0.0,0.0,0.0,0.0,0.0,0.0,0.0,0.0,0.0,0.0,0.0,0.0,0.0,0.0,0.0,0.0,0.0,0.0,0.0,0.0,0.0,0.0,0.0,0.0,0.0,0.0,0.0,0.0,0.0,0.0,0.0,0.0,0.0,0.0,0.0,0.0,0.0,0.0,0.0,0.0,0.0,0.0,0.0,0.0,0.0,0.0,0.0,0.0,-1.2594,-1.2656,0.0,0.0,0.0,0.0,0.0,0.0,0.0,0.0,0.0,0.0,0.0,0.0,0.0,0.0,0.0,0.0,0.0,0.0,0.0,0.0,0.0,0.0,0.0,0.0,0.0,0.0,0.0,0.0,0.0,0.0,0.0,0.0,0.0,0.0,0.0,0.0,0.0,0.0,0.0,0.0,-0.265,-0.2637,-0.2611,-0.2564,-0.2553,-0.2381,-0.1887,0.0159,0.1927,0.3242,0.5423,0.0,0.0,0.0,0.0,0.0,0.0,0.0,0.0,0.0,0.0,0.0,0.0,0.0,0.0,0.0,0.0,0.0,0.0,0.0,0.0,0.0,0.0,0.0,0.0,0.0,0.0,0.0,0.0,0.0,0.0,0.0,0.0,0.0,0.0,0.0,0.0,0.0,0.0,0.0,0.0,0.0,0.0,0.0,0.0,0.0,0.0,0.0,0.0,0.0,0.0,0.0,0.0,0.0,0.0,0.0,0.0,0.0,0.0,0.0,-1.2467,-1.2501,0.0,0.0,0.0,0.0,0.0,0.0,0.0,0.0,0.0,0.0,0.0,0.0,0.0,0.0,0.0,0.0,0.0,0.0,0.0,0.0,0.0,0.0,0.0,0.0,0.0,0.0,0.0,0.0,0.0,0.0,0.0,0.0,0.0,0.0,0.0,0.0,0.0,0.0,0.0,0.0,-0.2671,-0.2656,-0.2635,-0.2605,-0.2416,-0.2079,-0.1599,0.0957,0.3043,0.4214,0.6721,0.0,0.0,0.0,0.0,0.0,0.0,0.0,0.0,0.0,0.0,0.0,0.0,0.0,0.0,0.0,0.0,0.0,0.0,0.0,0.0,0.0,0.0,0.0,0.0,0.0,0.0,0.0,0.0,0.0,0.0,0.0,0.0,0.0,0.0,0.0,0.0,0.0,0.0,0.0,0.0,0.0,0.0,0.0,0.0,0.0,0.0,0.0,0.0,0.0,0.0,0.0,0.0,0.0,-1.2811,-1.2656,-1.2965,-1.2656,-1.2501,-1.2501,-1.2501,-1.2501,-1.2501,-1.2501,0.0,0.0,0.0,0.0,0.0,0.0,0.0,0.0,0.0,0.0,0.0,0.0,0.0,0.0,0.0,0.0,0.0,0.0,0.0,0.0,0.0,0.0,-0.2692,-0.2692,-0.2692,-0.2692,-0.2692,0.0,0.0,0.0,0.0,0.0,0.0,0.0,0.0,0.0,0.0,0.0,-0.2692,-0.2671,-0.2653,-0.2647,-0.2116,-0.1612,-0.0973,0.257,0.4968,0.5656,0.8838,1.0558,0.0,0.0,0.0,0.0,0.0,0.0,0.0,0.0,0.0,0.0,0.0,0.0,0.0,0.0,0.0,0.0,0.0,0.0,0.0,0.0,0.0,0.0,0.0,0.0,0.0,0.0,0.0,0.0,0.0,0.0,0.0,0.0,-1.4039,-1.3904,0.0,0.0,0.0,0.0,0.0,0.0,0.0,0.0,0.0,0.0,0.0,0.0,0.0,-1.359,-1.312,-1.312,-1.2965,-1.2656,-1.2501,-1.2501,-1.2656,-1.2501,-1.2501,-1.2501,-1.2501,0.0,-1.2501,-1.2501,0.0,0.0,0.0,0.0,0.0,0.0,0.0,0.0,0.0,0.0,0.0,0.0,0.0,0.0,0.0,0.0,0.0,0.0,0.0,0.0,0.0,0.0,-0.2692,-0.2692,-0.2692,-0.2692,0.0,-0.2692,-0.2692,-0.2692,-0.2692,-0.2692,0.0,0.0,0.0,0.0,0.0,0.0,-0.2692,-0.2688,-0.2676,-0.265,-0.2309,-0.1144,0.0641,0.322,0.5319,0.7194,0.9455,1.0558,1.0558,1.0568,0.0,0.0,0.0,0.0,0.0,0.0,0.0,0.0,0.0,0.0,0.0,0.0,0.0,0.0,0.0,0.0,0.0,0.0,0.0,0.0,0.0,0.0,0.0,0.0,0.0,0.0,0.0,0.0,0.0,-1.4608,-1.3904,-1.3904,-1.3904,-1.3945,0.0,0.0,0.0,0.0,0.0,0.0,0.0,0.0,0.0,-1.3428,-1.312,-1.2965,-1.2811,-1.2811,-1.2656,-1.2501,-1.2501,-1.2501,-1.2501,-1.2501,-1.2501,-1.2501,-1.2501,-1.2501,-1.2501,-1.2501,-1.2501,-1.2347,0.0,0.0,0.0,0.0,-0.8604,-0.8292,-0.6733,-0.6108,-0.6108,-0.6108,0.0,0.0,0.0,0.0,0.0,0.0,0.0,-0.2692,0.0,0.0,-0.2692,-0.2692,-0.2692,-0.2692,-0.2692,-0.2692,-0.2692,-0.2692,-0.2692,-0.2692,-0.2692,-0.2692,0.0,0.0,0.0,-0.2692,-0.2692,-0.2692,-0.2687,-0.2673,-0.2325,-0.1155,0.115,0.3258,0.5515,0.7637,0.9514,1.0558,1.0558,1.0558,1.0525,0.0,0.0,0.0,0.0,0.0,0.0,0.0,0.0,0.0,0.0,0.0,0.0,0.0,0.0,0.0,0.0,0.0,0.0,0.0,0.0,0.0,0.0,0.0,0.0,0.0,0.0,0.0,0.0,-1.4181,-1.3904,-1.3904,-1.3904,-1.3977,0.0,0.0,0.0,0.0,0.0,0.0,-1.3398,-1.3055,-1.2965,-1.2965,-1.2656,-1.2481,-1.2447,-1.2447,-1.2447,-1.2447,-1.2447,-1.2467,-1.2501,-1.2501,-1.2501,-1.2501,-1.2501,-1.2192,-1.1876,-1.2347,-1.2192,-1.1721,-1.0474,-0.9692,-0.9226,-0.7513,-0.6889,-0.6577,-0.5014,-0.439,-0.4393,-0.4407,-0.4481,-0.4567,-0.4567,0.0,0.0,0.0,0.0,-0.2692,-0.2692,-0.2692,-0.2692,-0.2692,-0.2692,-0.2692,-0.2692,-0.2692,-0.2692,0.0,-0.2692,-0.2692,-0.2692,-0.2692,0.0,-0.2692,-0.2692,-0.2692,-0.2692,-0.2692,-0.2692,-0.2692,-0.2338,-0.0998,0.1671,0.3464,0.573,0.8371,0.9907,1.0574,1.0514,1.0514,1.046,1.034,0.0,0.0,0.0,0.0,0.0,0.0,0.0,0.0,0.0,0.0,0.0,0.0,0.0,0.0,0.0,0.0,0.0,0.0,0.0,0.0,0.0,0.0,0.0,0.0,0.0,0.0,0.0,0.0,0.0,-1.3904,-1.3904,0.0,0.0,0.0,0.0,-1.4073,-1.3778,-1.3568,-1.3105,-1.2804,-1.2501,-1.2501,-1.2501,-1.2433,-1.2305,-1.2298,-1.2298,-1.2298,-1.2298,-1.2372,-1.2501,-1.2501,-1.2501,-1.2501,-1.2501,-1.1566,-1.0319,-1.1876,-1.1566,-1.0164,-1.0008,-0.9071,-0.7357,-0.5796,-0.517,-0.4857,-0.314,-0.2671,-0.2677,-0.2707,-0.2759,-0.281,-0.281,-0.2667,0.0,0.0,-0.2692,-0.2692,-0.2692,-0.2692,-0.2692,-0.2692,-0.2692,-0.2692,-0.2692,-0.2692,-0.2692,0.0,-0.2692,-0.2692,-0.2692,0.0,-0.2692,-0.2692,-0.2692,-0.2692,-0.2692,-0.2692,-0.2692,-0.2692,-0.2355,-0.0502,0.3304,0.4329,0.6308,1.0082,1.0606,1.0628,1.0405,1.0394,1.0335,1.0215,1.0095,0.0,0.0,0.0,0.0,0.0,0.0,0.0,0.0,0.0,0.0,0.0,0.0,0.0,0.0,0.0,0.0,0.0,0.0,0.0,0.0,0.0,0.0,0.0,0.0,0.0,0.0,0.0,0.0,-1.3904,-1.401,0.0,-1.4326,-1.3956,-1.3664,-1.3785,-1.3151,-1.2713,-1.2656,-1.2656,-1.2501,-1.2501,-1.2413,-1.2386,-1.2427,-1.2237,-1.2237,-1.2427,-1.2332,-1.2366,-1.2501,-1.2501,-1.1876,-1.094,-1.094,-1.0008,-0.8448,-0.9071,-0.8915,-0.8292,-0.7197,-0.642,-0.5639,-0.4079,-0.3452,-0.3297,-0.2671,-0.2514,-0.2522,-0.2571,-0.2615,-0.265,-0.2671,-0.2684,-0.2692,-0.2692,-0.2692,-0.2692,-0.2692,-0.2692,-0.2692,-0.2692,-0.2692,-0.2692,-0.2692,-0.2692,-0.2692,-0.2692,-0.2692,-0.2692,-0.2692,-0.2692,-0.2692,-0.2692,-0.2692,-0.2692,-0.2692,-0.2692,-0.2692,-0.2692,-0.2524,-0.0671,0.3501,0.4182,0.6016,1.0282,1.0688,1.0699,1.0617,1.0465,1.0367,1.0324,1.0123,1.0079,0.0,0.0,0.0,0.0,0.0,0.0,0.0,0.0,0.0,0.0,0.0,0.0,0.0,0.0,0.0,0.0,0.0,0.0,0.0,0.0,0.0,0.0,0.0,0.0,0.0,-1.4181,-1.3904,-1.3904,-1.401,-1.4156,-1.4179,-1.3613,-1.3282,-1.3406,-1.2726,-1.2409,-1.2352,-1.2352,-1.2352,-1.2352,-1.2264,-1.2257,-1.2352,-1.2155,-1.2189,-1.2427,-1.2332,-1.2366,-1.2501,-1.2501,-1.1876,-1.0785,-1.0319,-0.9071,-0.7513,-0.6889,-0.6264,-0.5799,-0.517,-0.4701,-0.4077,-0.2983,-0.2514,-0.2515,-0.2526,-0.2536,-0.2552,-0.2601,-0.2638,-0.2667,-0.2686,-0.2692,-0.2692,-0.2692,-0.2692,-0.2692,-0.2692,-0.2692,-0.2692,-0.2692,-0.2692,-0.2692,-0.2692,-0.2692,-0.2692,-0.2692,-0.2692,-0.2692,-0.2692,-0.2692,-0.2692,-0.2692,-0.2692,-0.2692,-0.2692,-0.2692,-0.2692,-0.2692,-0.2692,-0.1176,0.2515,0.3521,0.5533,0.9388,1.0232,1.0721,1.0677,1.0525,1.0427,1.0389,1.0188,1.0144,1.0264,0.0,0.0,0.0,0.0,0.0,0.0,0.0,0.0,0.0,0.0,0.0,0.0,0.0,0.0,0.0,0.0,0.0,0.0,0.0,0.0,0.0,0.0,0.0,-1.3904,-1.3904,-1.3904,-1.3904,-1.3904,-1.3834,-1.3574,-1.3597,-1.3374,-1.2799,-1.2657,-1.2508,-1.206,-1.2067,-1.2067,-1.206,-1.2067,-1.2067,-1.2067,-1.206,-1.2142,-1.2298,-1.2291,-1.2366,-1.2494,-1.2501,-1.2501,-1.234,-1.063,-0.9071,-0.7357,-0.5796,-0.4077,-0.2671,-0.4234,-0.3922,-0.2514,-0.2514,-0.2515,-0.2519,-0.2549,-0.2578,-0.2608,-0.2638,-0.2668,-0.2692,-0.2692,-0.2692,-0.2692,-0.2692,-0.2692,-0.2692,-0.2692,-0.2692,-0.2692,-0.2692,-0.2692,-0.2692,-0.2692,-0.2692,-0.2692,-0.2692,-0.2692,-0.2692,-0.2692,-0.2692,-0.2692,-0.2692,-0.2692,0.0,-0.2692,-0.2692,-0.2692,-0.2692,-0.2692,-0.1849,0.0503,0.2683,0.503,0.7208,0.9559,1.0683,1.0568,1.0558,1.0503,1.0389,1.0269,1.0269,1.0384,0.0,0.0,0.0,0.0,0.0,0.0,0.0,0.0,0.0,0.0,0.0,0.0,0.0,0.0,0.0,0.0,0.0,0.0,0.0,0.0,0.0,-1.4466,-1.3904,-1.3904,-1.3904,-1.3904,-1.3904,-1.4018,-1.3978,-1.359,-1.3412,-1.3208,-1.2657,-1.2359,-1.221,-1.206,-1.2169,-1.2176,-1.2067,-1.2169,-1.223,-1.223,-1.2121,-1.2189,-1.244,-1.2338,-1.2311,-1.2352,-1.2454,-1.1818,-1.0491,-1.0125,-0.8292,-0.5796,-0.6577,-0.5173,-0.2514,-0.2983,-0.2983,-0.2514,-0.2514,-0.2529,-0.2548,-0.2557,-0.2593,-0.2635,-0.2645,-0.2668,-0.2692,-0.2692,-0.2692,-0.2692,-0.2692,-0.2692,-0.2692,-0.2692,-0.2692,-0.2692,-0.2692,-0.2692,-0.2692,-0.2692,-0.2692,-0.2692,-0.2692,-0.2692,-0.2692,-0.2692,-0.2692,-0.2692,-0.2692,-0.2692,0.0,-0.2692,-0.2692,-0.2692,-0.2692,-0.2692,-0.1849,0.0503,0.2683,0.503,0.7208,0.9559,1.0721,1.0688,1.0601,1.0503,1.0389,1.0351,1.0351,0.0,0.0,0.0,0.0,0.0,0.0,0.0,0.0,0.0,0.0,0.0,0.0,0.0,0.0,0.0,0.0,0.0,0.0,0.0,0.0,0.0,0.0,-1.4324,-1.3904,-1.3904,-1.3904,-1.3904,-1.3904,-1.3993,-1.3914,-1.3336,-1.3137,-1.2751,-1.2318,-1.2024,-1.1877,-1.1877,-1.1959,-1.1993,-1.1965,-1.2054,-1.2162,-1.2291,-1.2203,-1.2244,-1.2413,-1.2393,-1.2345,-1.2298,-1.2433,-1.1985,-1.0827,-1.0285,-0.8915,-0.7041,-0.7357,-0.5955,0.0,0.0,0.0,0.0,0.0,-0.2533,-0.2562,-0.2574,-0.2608,-0.2649,-0.2662,-0.2677,-0.2692,-0.2692,-0.2692,-0.2692,-0.2692,-0.2692,-0.2692,-0.2692,-0.2692,-0.2692,-0.2692,-0.2692,-0.2692,-0.2692,-0.2692,-0.2692,-0.2692,-0.2692,0.0,-0.2692,-0.2692,-0.2692,-0.2692,-0.2692,-0.2692,-0.2692,-0.2692,-0.2692,-0.2692,-0.2692,-0.2187,-0.084,0.1846,0.0,0.0,0.0,1.0237,1.0737,1.0666,0.0,0.0,0.0,1.0454,1.0454,1.0411,0.0,0.0,1.0259,1.0231,0.0,0.0,0.0,0.0,0.0,0.0,0.0,0.0,0.0,0.0,0.0,0.0,0.0,0.0,0.0,0.0,-1.4324,-1.3904,-1.3904,-1.3904,-1.3904,-1.3904,-1.3904,-1.3611,-1.2896,-1.2896,-1.2466,-1.1763,-1.1619,-1.1626,-1.164,-1.166,0.0,0.0,0.0,-1.2033,-1.2291,-1.2305,-1.2318,-1.2318,-1.244,-1.242,-1.2271,-1.2427,-1.2481,-1.23,-1.0928,-1.0164,-0.9853,-0.8604,-0.6889,-0.517,-0.4857,-0.3766,-0.2515,-0.2518,-0.2538,-0.2568,-0.2597,0.0,0.0,-0.2684,-0.2692,-0.2692,-0.2692,-0.2692,-0.2692,-0.2692,-0.2692,-0.2692,-0.2692,-0.2692,-0.2692,-0.2692,-0.2692,-0.2692,-0.2692,-0.2692,-0.2692,-0.2692,-0.2692,-0.2692,-0.2692,-0.2692,-0.2692,-0.2692,-0.2692,-0.2692,-0.2692,-0.2692,-0.2692,-0.2692,0.0,0.0,-0.2692,0.0504,0.2852,0.3858,0.755,0.9903,1.0737,1.0737,1.0737,1.0737,1.0628,1.0574,1.0574,1.0476,1.0427,1.0422,1.0286,1.028,0.0,0.0,0.0,0.0,0.0,0.0,0.0,0.0,0.0,0.0,0.0,0.0,0.0,0.0,0.0,-1.5026,-1.4324,-1.3904,-1.3904,-1.3904,-1.3904,-1.3904,-1.3904,-1.3753,-1.3182,-1.3182,-1.2896,-1.2194,-1.2051,-1.1963,-1.1782,-1.1904,-1.1993,-1.2013,-1.225,-1.2345,-1.2291,-1.2406,-1.2461,-1.2461,-1.2488,0.0,-1.2115,-1.2379,-1.2372,-1.2162,-1.2086,-1.1256,-1.0008,-1.1095,-0.9692,-0.6733,-0.4079,-0.2828,-0.2518,-0.2542,-0.257,-0.2598,-0.2628,-0.2658,-0.2684,-0.2691,-0.2692,-0.2692,-0.2692,-0.2692,0.0,-0.2692,-0.2692,-0.2692,-0.2692,-0.2692,-0.2692,-0.2692,-0.2692,-0.2692,-0.2692,-0.2692,-0.2692,-0.2692,-0.2692,-0.2692,-0.2692,-0.2692,-0.2692,-0.2692,-0.2692,-0.2692,-0.2692,-0.2692,-0.2692,-0.2692,-0.2692,-0.2692,-0.2692,-0.0336,0.1845,0.3858,0.8048,1.057,1.0737,1.0737,1.0737,1.0737,1.0715,1.0704,1.0704,1.0677,1.0672,1.0666,1.0449,1.0362,0.0,0.0,0.0,0.0,0.0,0.0,0.0,0.0,0.0,0.0,0.0,-1.7731,-1.7308,0.0,-1.5461,-1.5026,-1.4324,-1.3904,-1.3904,-1.3904,-1.3904,-1.3904,-1.3904,-1.3761,-1.3325,-1.3403,-1.3169,-1.2308,-1.2379,-1.2311,-1.1945,-1.1945,-1.202,-1.2169,-1.2244,-1.2284,-1.2291,-1.2433,-1.2386,-1.2169,-1.2325,-1.2277,-1.2067,-1.2291,-1.2352,-1.2291,-1.244,-1.203,-1.1256,-1.0319,-0.9071,-0.7201,-0.3766,-0.2514,-0.2518,-0.2548,-0.2578,-0.2605,-0.2637,-0.2667,-0.2692,-0.2692,-0.2692,-0.2692,-0.2692,-0.2692,-0.2692,-0.2692,-0.2692,-0.2692,-0.2692,-0.2692,-0.2692,-0.2692,-0.2692,-0.2692,-0.2692,-0.2692,-0.2692,-0.2692,-0.2692,-0.2692,-0.2692,-0.2692,-0.2692,-0.2692,-0.2692,-0.2692,-0.2692,-0.2692,-0.2692,-0.2692,-0.2692,-0.2692,-0.2692,0.0336,0.3186,0.4863,0.8549,1.0737,1.0737,1.0737,1.0737,1.0737,1.0737,1.0737,1.0737,1.0737,1.0737,1.0732,1.0617,1.0563,0.0,0.0,0.0,0.0,0.0,0.0,0.0,-1.8993,-1.8854,-1.8433,-1.8293,-1.8012,-1.7449,-1.6744,-1.5895,-1.5168,-1.4466,-1.4039,-1.3896,-1.3937,-1.3953,-1.3953,-1.392,-1.3769,-1.3515,-1.3625,-1.3421,-1.2604,-1.2676,-1.2607,-1.2101,-1.1959,-1.202,-1.2325,-1.2182,-1.2169,-1.2291,-1.2372,-1.2237,-1.1877,-1.2306,-1.2361,-1.2067,-1.225,-1.2379,-1.2461,-1.2488,-1.2501,-1.2192,-0.8915,-0.7513,-0.7205,-0.3776,-0.2523,-0.2527,-0.2557,-0.2586,-0.2615,-0.2645,-0.2672,-0.2692,-0.2692,-0.2692,-0.2692,-0.2692,-0.2692,-0.2692,-0.2692,-0.2692,-0.2692,-0.2692,-0.2692,-0.2692,-0.2692,-0.2692,-0.2692,-0.2692,-0.2692,-0.2692,-0.2692,-0.2692,-0.2692,-0.2692,-0.2692,-0.2692,-0.2692,-0.2692,-0.2692,-0.2692,-0.2692,-0.2692,-0.2692,-0.2692,-0.2692,-0.2692,0.1342,0.4528,0.5533,0.8887,1.0737,1.0737,1.0737,1.0737,1.0737,1.0737,1.0737,1.0737,1.0737,1.0737,1.0737,1.0737,1.0737,-2.9447,-2.7286,-2.5128,-2.4288,-2.1984,-1.968,0.0,-1.8714,-1.8433,-1.8433,-1.7872,-1.7449,-1.7308,-1.6744,-1.5895,-1.5168,-1.4884,-1.4608,-1.4039,-1.4042,-1.4148,-1.4148,-1.4002,-1.3969,-1.4131,-1.4018,-1.3633,-1.3208,-1.2969,-1.2714,-1.2244,-1.2121,-1.2176,-1.2467,-1.2338,-1.2271,-1.2291,-1.247,-1.2387,-1.204,-1.2656,-1.2656,-1.2074,-1.2352,-1.242,-1.2318,-1.2447,-1.2501,-1.2192,-0.8915,-0.7513,-0.7209,-0.3811,-0.2555,-0.2557,-0.2586,-0.2616,-0.2646,-0.2676,-0.269,-0.2692,-0.2692,-0.2692,-0.2692,-0.2692,-0.2692,-0.2692,-0.2692,-0.2692,-0.2692,-0.2692,-0.2692,-0.2692,-0.2692,-0.2692,-0.2692,-0.2692,-0.2692,-0.2692,-0.2692,-0.2692,-0.2692,-0.2692,-0.2692,-0.2692,-0.2692,-0.2692,-0.2692,-0.2692,-0.2692,-0.2692,-0.2692,-0.2692,-0.2692,-0.2692,0.1342,0.4025,0.4193,0.8215,1.0737,1.0737,1.0737,1.0737,1.0737,1.0737,1.0737,1.0737,1.0737,1.0737,1.0737,1.0737,1.0737,-2.8757,-2.6753,-2.4738,-2.376,-2.1872,-2.011,-1.9541,-1.9262,-1.8993,-1.8433,-1.8153,-1.7872,-1.7872,-1.7026,-1.6037,-1.5744,-1.4893,-1.4223,-1.4042,-1.4131,-1.4213,-1.431,-1.4261,-1.4237,-1.4318,-1.4164,-1.3921,-1.3672,-1.3565,-1.3469,-1.3166,-1.3029,-1.3,-1.313,-1.2835,-1.2863,-1.277,-1.294,-1.2755,-1.2227,-1.2529,-1.262,-1.2196,-1.2325,-1.2393,-1.242,-1.2474,-1.1876,-1.0785,-0.8448,-0.6889,-0.5802,-0.3499,-0.257,-0.2587,-0.2617,-0.2637,-0.2652,-0.2682,-0.2692,-0.2692,-0.2692,-0.2692,-0.2692,-0.2692,-0.2692,-0.2692,-0.2692,-0.2692,-0.2692,-0.2692,-0.2692,-0.2692,-0.2692,-0.2692,-0.2692,-0.2692,-0.2692,-0.2692,-0.2692,-0.2692,-0.2692,-0.2692,-0.2692,-0.2692,-0.2692,-0.2692,-0.2692,-0.2692,-0.2692,-0.2692,-0.2692,-0.2692,-0.2692,-0.2692,0.0504,0.235,0.235,0.5703,0.8052,0.9226,0.9226,0.9726,1.0737,1.0737,1.0737,1.0737,1.0737,1.0737,1.0737,1.0737,1.0737,-2.8081,-2.6337,-2.4602,-2.3229,-2.1609,-2.0388,-1.9831,-1.9541,-1.9262,-1.8714,-1.8433,-1.8433,-1.8433,-1.7642,-1.6813,-1.6613,-1.556,-1.4652,-1.4455,-1.4408,-1.4367,-1.4497,-1.4505,-1.4529,-1.4578,-1.4375,-1.4252,-1.415,-1.408,-1.3976,-1.3729,-1.358,-1.3513,-1.3558,-1.3401,-1.326,-1.314,-1.3363,-1.3045,-1.2486,-1.2791,-1.2634,-1.2291,-1.2332,-1.2406,-1.2501,-1.2501,-1.1566,-0.9853,-0.8136,-0.6591,-0.4886,-0.3196,-0.2589,-0.2617,-0.2649,-0.266,-0.2662,-0.2684,-0.2692,-0.2692,-0.2692,-0.2692,-0.2692,-0.2692,-0.2692,-0.2692,-0.2692,-0.2692,-0.2692,-0.2692,-0.2692,-0.2692,-0.2692,-0.2692,-0.2692,-0.2692,-0.2692,-0.2692,-0.2692,-0.2692,-0.2692,-0.2692,-0.2692,-0.2692,-0.2692,-0.2692,-0.2692,-0.2692,-0.2692,-0.2692,-0.2692,-0.2524,-0.2524,-0.2524,0.0,0.1512,0.1512,0.4027,0.6041,0.7379,0.7885,0.872,0.9898,1.0404,1.0737,1.0737,1.0737,1.0737,1.0737,1.0737,1.0737,-2.77,-2.6084,-2.4602,-2.3229,-2.1471,-2.011,-2.011,-1.9552,-1.8993,-1.8982,-1.8714,-1.8433,-1.8433,-1.8616,-1.8418,-1.748,-1.6942,-1.6406,-1.5351,-1.4918,-1.4692,-1.47,-1.47,-1.4765,-1.4935,-1.4627,-1.4428,-1.433,-1.4041,-1.3845,-1.3722,-1.358,-1.3565,-1.3729,-1.3573,-1.3483,-1.3476,-1.3768,-1.3542,-1.2657,-1.3258,-1.3036,-1.2298,-1.2433,-1.2501,-1.2501,-1.2501,-1.1566,-0.9853,-0.8136,-0.6623,-0.495,-0.3234,-0.2619,-0.2649,-0.268,-0.2691,-0.2691,-0.2692,-0.2692,-0.2692,-0.2692,-0.2692,-0.2692,-0.2692,-0.2692,-0.2692,-0.2692,-0.2692,-0.2692,-0.2692,-0.2692,-0.2692,-0.2692,-0.2692,-0.2692,-0.2692,-0.2692,-0.2692,-0.2692,-0.2692,-0.2692,-0.2692,-0.2692,-0.2692,-0.2692,-0.2692,-0.2692,-0.2692,-0.2692,-0.2692,-0.2692,-0.2356,-0.2018,-0.2018,0.0504,0.2016,0.2016,0.4197,0.5371,0.5538,0.7212,0.8052,0.8219,0.9898,1.0737,1.0737,1.0737,1.0737,1.0737,1.0737,1.0737,-2.6737,-2.5532,-2.4467,-2.2022,-2.0931,-2.0388,-2.011,-1.997,-1.9692,-1.9401,-1.9122,-1.8898,-1.8921,-1.8449,-1.795,-1.7867,-1.6844,-1.5928,-1.5703,-1.5077,-1.4749,-1.4862,-1.4879,-1.4903,-1.496,-1.4643,-1.4578,-1.479,-1.4597,-1.4366,-1.4334,-1.4286,-1.4176,-1.4003,-1.405,-1.4019,-1.3909,-1.4112,-1.4042,-1.3567,-1.358,-1.3509,-1.3202,-1.3252,-1.3274,-1.3274,-1.2965,-1.125,-0.8599,-0.7884,-0.5877,-0.3363,-0.2775,-0.2638,-0.265,-0.2682,-0.2692,-0.2692,-0.2692,-0.2692,-0.2692,-0.2692,-0.2692,-0.2692,-0.2692,-0.2692,-0.2692,-0.2692,-0.2692,-0.2692,-0.2692,-0.2692,-0.2692,-0.2692,-0.2692,-0.2692,-0.2692,-0.2692,-0.2692,-0.2692,-0.2692,-0.2692,-0.2692,-0.2692,-0.2692,-0.2692,-0.2692,-0.2692,-0.2692,-0.2356,-0.2188,-0.2188,-0.185,-0.1514,-0.1514,-0.0505,0.0168,0.0168,0.1178,0.2354,0.3528,0.5371,0.6878,0.8052,0.9731,1.0737,1.0737,1.0737,1.0737,1.0737,1.0737,1.0737,-2.6988,-2.6203,-2.5263,-2.216,-2.1484,-2.1207,-2.0527,-2.0249,-1.997,-1.9831,-1.9481,-1.9171,-1.9337,-1.8784,-1.8332,-1.8394,-1.7507,-1.6582,-1.6346,-1.5664,-1.5142,-1.4952,-1.4968,-1.4968,-1.4968,-1.4757,-1.4716,-1.4952,-1.4862,-1.4773,-1.4716,-1.4708,-1.457,-1.4278,-1.444,-1.4481,-1.4367,-1.4538,-1.4533,-1.4197,-1.3846,-1.3744,-1.3744,-1.3744,-1.3744,-1.359,-1.2649,-1.0647,-0.8024,-0.7141,-0.5128,-0.2594,-0.2632,-0.2653,-0.2665,-0.2686,-0.2692,-0.2692,-0.2692,-0.2692,-0.2692,-0.2692,-0.2692,-0.2692,-0.2692,-0.2692,-0.2692,-0.2692,-0.2692,-0.2692,-0.2692,-0.2692,-0.2692,-0.2692,-0.2692,-0.2692,-0.2692,-0.2692,-0.2692,-0.2692,-0.2692,-0.2692,-0.2692,-0.2692,-0.2692,-0.2692,-0.2692,-0.2692,-0.2692,-0.2356,-0.2018,-0.2018,-0.1515,-0.101,-0.101,-0.0674,-0.0505,-0.0505,-0.0168,0.0505,0.1682,0.3528,0.5371,0.7045,0.8892,1.0065,1.0737,1.0737,1.0737,1.0737,1.0737,1.0737,-2.8328,-2.7668,-2.6988,-2.376,-2.2819,-2.2421,-2.1069,-2.0388,-2.011,-2.011,-1.9758,-1.9371,-1.9382,-1.9479,-1.9424,-1.9219,-1.8808,-1.825,-1.7292,-1.6527,-1.588,-1.5122,-1.4968,-1.4968,-1.4968,-1.4968,-1.496,-1.4952,-1.4952,-1.4879,-1.4708,-1.4684,-1.4603,-1.4424,-1.4594,-1.47,-1.4708,-1.4879,-1.4814,-1.4361,-1.4053,-1.3737,-1.3737,-1.3737,-1.3737,-1.3428,-1.156,-0.9594,-0.7957,-0.5899,-0.4048,-0.2647,-0.2649,-0.2667,-0.2692,-0.2692,-0.2692,-0.2692,-0.2692,-0.2692,-0.2692,-0.2692,-0.2692,-0.2692,-0.2692,-0.2692,-0.2692,-0.2692,-0.2692,-0.2692,-0.2692,-0.2692,-0.2692,-0.2692,-0.2692,-0.2692,-0.2692,-0.2692,-0.2692,-0.2692,-0.2692,-0.2692,-0.2692,-0.2692,-0.2692,-0.2692,-0.2692,-0.2692,-0.2692,-0.2188,-0.2018,-0.2018,-0.1179,-0.0674,-0.0674,-0.0337,0.0,0.0,0.0,0.0,0.0,0.1681,0.3528,0.5371,0.7212,0.8892,1.0737,1.0737,1.0737,1.0737,1.0737,1.0737,-2.8854,-2.8065,-2.727,-2.5248,-2.376,-2.2682,-2.2421,-2.1333,-2.0527,-2.0527,-2.018,-1.9844,-2.0025,-1.9735,-1.9531,-1.965,-1.9005,-1.8299,-1.7483,-1.6608,-1.588,-1.5122,-1.4968,-1.4968,-1.4968,-1.4968,-1.4911,-1.4781,-1.4773,-1.4692,-1.4513,-1.4383,-1.4294,-1.4245,-1.4408,-1.457,-1.4708,-1.4879,-1.4968,-1.4814,-1.4661,-1.4661,-1.4661,-1.4661,-1.3876,-1.232,-1.1399,-0.9281,-0.6218,-0.5474,-0.4078,-0.2649,-0.2672,-0.2686,-0.2692,-0.2692,-0.2692,-0.2692,-0.2692,-0.2692,-0.2692,-0.2692,-0.2692,-0.2692,-0.2692,-0.2692,-0.2692,-0.2692,-0.2692,-0.2692,-0.2692,-0.2692,-0.2692,-0.2692,-0.2692,-0.2692,-0.2692,-0.2692,-0.2692,-0.2692,-0.2692,-0.2692,-0.2692,-0.2692,-0.2692,-0.2692,-0.2692,-0.2524,-0.2188,-0.185,-0.1346,-0.101,-0.0505,-0.0168,-0.0168,0.0,0.0,0.0,0.0,0.0,0.0,0.1681,0.3528,0.5371,0.7212,0.8892,1.0737,1.0737,1.0737,1.0737,1.0737,1.0737,-2.9805,-2.9151,-2.8345,-2.5935,-2.4588,-2.3365,-2.2147,-2.1207,-2.0702,-2.081,-2.0486,-2.0169,-2.042,-2.0081,-1.9693,-1.9822,-1.9542,-1.8774,-1.7559,-1.6876,-1.6241,-1.5105,-1.4903,-1.4879,-1.496,-1.4968,-1.4927,-1.483,-1.4749,-1.4627,-1.444,-1.4343,-1.4294,-1.4294,-1.4464,-1.4635,-1.4822,-1.4919,-1.4968,-1.4968,-1.4968,-1.4968,-1.4968,-1.4968,-1.3913,-1.1784,-1.0693,-0.8427,-0.5668,-0.4406,-0.3462,-0.2669,-0.2686,-0.2692,-0.2692,-0.2692,-0.2692,-0.2692,-0.2692,-0.2692,-0.2692,-0.2692,-0.2692,-0.2692,-0.2692,-0.2692,-0.2692,-0.2692,-0.2692,-0.2692,-0.2692,-0.2692,-0.2692,-0.2692,-0.2692,-0.2692,-0.2692,-0.2692,-0.2692,-0.2692,-0.2692,-0.2692,-0.2692,-0.2692,-0.2692,-0.2692,-0.2692,-0.2524,-0.185,-0.1514,-0.1178,-0.0674,-0.0337,0.0,0.0,0.0,0.0,0.0,0.0,0.0,0.0,0.101,0.2354,0.4197,0.6041,0.7718,0.9559,1.0398,1.0737,1.0737,1.0737,1.0737,-3.062,-3.0378,-2.9561,-2.6203,-2.5143,-2.4331,-2.1622,-2.0804,-2.0738,-2.1003,-2.0697,-2.0375,-2.0626,-2.028,-1.9844,-1.9844,-1.9844,-1.9239,-1.7711,-1.7227,-1.6578,-1.5097,-1.4814,-1.4773,-1.4952,-1.4968,-1.496,-1.4935,-1.4789,-1.4635,-1.4473,-1.444,-1.444,-1.4464,-1.4643,-1.4814,-1.496,-1.4968,-1.4968,-1.4968,-1.4968,-1.4968,-1.4968,-1.4838,-1.3671,-1.1591,-0.955,-0.7593,-0.5613,-0.3636,-0.2832,-0.2861,-0.2692,-0.2692,-0.2692,-0.2692,-0.2692,-0.2692,-0.2692,-0.2692,-0.2692,-0.2692,-0.2692,-0.2692,-0.2692,-0.2692,-0.2692,-0.2692,-0.2692,-0.2692,-0.2692,-0.2692,-0.2692,-0.2692,-0.2692,-0.2692,-0.2692,-0.2692,-0.2692,-0.2692,-0.2692,-0.2692,-0.2692,-0.2692,-0.2692,-0.2692,-0.2692,-0.2356,-0.1346,-0.1346,-0.1178,-0.0674,-0.0168,0.0,0.0,0.0,0.0,0.0,0.0,0.0,0.0,0.0,0.0842,0.2688,0.4533,0.6208,0.8052,0.9898,1.0737,1.0737,1.0737,1.0737,-3.0879,-3.062,-2.9839,-2.78,-2.6069,-2.4602,-2.2819,-2.1471,-2.0738,-2.1003,-2.0697,-2.0375,-2.0626,-2.028,-1.9844,-1.9844,-1.9844,-1.9239,-1.7711,-1.7227,-1.6578,-1.5097,-1.4814,-1.4773,-1.4952,-1.4968,-1.4903,-1.4765,-1.4724,-1.4692,-1.4659,-1.4513,-1.4505,-1.4651,-1.483,-1.4935,-1.4968,-1.4968,-1.4968,-1.4968,-1.4968,-1.4968,-1.4968,-1.4019,-1.2364,-1.0335,-0.9002,0.0,-0.5286,-0.4131,-0.3828,-0.37,-0.3029,-0.2692,-0.2692,-0.2692,-0.2692,-0.2692,-0.2692,-0.2692,-0.2692,-0.2692,-0.2692,-0.2692,-0.2692,-0.2692,-0.2692,-0.2692,-0.2692,-0.2692,-0.2692,-0.2692,-0.2692,-0.2692,-0.2692,-0.2692,-0.2692,-0.2692,-0.2692,-0.2692,-0.2692,-0.2692,-0.2692,-0.2692,-0.2692,-0.2692,-0.2692,-0.2356,-0.1346,-0.1346,-0.101,-0.0168,0.0,0.0,0.0,0.0,0.0,0.0,0.0,0.0,0.0,0.0,0.0842,0.2688,0.4533,0.6208,0.8052,0.9898,1.0737,1.0737,1.0737,1.0737,-3.075,-2.9952,-2.8757,-2.6737,-2.5128,-2.3502,-2.2022,-2.1319,-2.0943,-2.0924,-2.0752,-2.0569,-2.0523,-2.0219,-1.9844,-1.9844,-1.9844,-1.9239,-1.7711,-1.7227,-1.6578,-1.5097,-1.4814,-1.4773,-1.4952,-1.4968,-1.4927,-1.4846,-1.4838,-1.4806,-1.4716,-1.4708,-1.4749,-1.4838,-1.4919,-1.4968,-1.4968,-1.4968,-1.4968,-1.4968,-1.5065,-1.5106,-1.5114,-1.387,-1.2224,-1.0201,-0.8968,-0.7248,-0.5333,-0.4336,-0.4015,-0.3868,-0.3029,-0.2692,-0.2692,-0.2692,-0.2692,-0.2692,-0.2692,-0.2692,-0.2692,-0.2692,-0.2692,-0.2692,-0.2692,-0.2692,-0.2692,-0.2692,-0.2692,-0.2692,-0.2692,-0.2692,-0.2692,-0.2692,-0.2692,-0.2692,-0.2692,-0.2692,-0.2692,-0.2692,-0.2692,-0.2692,-0.2692,-0.2692,-0.2692,-0.2692,-0.2692,-0.2524,-0.1682,-0.1514,-0.101,-0.0168,0.0,0.0,0.0,0.0,0.0,0.0,0.0,0.0,0.0,0.0,0.0337,0.1346,0.4029,0.5873,0.671,0.9392,1.0737,1.0737,1.0737,1.0737,-3.049,-2.9282,-2.7535,-2.5547,-2.391,-2.2421,-2.1069,-2.0871,-2.1136,-2.097,-2.0793,-2.0751,-2.0703,-2.0296,-1.9844,-1.9844,-1.9844,-1.939,-1.7864,-1.734,-1.6674,-1.5395,-1.4933,-1.4732,-1.4944,-1.4968,-1.4968,-1.4968,-1.4968,-1.4903,-1.4773,-1.4895,-1.4968,-1.4968,-1.4968,-1.4984,-1.5025,-1.5025,-1.5041,-1.509,-1.5228,-1.5136,-1.4829,-1.372,-1.2075,-1.0203,-0.8925,-0.7327,-0.5544,-0.4707,-0.4204,-0.3868,-0.3029,-0.2692,-0.2692,-0.2692,-0.2692,-0.2692,-0.2692,-0.2692,-0.2692,-0.2692,-0.2692,-0.2692,-0.2692,-0.2692,-0.2692,-0.2692,-0.2692,-0.2692,-0.2692,-0.2692,-0.2692,-0.2692,-0.2692,-0.2692,-0.2692,-0.2692,-0.2692,-0.2692,-0.2692,-0.2692,-0.2692,-0.2692,-0.2692,-0.2692,-0.2692,-0.2524,-0.2018,-0.1682,-0.1178,-0.0168,0.0,0.0,0.0,0.0,0.0,0.0,0.0,0.0,0.0,0.0,0.0,0.0,0.3528,0.5371,0.5371,0.8892,1.0737,1.0737,1.0737,1.0737,-3.0508,-2.9151,-2.727,-2.5412,-2.391,-2.2421,-2.1069,-2.0871,-2.1136,-2.1414,-2.1085,-2.0751,-2.1014,-2.0458,-1.9844,-1.9844,-1.9844,-1.9542,-1.8623,-1.7514,-1.6666,-1.6142,-1.511,-1.4594,-1.4935,-1.4968,-1.4968,-1.4968,-1.4968,-1.496,-1.4944,-1.496,-1.4968,-1.4968,-1.4968,-1.5049,-1.5212,-1.5212,-1.5301,-1.5463,-1.548,-1.4844,-1.3568,-1.243,-1.1195,-0.9738,-0.8676,-0.755,0.0,-0.5712,-0.4707,-0.3868,-0.3029,-0.2692,-0.2692,-0.2692,-0.2692,-0.2692,-0.2692,-0.2692,-0.2692,-0.2692,-0.2692,-0.2692,-0.2692,-0.2692,-0.2692,-0.2692,-0.2692,-0.2692,-0.2692,-0.2692,-0.2692,-0.2692,-0.2692,-0.2692,-0.2692,-0.2692,-0.2692,-0.2692,-0.2692,-0.2692,-0.2692,-0.2692,-0.2692,-0.2692,-0.2692,-0.2524,-0.2018,-0.2018,-0.1683,-0.0674,-0.0337,0.0,0.0,0.0,0.0,0.0,0.0,0.0,0.0,0.0,0.0,0.0,0.3528,0.5371,0.5371,0.8892,1.0737,1.0737,1.0737,1.0737,-3.049,-2.9282,-2.7535,-2.5547,-2.391,-2.2461,-2.1278,-2.1112,-2.1246,-2.1061,-2.1024,-2.0796,-2.0436,-2.0156,-1.9844,-1.9844,-1.9844,-1.939,-1.8016,-1.7567,-1.6766,-1.5557,-1.499,-1.4806,-1.4952,-1.4968,-1.4968,-1.4968,-1.4968,-1.5017,-1.5122,-1.5025,-1.5017,-1.513,-1.513,-1.522,-1.5407,-1.5407,-1.5447,-1.552,-1.4808,-1.4202,-1.3563,-1.1587,-1.049,-0.9833,-0.8711,-0.7558,0.0,-0.5712,-0.4875,-0.3868,-0.3029,-0.2692,-0.2692,-0.2692,-0.2692,-0.2692,-0.2692,-0.2692,-0.2692,-0.2692,-0.2692,-0.2692,-0.2692,-0.2692,-0.2692,-0.2692,-0.2692,-0.2692,-0.2692,-0.2692,-0.2692,-0.2692,-0.2692,-0.2692,-0.2692,-0.2692,-0.2692,-0.2692,-0.2692,-0.2692,-0.2692,-0.2692,-0.2692,-0.2692,-0.2692,-0.2692,-0.2524,-0.2188,-0.1683,-0.1178,-0.0674,-0.0337,0.0,0.0,0.0,0.0,0.0,0.0,0.0,0.0,0.0,0.0,0.3528,0.5371,0.5371,0.8892,1.0737,1.0737,1.0737,1.0737,-3.0361,-2.9151,-2.7535,-2.5547,-2.398,-2.2605,-2.1438,-2.1341,-2.1498,-2.0943,-2.1038,-2.091,-2.0145,-1.9995,-1.9844,-1.9844,-1.9844,-1.939,-1.8016,-1.7502,-1.6885,-1.5565,-1.5072,-1.4911,-1.496,-1.4968,-1.4992,-1.5041,-1.5049,-1.5122,-1.5309,-1.5195,-1.5187,-1.5317,-1.5317,-1.5407,-1.5593,-1.5593,-1.5618,-1.5675,-1.4815,-1.4045,-1.3227,-1.1511,-1.0226,-0.9392,-0.8227,-0.7223,0.0,-0.5376,-0.4372,-0.3532,-0.2861,-0.2692,-0.2692,-0.2692,-0.2692,-0.2692,-0.2692,-0.2692,-0.2692,-0.2692,-0.2692,-0.2692,-0.2692,-0.2692,-0.2692,-0.2692,-0.2692,-0.2692,-0.2692,-0.2692,-0.2692,-0.2692,-0.2692,-0.2692,-0.2692,-0.2692,-0.2692,-0.2692,-0.2692,-0.2692,-0.2692,-0.2692,-0.2692,-0.2692,-0.2692,-0.2692,-0.2692,-0.2356,-0.2018,-0.1514,-0.1178,-0.0674,0.0,0.0,0.0,0.0,0.0,0.0,0.0,0.0,0.0,0.0,0.3024,0.4868,0.5371,0.8386,1.0232,1.0737,1.0737,1.0737,-2.9952,-2.874,-2.727,-2.5412,-2.4148,-2.2867,-2.1475,-2.1474,-2.1726,-2.1432,-2.1186,-2.091,-2.0597,-2.0145,-1.9844,-1.9844,-1.9844,-1.9542,-1.8774,-1.7689,-1.6879,-1.6312,-1.5269,-1.4781,-1.4952,-1.4968,-1.5041,-1.522,-1.5236,-1.5317,-1.5504,-1.5512,-1.5512,-1.5512,-1.5512,-1.5593,-1.5772,-1.5772,-1.5861,-1.604,-1.604,-1.4548,-1.205,-1.2056,-1.056,-0.806,-0.7056,-0.6218,0.0,-0.4372,-0.3532,-0.2692,-0.2692,-0.2692,-0.2692,-0.2692,-0.2692,-0.2692,-0.2692,-0.2692,-0.2692,-0.2692,-0.2692,-0.2692,-0.2692,-0.2692,-0.2692,-0.2692,-0.2692,-0.2692,-0.2692,-0.2692,-0.2692,-0.2692,-0.2692,-0.2692,-0.2692,-0.2692,-0.2692,-0.2692,-0.2692,-0.2692,-0.2692,-0.2692,-0.2692,-0.2692,-0.2692,-0.2692,-0.2692,-0.2692,-0.2524,-0.2018,-0.1514,-0.101,0.0,0.0,0.0,0.0,0.0,0.0,0.0,0.0,0.0,0.0,0.185,0.3528,0.5371,0.7212,0.9059,1.0737,1.0737,1.0737,-2.9952,-2.874,-2.7334,-2.568,-2.4178,-2.2972,-2.1811,-2.1752,-2.1774,-2.121,-2.1164,-2.091,-2.0145,-1.9995,-1.9844,-1.9844,-1.9844,-1.939,-1.8016,-1.7502,-1.6876,-1.5565,-1.5072,-1.4903,-1.496,-1.5082,-1.4704,-1.3968,-1.4877,-1.5026,-1.4378,-1.5199,-1.5691,-1.5691,-1.5691,-1.578,-1.5959,-1.5959,-1.5491,-1.4548,-1.3714,-1.2388,-1.0726,-0.9726,-0.8896,-0.806,-0.7725,-0.7056,-0.6218,-0.5376,-0.4372,-0.3532,-0.2861,-0.2692,-0.2692,-0.2692,-0.2692,-0.2692,-0.2692,-0.2692,-0.2692,-0.2692,-0.2692,-0.2692,-0.2692,-0.2692,-0.2692,-0.2692,-0.2692,-0.2692,-0.2692,-0.2692,-0.2692,-0.2692,-0.2692,-0.2692,-0.2692,-0.2692,-0.2692,-0.2692,-0.2692,-0.2692,-0.2692,-0.2692,-0.2692,-0.2692,-0.2692,-0.2692,-0.2692,-0.2692,-0.2524,-0.2018,-0.185,-0.1346,-0.0505,-0.0168,0.0,0.0,0.0,0.0,0.0,0.0,0.0,0.0,0.3024,0.4868,0.5371,0.8386,1.0232,1.0737,1.0737,1.0737,-2.9691,-2.8608,-2.735,-2.5814,-2.4331,-2.3156,-2.2056,-2.1945,-2.1917,-2.1187,-2.1071,-2.091,-1.9995,-1.9844,-1.9844,-1.9844,-1.9844,-1.939,-1.8016,-1.7559,-1.6635,-1.4499,-1.4345,-1.406,-1.3656,-1.4072,-1.4185,-1.3511,-1.4258,-1.4547,-1.3888,-1.472,-1.4891,-1.4393,-1.4883,-1.4937,-1.4548,-1.4548,-1.4052,-1.3217,-1.2554,-1.1392,-1.006,-0.9226,-0.8562,-0.806,-0.7725,-0.7223,0.0,-0.5376,-0.4539,-0.3868,-0.3029,-0.2692,-0.2692,-0.2692,-0.2692,-0.2692,-0.2692,-0.2692,-0.2692,-0.2692,-0.2692,-0.2692,-0.2692,-0.2692,-0.2692,-0.2692,-0.2692,-0.2692,-0.2692,-0.2692,-0.2692,-0.2692,-0.2692,-0.2692,-0.2692,-0.2692,-0.2692,-0.2692,-0.2692,-0.2692,-0.2692,-0.2692,-0.2692,-0.2692,-0.2692,-0.2692,-0.2692,-0.2692,-0.2524,-0.2356,-0.2187,-0.1851,-0.1179,-0.0674,-0.0168,0.0,0.0,0.0,0.0,0.0,0.0,0.0,0.2856,0.47,0.5371,0.8892,1.0737,1.0737,1.0737,1.0737,0.0,-2.8395,-2.7248,-2.5844,-2.4512,-2.3262,-2.2117,-2.209,0.0,-2.1222,-2.1071,-2.091,-1.9995,-1.9844,-1.9844,-1.9844,-1.9844,-1.9542,-1.8623,-1.7702,-1.6177,-1.3406,-1.2958,-1.2556,-1.1439,-1.2417,-1.3179,-1.3457,-1.3654,-1.3725,-1.3707,-1.388,-1.3217,-1.205,-1.3052,-1.3217,-1.2056,-1.2056,-1.2056,-1.189,-1.189,-1.1225,-0.9893,-0.9893,-0.9226,0.0,-0.7223,-0.6721,-0.6553,-0.4875,-0.4036,-0.3868,-0.3029,-0.2692,-0.2692,-0.2692,-0.2692,-0.2692,-0.2692,-0.2692,-0.2692,-0.2692,-0.2692,-0.2692,-0.2692,-0.2692,-0.2692,-0.2692,-0.2692,-0.2692,-0.2692,-0.2692,-0.2692,-0.2692,-0.2692,-0.2692,-0.2692,-0.2692,-0.2692,-0.2692,-0.2692,-0.2692,-0.2692,-0.2692,-0.2692,-0.2692,-0.2692,-0.2692,-0.2692,-0.2692,-0.2692,-0.2692,-0.2356,-0.2018,-0.2018,-0.1179,-0.0505,0.0,0.0,0.0,0.0,0.0,0.0,0.0,0.1849,0.3864,0.5706,0.9059,1.0737,1.0737,1.0737,1.0737,-2.9676,0.0,-2.5844,-2.5769,-2.3977,-2.2276,0.0,-2.2211,-2.2109,-2.1222,-2.1071,-2.091,-1.9995,-1.9844,-1.9844,-1.9844,-1.9844,-1.939,-1.7864,-1.5557,-1.3868,-1.3259,-1.2271,-1.1729,-1.1445,-1.1801,-1.1788,-1.0874,-1.1782,-1.202,-1.1053,-1.205,-1.1884,-1.056,-1.0887,-1.1392,-1.2056,-1.2056,-1.1558,-1.056,-1.056,-0.9893,-0.8562,-0.8562,-0.8395,-0.806,-0.7893,-0.7391,-0.6553,-0.5544,-0.4707,-0.3868,-0.3029,-0.2692,-0.2692,-0.2692,-0.2692,-0.2692,-0.2692,-0.2692,-0.2692,-0.2692,-0.2692,-0.2692,-0.2692,-0.2692,-0.2692,-0.2692,-0.2692,-0.2692,-0.2692,-0.2692,-0.2692,-0.2692,-0.2692,-0.2692,-0.2692,-0.2692,-0.2692,-0.2692,-0.2692,-0.2692,-0.2692,-0.2692,-0.2692,-0.2692,-0.2692,-0.2692,-0.2692,-0.2692,-0.2692,-0.2692,-0.2524,-0.2356,-0.2018,-0.1179,-0.0674,-0.0505,-0.0168,0.0,0.0,0.0,0.0,0.0,0.3192,0.6376,0.9392,1.0232,1.0737,1.0737,1.0737,1.0737,-2.9847,-2.7693,-2.5455,-2.5921,-2.3904,-2.1933,-2.2198,-2.2259,-2.2109,-2.1222,-2.1071,-2.091,-1.9995,-1.9844,-1.9844,-1.9844,-1.9844,-1.9239,-1.7711,-1.5089,-1.3091,-1.2326,-1.1209,-1.0368,-0.9791,-1.0443,-1.0574,-0.9968,-1.0688,-1.0893,-1.006,-1.0726,-1.056,-0.9226,-0.9226,-0.9559,-1.0226,-1.0226,-0.9893,-0.9226,-0.9226,-0.8729,-0.806,-0.806,-0.806,-0.806,-0.806,-0.7558,-0.6553,-0.5712,-0.4875,-0.3868,-0.3029,-0.2692,-0.2692,-0.2692,-0.2692,-0.2692,-0.2692,-0.2692,-0.2692,-0.2692,-0.2692,-0.2692,-0.2692,-0.2692,-0.2692,-0.2692,-0.2692,-0.2692,-0.2692,-0.2692,-0.2692,-0.2692,-0.2692,-0.2692,-0.2692,-0.2692,-0.2692,-0.2692,-0.2692,-0.2692,-0.2692,-0.2692,-0.2692,-0.2692,-0.2692,-0.2692,-0.2692,-0.2692,-0.2692,-0.2692,-0.2692,-0.2524,-0.2356,-0.1515,-0.0842,-0.0674,-0.0337,0.0,0.0,0.0,0.0842,0.2522,0.4365,0.7212,1.0737,1.0737,1.0737,1.0737,1.0737,1.0737,-2.9967,-2.7804,-2.5615,-2.631,-2.4195,-2.1993,-2.2211,-2.2259,-2.2109,-2.1222,-2.1071,-2.091,-1.9995,-1.9844,-1.9844,-1.9844,-1.9693,-1.9077,-1.7559,-1.5081,-1.2783,-1.143,-1.0144,-0.8833,-0.7973,-0.888,-0.9633,-0.9721,-0.9726,-0.9726,-0.9726,-0.9726,-0.9226,-0.806,-0.806,-0.806,-0.806,-0.806,-0.806,-0.806,-0.806,-0.806,-0.806,-0.806,-0.806,-0.806,0.0,0.0,-0.6385,-0.5882,-0.4875,-0.37,-0.3197,-0.2861,-0.2692,-0.2692,-0.2692,-0.2692,-0.2692,-0.2692,-0.2692,-0.2692,-0.2692,-0.2692,-0.2692,-0.2692,-0.2692,-0.2692,-0.2692,-0.2692,-0.2692,-0.2692,-0.2692,-0.2692,-0.2692,-0.2692,-0.2692,-0.2692,-0.2694,-0.2698,-0.2699,-0.2701,-0.2705,-0.2706,-0.2706,-0.2706,-0.2706,-0.2706,-0.2706,-0.2702,-0.2699,-0.2699,-0.2695,-0.2692,-0.2692,-0.185,-0.1178,-0.0842,-0.0337,0.0,0.0,0.0,0.1681,0.5371,0.5371,0.7212,1.0737,1.0737,1.0737,1.0737,1.0737,1.0737,-3.0258,-2.8344,-2.6325,-2.6427,-2.4356,-2.2211,-2.2247,-2.2259,-2.2109,-2.1222,-2.1071,-2.091,-1.9995,-1.9844,-1.9844,-1.9844,-1.8774,-1.7711,-1.7407,-1.4014,-1.1597,-1.1403,-0.9472,-0.7973,-0.7905,-0.8157,-0.8382,-0.8395,-0.8395,-0.8395,-0.8395,-0.8395,-0.8395,-0.806,-0.806,-0.806,-0.806,-0.806,-0.806,-0.806,-0.806,-0.806,-0.806,-0.806,-0.806,-0.806,0.0,-0.7223,-0.5712,-0.6214,-0.5041,-0.3029,-0.3532,-0.3363,-0.2692,-0.2692,-0.2692,-0.2692,-0.2692,-0.2692,-0.2692,-0.2692,-0.2692,-0.2692,-0.2692,-0.2692,-0.2692,-0.2692,-0.2692,-0.2692,-0.2692,-0.2692,-0.2692,-0.2692,-0.2692,-0.2692,-0.2692,-0.2692,-0.2701,-0.2727,-0.2731,-0.2739,-0.2765,-0.2769,-0.2769,-0.2769,-0.2769,-0.2769,-0.2769,-0.2747,-0.2731,-0.2731,-0.2707,-0.2692,-0.2692,-0.2188,-0.1682,-0.1178,-0.0505,0.0,0.0,0.0,0.1681,0.5371,0.5371,0.7212,1.0737,1.0737,1.0737,1.0737,1.0737,1.0737,-3.0378,-2.8583,-2.6691,-2.6691,-2.4489,-2.2259,-2.2259,-2.2259,-2.2109,-2.151,-2.1222,-2.091,-2.0296,-1.9995,-1.9844,-1.9844,-1.8926,-1.7864,-1.7398,-1.4782,-1.2535,-1.1591,-0.9817,-0.8644,-0.7925,-0.8011,-0.806,-0.806,-0.806,-0.806,-0.806,-0.806,-0.806,-0.806,-0.806,-0.806,-0.806,-0.806,-0.806,-0.806,-0.806,-0.806,-0.806,-0.806,-0.806,-0.806,0.0,-0.6888,-0.605,-0.6047,-0.5043,-0.3363,-0.3868,-0.3532,-0.2692,-0.2692,-0.2692,-0.2692,-0.2692,-0.2692,-0.2692,-0.2692,-0.2692,-0.2692,-0.2692,-0.2692,-0.2692,-0.2692,-0.2692,-0.2692,-0.2692,-0.2692,-0.2692,-0.2692,-0.2692,-0.2697,-0.2713,-0.2717,-0.2727,-0.2757,-0.2762,-0.2767,-0.2781,-0.2784,-0.2784,-0.2784,-0.2784,-0.2784,-0.2784,-0.2772,-0.2757,-0.274,-0.2725,-0.271,-0.2694,-0.2188,-0.1683,-0.101,-0.0337,0.0,0.0,0.101,0.2688,0.5371,0.6376,0.8052,1.0737,1.0737,1.0737,1.0737,1.0737,1.0737,-3.0429,-2.8694,-2.691,-2.691,-2.4583,-2.2259,-2.2259,-2.2259,-2.2259,-2.181,-2.1372,-2.091,-2.0597,-2.0145,-1.9844,-1.9844,-1.9229,-1.8319,-1.7559,-1.5557,-1.3627,-1.1634,-1.0473,-0.9298,-0.8119,-0.8023,-0.806,-0.806,-0.806,-0.806,-0.806,-0.806,-0.806,-0.806,-0.806,-0.806,-0.806,-0.806,-0.806,-0.806,-0.806,-0.806,-0.806,-0.806,-0.806,-0.806,-0.7391,-0.6888,-0.6717,-0.6218,-0.5208,-0.4036,-0.4204,-0.37,-0.2692,-0.2692,-0.2692,-0.2692,-0.2692,-0.2692,-0.2692,-0.2692,-0.2692,-0.2692,-0.2692,-0.2692,-0.2692,-0.2692,-0.2692,-0.2692,-0.2692,-0.2692,-0.2692,-0.2692,-0.2698,-0.271,-0.2733,-0.2743,-0.2758,-0.2788,-0.2793,-0.2796,-0.2803,-0.2804,-0.2804,-0.2804,-0.2804,-0.2804,-0.2804,-0.2799,-0.2785,-0.2762,-0.2752,-0.2736,-0.2706,-0.2191,-0.1683,-0.0842,-0.0337,0.0,0.0,0.1346,0.3192,0.5371,0.671,0.8553,1.0737,1.0737,1.0737,1.0737,1.0737,1.0737,-3.0429,-2.8694,-2.691,-2.691,-2.4583,-2.2259,-2.2259,-2.2259,-2.2259,-2.181,-2.1372,-2.091,-2.0597,-2.0145,-1.9844,-1.9844,-1.9229,-1.8319,-1.7559,-1.5557,-1.3671,-1.1764,-1.0367,-0.9327,-0.8202,-0.806,-0.806,-0.806,-0.806,-0.806,-0.806,-0.806,-0.806,-0.806,-0.806,-0.806,-0.806,-0.806,-0.806,-0.806,-0.806,-0.806,-0.806,-0.806,-0.806,-0.806,-0.8064,-0.7558,-0.6721,-0.7558,-0.6385,-0.4036,-0.5041,-0.4204,-0.2692,-0.2692,-0.2692,-0.2692,-0.2692,-0.2692,-0.2692,-0.2692,-0.2692,-0.2692,-0.2692,-0.2692,-0.2692,-0.2692,-0.2692,-0.2692,-0.2692,-0.2692,-0.2692,-0.2692,-0.2714,-0.2735,-0.2737,-0.2761,-0.2789,-0.2819,-0.2826,-0.2834,-0.2863,-0.2867,-0.2867,-0.2867,-0.2867,-0.2867,-0.2867,-0.2842,-0.2825,-0.2822,-0.2797,-0.2767,-0.2737,-0.2201,-0.185,-0.1346,-0.0505,0.0,0.0,0.0168,0.1849,0.5371,0.5538,0.7212,1.0737,1.0737,1.0737,1.0737,1.0737,1.0737,-3.0429,-2.8694,-2.691,-2.691,-2.4583,-2.2259,-2.2259,-2.2259,-2.2259,-2.2109,-2.151,-2.091,-2.0296,-1.9995,-1.9844,-1.9844,-1.9229,-1.8319,-1.7559,-1.633,-1.4462,-1.1776,-1.1171,-1.014,-0.8211,-0.806,-0.806,-0.806,-0.806,-0.806,-0.806,-0.806,-0.806,-0.806,-0.806,-0.806,-0.806,-0.806,-0.806,-0.806,-0.806,-0.806,-0.806,-0.806,-0.806,-0.806,-0.7558,-0.7391,-0.7558,-0.6721,-0.5879,-0.4873,-0.4036,-0.3365,-0.2692,-0.2692,-0.2692,-0.2692,-0.2692,-0.2692,-0.2692,-0.2692,-0.2692,-0.2692,-0.2692,-0.2692,-0.2692,-0.2692,-0.2692,-0.2692,-0.2692,-0.2692,-0.2692,-0.2692,-0.2716,-0.2743,-0.2762,-0.2789,-0.2821,-0.2851,-0.2857,-0.286,-0.2872,-0.2874,-0.2874,-0.2874,-0.2874,-0.2874,-0.2874,-0.2864,-0.2849,-0.283,-0.2785,-0.275,-0.2739,-0.2201,-0.185,-0.1682,-0.0842,-0.0337,0.0,0.2186,0.4029,0.5371,0.755,0.9392,1.0737,1.0737,1.0737,1.0737,1.0737,1.0737,-2.9867,-2.8272,-2.6765,-2.6328,-2.4153,-2.2259,-2.2259,-2.2259,-2.2259,-2.2259,-2.166,-2.091,-2.0145,-1.9995,-1.9844,-1.9844,-1.939,-1.8623,-1.7559,-1.695,-1.5391,-1.1936,-1.1493,-1.0622,-0.8378,-0.806,-0.806,-0.806,-0.806,-0.806,-0.806,-0.806,-0.806,-0.806,-0.806,-0.806,-0.806,-0.806,-0.806,-0.806,-0.806,-0.806,-0.806,-0.806,-0.806,-0.806,-0.7391,-0.7558,-0.806,-0.6382,-0.5544,-0.4875,-0.3365,-0.2692,-0.2692,-0.2692,-0.2692,-0.2692,-0.2692,-0.2692,-0.2692,-0.2692,-0.2692,-0.2692,-0.2692,-0.2692,-0.2692,-0.2692,-0.2692,-0.2692,-0.2692,-0.2692,-0.2695,-0.2705,-0.2731,-0.2761,-0.2791,-0.2822,-0.2849,-0.287,-0.2874,-0.2874,-0.2874,-0.2874,-0.2874,-0.2874,-0.2874,-0.2874,-0.2874,-0.2874,-0.2866,-0.2845,-0.2797,-0.2762,-0.2752,-0.2383,-0.2196,-0.202,-0.1346,-0.0674,-0.0168,0.2856,0.4868,0.5371,0.8386,1.0232,1.0737,1.0737,1.0737,1.0737,1.0737,1.0737,-2.8631,-2.7565,-2.6474,-2.5038,-2.3438,-2.2259,-2.2259,-2.2259,-2.2259,-2.2259,-2.166,-2.091,-2.0597,-2.0145,-1.9844,-1.9844,-1.9844,-1.9239,-1.7711,-1.7407,-1.6009,-1.1936,-1.1493,-1.0622,-0.8378,-0.806,-0.806,-0.806,-0.806,-0.806,-0.806,-0.806,-0.806,-0.806,-0.806,-0.806,-0.806,-0.806,-0.806,-0.806,-0.806,-0.806,-0.806,-0.806,-0.806,-0.806,-0.806,-0.806,-0.806,-0.7056,-0.5544,-0.3868,-0.3029,-0.2692,-0.2692,-0.2692,-0.2692,-0.2692,-0.2692,-0.2692,-0.2692,-0.2692,-0.2692,-0.2692,-0.2692,-0.2692,-0.2692,-0.2692,-0.2692,-0.2692,-0.2692,-0.2692,-0.2701,-0.2731,-0.2761,-0.2792,-0.2822,-0.2852,-0.2874,-0.2874,-0.2874,-0.2874,-0.2874,-0.2874,-0.2874,-0.2874,-0.2874,-0.2874,-0.2874,-0.2874,-0.2874,-0.2874,-0.2846,-0.2816,-0.2785,-0.2755,-0.2555,-0.2021,-0.1514,-0.1178,-0.0674,0.1513,0.3528,0.5371,0.7212,0.9059,1.0737,1.0737,1.0737,1.0737,1.0737,1.0737,-2.8494,-2.7565,-2.6474,-2.5038,-2.3438,-2.2259,-2.2259,-2.2259,-2.2109,-2.151,-2.1222,-2.091,-2.0145,-1.9995,-1.9844,-1.9844,-1.9844,-1.9239,-1.7711,-1.7407,-1.6009,-1.1936,-1.1493,-1.0622,-0.8378,-0.806,-0.806,-0.806,-0.806,-0.806,-0.806,-0.806,-0.806,-0.806,-0.806,-0.806,-0.806,-0.806,-0.806,-0.806,-0.806,-0.806,-0.806,-0.806,-0.806,-0.806,-0.806,-0.806,-0.806,-0.7056,-0.5211,-0.3197,-0.3532,-0.3195,-0.2692,-0.2692,-0.2692,-0.2692,-0.2692,-0.2692,-0.2692,-0.2692,-0.2692,-0.2692,-0.2692,-0.2692,-0.2692,-0.2692,-0.2692,-0.2692,-0.2692,-0.2692,-0.2701,-0.2731,-0.2761,-0.2792,-0.2822,-0.2852,-0.2874,-0.2874,-0.2874,-0.2874,-0.2874,-0.2874,-0.2874,-0.2874,-0.2874,-0.2874,-0.2874,-0.2874,-0.2874,-0.2874,-0.2846,-0.2816,-0.2785,-0.2755,-0.2725,-0.2525,-0.2018,-0.1515,-0.0674,0.2688,0.4868,0.5371,0.8386,1.0232,1.0737,1.0737,1.0737,1.0737,1.0737,1.0737,-2.7943,-2.7102,-2.6328,-2.4153,-2.2992,-2.2259,-2.2259,-2.2109,-2.196,-2.1372,-2.106,-2.0759,-2.0296,-1.9995,-1.9844,-1.9844,-1.9844,-1.9239,-1.7711,-1.7407,-1.6009,-1.1936,-1.1493,-1.0622,-0.8378,-0.806,-0.806,-0.806,-0.806,-0.806,-0.806,-0.806,-0.806,-0.806,-0.806,-0.806,-0.806,-0.806,-0.806,-0.806,-0.806,-0.806,-0.806,-0.806,-0.806,-0.806,-0.7725,-0.7558,-0.7391,-0.655,-0.5043,-0.3197,-0.3868,-0.3532,-0.2692,-0.2692,-0.2692,-0.2692,-0.2692,-0.2692,-0.2692,-0.2692,-0.2692,-0.2692,-0.2692,-0.2692,-0.2692,-0.2692,-0.2692,-0.2692,-0.2692,-0.2702,-0.2718,-0.2748,-0.277,-0.2795,-0.2837,-0.2861,-0.2874,-0.2874,-0.2874,-0.2874,-0.2874,-0.2874,-0.2874,-0.2874,-0.2874,-0.2874,-0.2874,-0.2874,-0.2874,-0.2874,-0.2857,-0.2829,-0.2787,-0.2766,-0.2737,-0.2695,-0.2188,-0.1683,-0.101,0.3023,0.5203,0.5371,0.8892,1.0737,1.0737,1.0737,1.0737,1.0737,1.0737,1.0737,-2.716,-2.6647,-2.6182,-2.3277,-2.2408,-2.2259,-2.2259,-2.196,-2.166,-2.166,-2.1048,-2.0597,-2.0447,-2.0145,-1.9844,-1.9844,-1.9844,-1.9239,-1.7711,-1.7407,-1.6009,-1.1936,-1.1493,-1.0622,-0.8378,-0.806,-0.806,-0.806,-0.806,-0.806,-0.806,-0.806,-0.806,-0.806,-0.806,-0.806,-0.806,-0.806,-0.806,-0.806,-0.806,-0.806,-0.806,-0.806,-0.806,-0.806,-0.7056,-0.6717,-0.655,-0.5879,-0.4875,-0.3868,-0.4036,-0.3532,-0.2692,-0.2692,-0.2692,-0.2692,-0.2692,-0.2692,-0.2692,-0.2692,-0.2692,-0.2692,-0.2692,-0.2692,-0.2692,-0.2692,-0.2692,-0.2692,-0.2692,-0.2713,-0.2742,-0.2776,-0.2785,-0.2803,-0.2861,-0.2874,-0.2874,-0.2874,-0.2874,-0.2874,-0.2874,-0.2874,-0.2874,-0.2874,-0.2874,-0.2874,-0.2874,-0.2874,-0.2874,-0.2874,-0.2874,-0.2849,-0.2788,-0.2784,-0.2758,-0.2697,-0.2356,-0.185,-0.1346,0.2518,0.4865,0.5371,0.8892,1.0737,1.0737,1.0737,1.0737,1.0737,1.0737,1.0737,-2.8158,-2.7342,-2.6474,-2.4596,-2.3141,-2.2259,-2.2259,-2.196,-2.166,-2.1222,-2.106,-2.0759,-2.0145,-1.9995,-1.9844,-1.9844,-1.9844,-1.9239,-1.7711,-1.7407,-1.6009,-1.1936,-1.1493,-1.0622,-0.8378,-0.806,-0.806,-0.806,-0.806,-0.806,-0.806,-0.806,-0.806,-0.806,-0.806,-0.806,-0.806,-0.806,-0.806,-0.806,-0.806,-0.806,-0.806,-0.806,-0.806,-0.806,-0.7056,-0.6382,-0.5714,-0.6218,-0.5041,-0.3197,-0.4539,-0.4036,-0.2692,-0.2692,-0.2692,-0.2692,-0.2692,-0.2692,-0.2692,-0.2692,-0.2692,-0.2692,-0.2692,-0.2692,-0.2692,-0.2692,-0.2692,-0.2692,-0.2692,-0.2698,-0.2716,-0.277,-0.2801,-0.2829,-0.2866,-0.2874,-0.2874,-0.2874,-0.2874,-0.2874,-0.2874,-0.2874,-0.2874,-0.2874,-0.2874,-0.2874,-0.2874,-0.2874,-0.2874,-0.2874,-0.2874,-0.2849,-0.2788,-0.2784,-0.2758,-0.2697,-0.2524,-0.2356,-0.185,0.235,0.4865,0.5371,0.8892,1.0737,1.0737,1.0737,1.0737,1.0737,1.0737,1.0737,-2.8895,-2.7809,-2.6328,-2.4018,-2.2843,-2.2259,-2.2259,-2.2109,-2.181,-2.1222,-2.091,-2.0609,-1.9995,-1.9844,-1.9844,-1.9844,-1.9844,-1.9239,-1.7711,-1.7407,-1.6009,-1.1936,-1.1493,-1.0622,-0.8378,-0.806,-0.806,-0.806,-0.806,-0.806,-0.806,-0.806,-0.806,-0.806,-0.806,-0.806,-0.806,-0.806,-0.806,-0.806,-0.806,-0.806,-0.806,-0.806,-0.806,-0.806,-0.6717,-0.6382,-0.6721,-0.6218,-0.5208,-0.4036,-0.5043,-0.4372,-0.2692,-0.2692,-0.2692,-0.2692,-0.2692,-0.2692,-0.2692,-0.2692,-0.2692,-0.2692,-0.2692,-0.2692,-0.2692,-0.2692,-0.2692,-0.2692,-0.2692,-0.2703,-0.2727,-0.2772,-0.2796,-0.2819,-0.2864,-0.2874,-0.2874,-0.2874,-0.2874,-0.2874,-0.2874,-0.2874,-0.2874,-0.2874,-0.2874,-0.2874,-0.2874,-0.2874,-0.2874,-0.2874,-0.2874,-0.2849,-0.2788,-0.2784,-0.2758,-0.2697,-0.2692,-0.2524,-0.2018,0.1679,0.4195,0.5033,0.839,1.0237,1.0737,1.0737,1.0737,1.0737,1.0737,1.0737,-2.9721,-2.8182,-2.6182,-2.3141,-2.2259,-2.2259,-2.2259,-2.2259,-2.196,-2.1222,-2.091,-2.0447,-1.9995,-1.9844,-1.9844,-1.9844,-1.9844,-1.939,-1.7864,-1.7559,-1.6009,-1.2416,-1.1653,-1.0622,-0.8711,-0.8227,-0.806,-0.806,-0.806,-0.806,-0.806,-0.806,-0.806,-0.806,-0.806,-0.806,-0.806,-0.806,-0.806,-0.806,-0.806,-0.806,-0.806,-0.806,-0.806,-0.806,-0.6214,-0.6385,-0.7725,-0.605,-0.5379,-0.5211,-0.5376,-0.4372,-0.2692,-0.2692,-0.2692,-0.2692,-0.2692,-0.2692,-0.2692,-0.2692,-0.2692,-0.2692,-0.2692,-0.2692,-0.2692,-0.2692,-0.2692,-0.2692,-0.2692,-0.2712,-0.2739,-0.2774,-0.2784,-0.28,-0.286,-0.2874,-0.2874,-0.2874,-0.2874,-0.2874,-0.2874,-0.2874,-0.2874,-0.2874,-0.2874,-0.2874,-0.2874,-0.2874,-0.2874,-0.2874,-0.287,-0.2844,-0.2788,-0.2778,-0.2752,-0.2697,-0.2692,-0.2356,-0.185,0.1008,0.3189,0.4698,0.7722,0.9903,1.0737,1.0737,1.0737,1.0737,1.0737,1.0737,-3.0784,-2.8869,-2.6182,-2.3141,-2.2259,-2.2259,-2.2259,-2.196,-2.166,-2.1222,-2.1071,-2.0759,-1.9995,-1.9844,-1.9844,-1.9844,-1.9844,-1.9542,-1.8623,-1.7864,-1.6626,-1.4487,-1.2609,-1.1109,-0.9873,-0.8729,-0.806,-0.806,-0.806,-0.806,-0.806,-0.806,-0.806,-0.806,-0.806,-0.806,-0.806,-0.806,-0.806,-0.806,-0.806,-0.806,-0.806,-0.806,-0.806,-0.806,-0.6214,-0.605,-0.6888,-0.5879,-0.4873,-0.4204,-0.5041,-0.4372,-0.2692,-0.2692,-0.2692,-0.2692,-0.2692,-0.2692,-0.2692,-0.2692,-0.2692,-0.2692,-0.2692,-0.2692,-0.2692,-0.2692,-0.2692,-0.2692,-0.2692,-0.2695,-0.2713,-0.277,-0.2784,-0.28,-0.286,-0.2874,-0.2874,-0.2874,-0.2874,-0.2874,-0.2874,-0.2874,-0.2874,-0.2874,-0.2874,-0.2874,-0.2874,-0.2874,-0.2874,-0.2874,-0.2851,-0.2821,-0.2787,-0.2759,-0.2729,-0.2695,-0.2692,-0.2188,-0.0841,0.0672,0.2519,0.4703,0.7725,0.9903,1.0737,1.0737,1.0737,1.0737,1.0737,1.0737,-2.9106,-2.7241,-2.5038,-2.2843,-2.2259,-2.2259,-2.2259,-2.196,-2.1522,-2.1222,-2.091,-2.0609,-1.9995,-1.9844,-1.9844,-1.9844,-1.9844,-1.9542,-1.8774,-1.7864,-1.678,-1.4963,-1.2769,-1.1109,-1.0206,-0.8896,-0.806,-0.806,-0.806,-0.806,-0.806,-0.806,-0.806,-0.806,-0.806,-0.806,-0.806,-0.806,-0.806,-0.806,-0.806,-0.806,-0.806,-0.806,-0.7893,-0.7223,-0.5882,-0.5879,-0.6553,-0.5208,-0.4707,-0.4705,-0.4707,-0.3868,-0.2692,-0.2692,-0.2692,-0.2692,-0.2692,-0.2692,-0.2692,-0.2692,-0.2692,-0.2692,-0.2692,-0.2692,-0.2692,-0.2692,-0.2692,-0.2692,-0.2692,-0.2692,-0.2707,-0.2769,-0.2784,-0.28,-0.286,-0.2874,-0.2874,-0.2874,-0.2874,-0.2874,-0.2874,-0.2874,-0.2874,-0.2874,-0.2874,-0.2874,-0.2874,-0.2874,-0.2874,-0.2874,-0.2846,-0.2816,-0.2785,-0.2755,-0.2725,-0.2695,-0.2692,-0.2018,-0.0673,0.0504,0.2351,0.4703,0.7387,0.9068,0.9903,1.0404,1.0737,1.0737,1.0737,1.0737,-2.8151,-2.6342,-2.4743,-2.329,-2.2558,-2.2259,-2.2259,-2.196,-2.1522,-2.1222,-2.0759,-2.0447,-1.9995,-1.9844,-1.9844,-1.9844,-1.9844,-1.9693,-1.9077,-1.8064,-1.6998,-1.5606,-1.3123,-1.1312,-1.0704,-0.9059,-0.806,-0.806,-0.806,-0.806,-0.806,-0.806,-0.806,-0.806,-0.806,-0.806,-0.806,-0.806,-0.806,-0.806,-0.806,-0.806,-0.806,-0.806,-0.7391,-0.6385,-0.5712,-0.5879,-0.655,-0.4705,-0.4539,-0.5379,-0.4372,-0.3532,-0.2692,-0.2692,-0.2692,-0.2692,-0.2692,-0.2692,-0.2692,-0.2692,-0.2692,-0.2692,-0.2692,-0.2692,-0.2692,-0.2692,-0.2692,-0.2692,-0.2692,-0.2692,-0.2706,-0.2759,-0.2777,-0.28,-0.286,-0.2874,-0.2874,-0.2874,-0.2874,-0.2874,-0.2874,-0.2874,-0.2874,-0.2874,-0.2874,-0.2874,-0.2874,-0.2874,-0.2871,-0.2863,-0.2836,-0.2804,-0.2774,-0.2744,-0.2717,-0.2694,-0.2356,-0.1514,-0.0168,0.1176,0.2856,0.4873,0.7056,0.8566,0.9407,1.007,1.0404,1.0737,1.0737,1.0737,-2.952,-2.7924,-2.6474,-2.4891,-2.3438,-2.2259,-2.2259,-2.196,-2.1522,-2.1222,-2.0759,-2.0447,-1.9995,-1.9844,-1.9844,-1.9844,-1.9844,-1.9844,-1.9844,-1.8662,-1.7639,-1.7696,-1.4187,-1.1904,-1.2038,-0.9559,-0.806,-0.806,-0.806,-0.806,-0.806,-0.806,-0.806,-0.806,-0.806,-0.806,-0.806,-0.806,-0.806,-0.806,-0.806,-0.806,-0.806,-0.806,-0.7056,-0.5544,-0.5379,-0.5879,-0.655,-0.4705,-0.4539,-0.5379,-0.4372,-0.3532,-0.2692,-0.2692,-0.2692,-0.2692,-0.2692,-0.2692,-0.2692,-0.2692,-0.2692,-0.2692,-0.2692,-0.2692,-0.2692,-0.2692,-0.2692,-0.2692,-0.2692,-0.2692,-0.2701,-0.2732,-0.2762,-0.28,-0.286,-0.2874,-0.2874,-0.2874,-0.2874,-0.2874,-0.2874,-0.2874,-0.2874,-0.2874,-0.2874,-0.2874,-0.2874,-0.2874,-0.2863,-0.2834,-0.2804,-0.2773,-0.2743,-0.2713,-0.2694,-0.2692,-0.1514,-0.0168,0.1176,0.252,0.3868,0.5384,0.7227,0.8566,0.9407,0.9407,0.9903,1.0737,1.0737,1.0737,-2.8213,-2.6619,-2.5038,-2.3574,-2.2707,-2.2259,-2.2259,-2.196,-2.1522,-2.1222,-2.0759,-2.0447,-1.9995,-1.9844,-1.9844,-1.9844,-1.9844,-1.9844,-1.9844,-1.9131,-1.8426,-1.8021,-1.4831,-1.2553,-1.2204,-0.9726,-0.806,-0.806,-0.806,-0.806,-0.806,-0.806,-0.806,-0.806,-0.806,-0.806,-0.806,-0.806,-0.806,-0.806,-0.806,-0.806,-0.806,-0.806,-0.7056,-0.5376,-0.5376,-0.5208,-0.4875,-0.37,-0.37,-0.4372,-0.3532,-0.3029,-0.2692,-0.2692,-0.2692,-0.2692,-0.2692,-0.2692,-0.2692,-0.2692,-0.2692,-0.2692,-0.2692,-0.2692,-0.2692,-0.2692,-0.2692,-0.2692,-0.2692,-0.2692,-0.2701,-0.2731,-0.2776,-0.2818,-0.284,-0.286,-0.2874,-0.2874,-0.2874,-0.2874,-0.2874,-0.2874,-0.2874,-0.2874,-0.2874,-0.2874,-0.2874,-0.2857,-0.2841,-0.283,-0.2784,-0.275,-0.2739,-0.271,-0.2356,-0.1514,-0.1009,0.0336,0.252,0.3194,0.4036,0.5384,0.6053,0.7059,0.8566,0.9736,1.0404,1.0737,1.0737,1.0737,-2.7924,-2.6196,-2.4314,-2.329,-2.2707,-2.2259,-2.2259,-2.2109,-2.181,-2.1222,-2.091,-2.0597,-1.9995,-1.9844,-1.9844,-1.9844,-1.9844,-1.9844,-1.9844,-1.951,-1.8827,-1.8021,-1.5199,-1.2926,-1.221,-0.9726,-0.806,-0.806,-0.806,0.0,-0.806,-0.806,-0.806,-0.806,-0.806,-0.806,-0.806,-0.806,-0.806,-0.806,-0.806,-0.806,-0.806,-0.7725,-0.6888,-0.5376,-0.5041,-0.4539,-0.3868,-0.3029,-0.3195,-0.3868,-0.3029,-0.2692,-0.2692,-0.2692,-0.2692,-0.2692,-0.2692,-0.2692,-0.2692,-0.2692,-0.2692,-0.2692,-0.2692,-0.2692,-0.2692,-0.2692,-0.2692,-0.2692,-0.2692,-0.2692,-0.2701,-0.2731,-0.2769,-0.2804,-0.2825,-0.2852,-0.2874,-0.2874,-0.2874,-0.2874,-0.2874,-0.2874,-0.2874,-0.2874,-0.2874,-0.287,-0.286,-0.2841,-0.2821,-0.28,-0.2762,-0.2563,-0.2042,-0.2028,-0.1514,-0.0168,0.0336,0.1513,0.3362,0.3868,0.4542,0.5384,0.572,0.6556,0.806,0.923,1.007,1.0737,1.0737,1.0737,0.0,0.0,0.0,-2.4609,-2.3438,-2.2408,-2.2259,-2.2259,-2.2109,-2.1222,-2.1071,-2.091,-1.9995,-1.9844,-1.9844,-1.9844,-1.9844,-1.9854,-1.9854,-1.9636,-1.8986,-1.805,-1.531,-1.3039,-1.2056,-0.9726,-0.806,-0.806,-0.806,-0.806,-0.806,-0.806,-0.806,-0.806,-0.806,-0.806,-0.806,-0.806,-0.806,-0.806,-0.806,-0.806,-0.806,-0.7056,-0.6218,-0.5376,-0.4372,-0.4036,-0.3868,-0.3029,-0.3195,-0.3868,-0.3029,-0.2692,-0.2692,-0.2692,-0.2692,-0.2692,-0.2692,-0.2692,-0.2692,-0.2692,-0.2692,-0.2692,-0.2692,-0.2692,-0.2692,-0.2692,-0.2692,-0.2692,-0.2692,-0.2692,-0.2699,-0.2729,-0.2737,-0.2754,-0.2814,-0.2849,-0.2872,-0.2874,-0.2874,-0.2874,-0.2874,-0.2874,-0.2874,-0.2874,-0.2874,-0.2861,-0.2833,-0.2827,-0.2803,-0.2573,-0.2566,-0.2043,-0.0674,-0.0673,0.0,0.1344,0.2688,0.3362,0.353,0.471,0.5384,0.5384,0.6218,0.7056,0.806,0.8064,0.9063,1.0737,1.0737,1.0737,-2.778,0.0,0.0,0.0,0.0,0.0,-2.2558,-2.2259,-2.2109,-2.166,-2.136,-2.091,-2.0447,-2.0145,-1.9844,-1.9844,-1.9844,-1.9908,-2.0091,-2.0216,-1.9351,-1.7102,-1.5373,-1.3363,-1.0887,-0.9059,-0.806,0.0,-0.806,-0.806,-0.806,-0.806,-0.806,-0.806,-0.806,-0.806,-0.806,-0.806,-0.806,-0.806,-0.806,-0.806,-0.806,-0.7056,-0.6218,-0.5376,-0.5043,-0.4204,-0.3029,-0.2861,-0.2861,-0.3029,-0.2861,-0.2692,-0.2692,-0.2692,-0.2692,-0.2692,-0.2692,-0.2692,-0.2692,-0.2692,-0.2692,-0.2692,-0.2692,-0.2692,-0.2692,-0.2692,-0.2692,-0.2692,-0.2692,-0.2692,-0.2695,-0.2703,-0.2721,-0.2743,-0.2759,-0.2787,-0.2822,-0.2866,-0.2874,-0.2874,-0.2874,-0.2874,-0.2874,-0.2874,-0.2855,-0.2838,-0.283,-0.2791,-0.2412,-0.137,-0.1189,-0.0675,0.0673,0.0672,0.1344,0.2688,0.3194,0.3868,0.4878,0.5216,0.5384,0.5384,0.5717,0.6556,0.806,0.8733,0.9569,1.0737,1.0737,1.0737,-2.8068,-2.7346,-2.6328,-2.387,0.0,0.0,-2.2707,-2.2259,-2.2259,-2.181,-2.151,-2.1245,-2.0731,-2.045,-2.0331,-2.0134,-2.0145,-2.0156,-2.021,-2.05,-1.9789,-1.7342,-1.5731,-1.3686,-1.122,-0.9226,-0.806,-0.806,-0.806,-0.806,-0.806,-0.806,-0.806,-0.806,-0.806,-0.806,-0.806,-0.7725,-0.7725,-0.806,-0.7725,-0.7725,-0.806,-0.6721,-0.5879,-0.5376,-0.4539,-0.37,-0.2692,-0.2692,-0.2692,-0.2692,-0.2692,-0.2692,-0.2692,-0.2692,-0.2692,-0.2692,-0.2692,-0.2692,-0.2692,-0.2692,-0.2692,-0.2692,-0.2692,-0.2692,-0.2692,-0.2692,-0.2692,-0.2692,-0.2692,-0.2692,-0.2692,-0.2692,-0.2706,-0.2722,-0.2735,-0.2751,-0.2782,-0.2844,-0.2855,-0.2859,-0.2872,-0.2863,-0.2855,-0.2855,-0.2829,-0.2806,-0.2792,-0.2759,-0.222,-0.085,-0.0676,0.0,0.2016,0.2184,0.2688,0.4204,0.4204,0.4542,0.5384,0.5384,0.5384,0.5384,0.5384,0.6221,0.806,0.8566,0.9569,1.0737,1.0737,1.0737,-2.925,-2.8099,-2.6531,-2.5092,-2.4676,0.0,-2.2793,-2.2343,-2.2343,-2.1905,-2.1754,-2.1662,-2.0977,-2.0857,-2.0781,-2.0689,-2.0587,-2.0522,-2.0317,-2.064,-2.0272,-1.8371,-1.6065,-1.4024,-1.205,-0.9559,-0.806,-0.806,-0.806,-0.806,-0.806,-0.806,-0.806,-0.806,-0.806,-0.806,-0.806,-0.7223,-0.7223,-0.806,-0.7223,-0.7223,-0.806,-0.6218,-0.5376,-0.5379,-0.3532,-0.2861,-0.2692,-0.2861,-0.2861,-0.2692,-0.2692,-0.2692,-0.2692,-0.2692,-0.2692,-0.2692,-0.2692,-0.2692,-0.2692,-0.2692,-0.2692,-0.2692,-0.2692,-0.2692,-0.2692,-0.2692,-0.2692,-0.2692,-0.2692,-0.2692,-0.2692,-0.2692,-0.2692,-0.2699,-0.2727,-0.2733,-0.275,-0.2807,-0.2821,-0.2831,-0.2859,-0.2841,-0.2823,-0.2823,-0.2797,-0.2769,-0.2742,-0.2735,-0.2212,-0.0674,-0.0505,0.0673,0.3362,0.3698,0.4204,0.5384,0.5384,0.5384,0.5384,0.5384,0.5384,0.5384,0.5552,0.6389,0.806,0.8227,0.923,1.0737,1.0737,1.0737,-2.925,-2.8267,-2.6848,-2.5242,-2.513,0.0,-2.3347,-2.2887,-2.2887,-2.2887,-2.2579,-2.214,-2.1722,-2.1268,-2.0968,-2.0711,-2.0716,-2.0823,-2.077,-2.0845,-1.9994,-1.724,-1.5647,-1.3521,-1.0721,-0.9063,-0.806,-0.806,-0.806,-0.806,-0.806,-0.806,-0.806,-0.806,-0.806,-0.806,-0.806,-0.7893,-0.7893,-0.806,-0.7893,-0.7893,-0.806,-0.6218,-0.5376,-0.5376,-0.4204,-0.3363,-0.2692,-0.3532,-0.3363,-0.2692,-0.2692,-0.2692,-0.2692,-0.2692,-0.2692,-0.2692,-0.2692,-0.2692,-0.2692,-0.2692,-0.2692,-0.2692,-0.2692,-0.2692,-0.2692,-0.2692,-0.2692,-0.2692,-0.2692,-0.2692,-0.2692,-0.2692,-0.2692,-0.2694,-0.2701,-0.2701,-0.2712,-0.2748,-0.2776,-0.2795,-0.28,-0.2796,-0.2792,-0.2792,-0.2766,-0.2744,-0.2739,-0.2717,-0.1855,0.0672,0.084,0.2016,0.471,0.5046,0.5048,0.5384,0.5384,0.5384,0.5384,0.5384,0.5384,0.5384,0.6053,0.7056,0.806,0.9564,1.0404,1.0737,1.0737,1.0737,-3.0673,-3.0341,-2.9408,-2.7044,-2.6556,0.0,0.0,-2.3043,-2.3043,-2.3043,-2.2889,-2.2769,-2.2287,-2.1996,-2.157,-2.1375,-2.1177,-2.1093,-2.1093,-2.1093,-2.0481,-1.8626,-1.6155,-1.3851,-1.1878,-0.9559,-0.806,-0.806,-0.806,-0.806,-0.806,-0.806,-0.806,-0.806,-0.806,-0.806,-0.806,-0.7558,-0.7558,-0.806,-0.7558,-0.7391,-0.7391,-0.6047,-0.5211,-0.4707,-0.37,-0.3029,-0.2692,-0.3195,-0.3029,-0.2692,-0.2692,-0.2692,-0.2692,-0.2692,-0.2692,-0.2692,-0.2692,-0.2692,-0.2692,-0.2692,-0.2692,-0.2692,-0.2692,-0.2692,-0.2692,-0.2692,-0.2692,-0.2692,-0.2692,-0.2692,-0.2692,-0.2692,-0.2692,-0.2692,-0.2692,-0.2692,-0.2697,-0.2713,-0.2728,-0.2747,-0.2778,-0.277,-0.2761,-0.2761,-0.2735,-0.2716,-0.2716,-0.2194,-0.1009,0.1008,0.1848,0.3194,0.5216,0.5384,0.5384,0.5384,0.5384,0.5384,0.5384,0.5384,0.5384,0.5384,0.6218,0.7223,0.806,0.9402,1.0237,1.0737,1.0737,1.0737,-3.221,-3.221,-3.1581,-2.8732,-2.7719,-2.685,0.0,0.0,0.0,-2.32,-2.32,-2.3116,-2.2858,-2.2429,-2.2157,-2.1823,0.0,0.0,0.0,-2.1243,0.0,-2.013,-1.7147,-1.4676,-1.3535,-1.0388,-0.8395,-0.806,-0.8395,-0.8395,-0.806,-0.806,-0.806,-0.806,-0.806,-0.806,-0.806,-0.7223,-0.7223,-0.806,-0.7223,-0.6721,-0.6717,-0.5879,-0.4875,-0.3868,-0.3029,-0.2692,-0.2692,-0.2692,-0.2692,-0.2692,-0.2692,-0.2692,-0.2692,-0.2692,-0.2692,-0.2692,-0.2692,-0.2692,-0.2692,-0.2692,-0.2692,-0.2692,-0.2692,-0.2692,-0.2692,-0.2692,-0.2692,-0.2692,-0.2692,-0.2692,-0.2692,-0.2692,-0.2692,-0.2692,-0.2692,-0.2692,-0.2692,-0.2692,-0.2692,-0.2707,-0.2758,-0.2746,-0.2729,-0.2729,-0.2707,-0.2524,-0.2356,-0.1346,0.0,0.1512,0.2688,0.3868,0.5216,0.5384,0.5384,0.5384,0.5384,0.5384,0.5384,0.5384,0.5384,0.5384,0.6053,0.7056,0.806,0.8733,0.9736,1.0737,1.0737,1.0737,-3.2535,-3.1845,-3.0593,-2.8758,-2.7283,-2.5938,-2.4062,0.0,-2.3756,-2.3756,0.0,-2.3448,-2.2843,0.0,0.0,-2.1134,-2.1136,-2.12,-2.0974,-2.1136,-2.0952,-2.013,-1.7973,-1.5663,-1.3528,-1.1214,-0.9392,-0.8227,-0.9226,-0.9392,-0.8227,-0.806,-0.806,-0.806,-0.806,-0.806,-0.806,-0.7223,-0.7223,-0.806,-0.7223,-0.6721,-0.6717,-0.5879,-0.4875,-0.3868,-0.3029,-0.2692,-0.2692,-0.2692,-0.2692,-0.2692,-0.2692,-0.2692,-0.2692,-0.2692,-0.2692,-0.2692,-0.2692,-0.2692,-0.2692,-0.2692,-0.2692,-0.2692,-0.2692,-0.2692,-0.2692,-0.2692,-0.2692,-0.2692,-0.2692,-0.2692,-0.2692,-0.2692,-0.2692,-0.2692,-0.2692,-0.2692,-0.2692,-0.2692,-0.2692,-0.2695,-0.2702,-0.2699,-0.2698,-0.2698,-0.2695,-0.2188,-0.1009,-0.0841,0.0336,0.2858,0.3362,0.3868,0.5216,0.5384,0.5384,0.5384,0.5384,0.5384,0.5384,0.5384,0.5384,0.5384,0.5552,0.6389,0.806,0.8227,0.9063,1.0737,1.0737,1.0737,-3.2981,-3.2076,-3.0651,-2.8946,-2.7493,-2.5872,-2.416,-2.384,-2.384,-2.384,0.0,0.0,0.0,0.0,0.0,0.0,-2.1372,-2.1243,0.0,0.0,-2.1114,-2.079,0.0,0.0,-1.1878,-1.1386,-1.0393,-0.8227,-0.9392,-0.9559,-0.8227,-0.806,-0.806,-0.806,-0.806,-0.7893,-0.7223,-0.7391,-0.7391,-0.7223,-0.7391,-0.6888,-0.5879,-0.5547,-0.4539,-0.3195,-0.2861,-0.2692,-0.2692,-0.2692,-0.2692,-0.2692,-0.2692,-0.2692,-0.2692,-0.2692,-0.2692,-0.2692,-0.2692,-0.2692,-0.2692,-0.2692,-0.2692,-0.2692,-0.2692,-0.2692,-0.2692,-0.2692,-0.2692,-0.2692,-0.2692,-0.2692,-0.2692,-0.2692,-0.2692,-0.2692,-0.2692,-0.2692,-0.2692,-0.2692,-0.2692,-0.2692,-0.2692,-0.2692,-0.2692,-0.2692,-0.2692,-0.2188,-0.0841,0.0,0.1176,0.3194,0.4036,0.471,0.5384,0.5384,0.5384,0.5384,0.5384,0.5384,0.5384,0.5384,0.5384,0.5384,0.5384,0.6221,0.806,0.806,0.9063,1.0737,1.0737,1.0737,-3.3391,-3.2692,-3.1485,-2.9308,-2.7905,-2.6504,-2.432,-2.384,-2.384,-2.384,-2.384,0.0,0.0,0.0,-2.2384,-2.1823,0.0,-2.1254,-2.119,-2.1233,-2.1276,-2.1276,0.0,0.0,0.0,-1.2216,-1.1718,-0.9392,-1.006,-1.006,-0.8729,-0.8227,-0.806,-0.806,-0.806,-0.7725,-0.7056,-0.7558,-0.7558,-0.7056,-0.7558,-0.6888,-0.5376,-0.5376,-0.4372,-0.2692,-0.2692,-0.2692,-0.2692,-0.2692,-0.2692,-0.2692,-0.2692,-0.2692,-0.2692,-0.2692,-0.2692,-0.2692,-0.2692,-0.2692,-0.2692,-0.2692,-0.2692,-0.2692,-0.2692,-0.2692,-0.2692,-0.2692,-0.2692,-0.2692,-0.2692,-0.2692,-0.2692,-0.2692,-0.2692,-0.2692,-0.2692,-0.2692,-0.2692,-0.2692,-0.2692,-0.2692,-0.2692,-0.2692,-0.2692,-0.2692,-0.2692,-0.2018,-0.0336,0.0672,0.2016,0.37,0.4878,0.5384,0.5384,0.5384,0.5384,0.5384,0.5384,0.5384,0.5384,0.5384,0.5384,0.5384,0.5384,0.6221,0.806,0.806,0.9063,1.0737,1.0737,1.0737,-3.3717,-3.3685,-3.2909,-2.9619,-2.8686,-2.7905,-2.4627,-2.384,-2.384,-2.384,-2.384,-2.368,-2.3211,-2.2889,-2.2327,-2.1749,-2.1435,0.0,0.0,-2.1125,-2.1276,-2.1276,-1.8626,-1.6328,0.0,-1.4375,-1.3383,-1.2056,-1.2056,-1.1392,-1.006,-0.8729,-0.806,-0.806,-0.806,-0.806,-0.806,-0.7223,-0.7223,-0.806,-0.7223,-0.6214,-0.5376,-0.5376,-0.4372,-0.2692,-0.2692,-0.2692,-0.2692,-0.2692,-0.2692,-0.2692,-0.2692,-0.2692,-0.2692,-0.2692,-0.2692,-0.2692,-0.2692,-0.2692,-0.2692,-0.2692,-0.2692,-0.2692,-0.2692,-0.2692,-0.2692,-0.2692,-0.2692,-0.2692,-0.2692,-0.2692,-0.2692,-0.2692,-0.2692,-0.2692,-0.2692,-0.2692,-0.2692,-0.2692,-0.2692,-0.2692,-0.2692,-0.2692,-0.2692,-0.2692,-0.2692,-0.1682,0.084,0.1344,0.2352,0.5046,0.5384,0.5384,0.5384,0.5384,0.5384,0.5384,0.5384,0.5384,0.5384,0.5384,0.5384,0.5384,0.5384,0.6221,0.806,0.806,0.9063,1.0737,1.0737,1.0737,-3.2402,-3.1347,-2.9928,-2.7748,-2.6346,-2.5251,-2.4,-2.384,-2.384,-2.384,-2.384,-2.352,-2.2889,-2.2728,-2.2372,-2.149,-2.1383,-2.1254,0.0,-2.1222,-2.1276,-2.1276,-1.9307,-1.7328,-1.5522,0.0,0.0,-1.2222,-1.2886,-1.2388,-1.0226,-0.9726,-0.9059,-0.8064,-0.806,-0.7725,-0.7223,-0.7558,-0.7558,-0.7223,-0.7558,-0.6888,-0.5376,-0.5376,-0.4372,-0.2692,-0.2692,-0.2692,-0.2692,-0.2692,-0.2692,-0.2692,-0.2692,-0.2692,-0.2692,-0.2692,-0.2692,-0.2692,-0.2692,-0.2692,-0.2692,-0.2692,-0.2692,-0.2692,-0.2692,-0.2692,-0.2692,-0.2692,-0.2692,-0.2692,-0.2692,-0.2692,-0.2692,-0.2692,-0.2692,-0.2692,-0.2692,-0.2692,-0.2692,-0.2692,-0.2692,-0.2692,-0.2692,-0.2692,-0.2692,-0.2692,-0.2692,-0.1682,0.1008,0.1344,0.2352,0.5048,0.5384,0.5384,0.5384,0.5384,0.5384,0.5384,0.5384,0.5384,0.5384,0.5384,0.5384,0.5384,0.5384,0.6221,0.806,0.806,0.9063,1.0737,1.0737,1.0737,-3.1654,-3.0083,-2.8374,-2.6662,-2.5568,-2.4467,-2.4,-2.384,-2.368,-2.368,-2.352,-2.3359,-2.2728,-2.2406,-2.2245,-2.1599,-2.1438,-2.1276,0.0,-2.1276,-2.1276,-2.1276,-1.9805,-1.8155,-1.6681,-1.6196,-1.5381,-1.3549,-1.388,-1.3383,-1.1552,-1.1053,-1.0226,-0.8896,-0.8896,-0.8227,-0.7223,-0.7725,-0.7725,-0.7223,-0.7893,-0.7223,-0.5376,-0.5376,-0.4372,-0.2692,-0.2692,-0.2692,-0.2692,-0.2692,-0.2692,-0.2692,-0.2692,-0.2692,-0.2692,-0.2692,-0.2692,-0.2692,-0.2692,-0.2692,-0.2692,-0.2692,-0.2692,-0.2692,-0.2692,-0.2692,-0.2695,-0.2706,-0.2701,-0.2695,-0.2706,-0.2701,-0.2692,-0.2692,-0.2692,-0.2692,-0.2692,-0.2692,-0.2692,-0.2692,-0.2692,-0.2692,-0.2692,-0.2356,-0.2188,-0.2692,-0.2356,-0.1177,0.1008,0.168,0.2858,0.5216,0.5384,0.5384,0.5384,0.5384,0.5384,0.5384,0.5384,0.5384,0.5384,0.5384,0.5403,0.5447,0.5406,0.6246,0.8158,0.8093,0.9063,1.0737,1.0737,1.0737]}]]